[[{"header":{"parameterUnit":"m.s-1","parameterCategory":1,"la1":30.6,"la2":29.2853,"lo1":-89.7004,"lo2":-87.6739,"dy":0.0162,"dx":0.0183,"nx":112,"ny":82,"refTime":"2024-11-27T06:00:00:Z","depth":0,"parameterNumber":2,"parameterNumberName":"U-component_of_WINDS"},"data":[0.0,0.0,0.0,0.0,0.0,0.0,0.0,0.0,0.0,0.0,0.0,0.0,0.0,0.0,0.0,0.0,0.0,0.0,0.0,0.0,0.0,0.0,0.0,0.0,0.0,0.0,0.0,0.0,0.0,0.0,0.0,0.0,0.0,0.0,0.0,0.0,0.0,0.0,0.0,0.0,0.0,0.0,0.0,0.0,0.0,0.0,0.0,0.0,0.0,0.0,0.0,0.0,0.0,0.0,0.0,0.0,0.0,0.0,0.0,0.0,0.0,0.0,0.0,0.0,0.0,0.0,0.0,0.0,0.0,0.0,0.0,0.0,0.0,0.0,0.0,0.0,0.0,0.0,0.0,0.0,0.0,0.0,0.0,0.0,0.0,0.0,0.0,0.0,0.0,0.0,0.0,-3.1955,-3.0078,-2.907,-2.9636,-2.8764,-2.7894,-2.732,0.0,0.0,0.0,0.0,0.0,0.0,0.0,0.0,0.0,0.0,0.0,0.0,0.0,0.0,0.0,0.0,0.0,0.0,0.0,0.0,0.0,0.0,0.0,0.0,0.0,0.0,0.0,0.0,0.0,0.0,0.0,0.0,0.0,0.0,0.0,0.0,0.0,0.0,0.0,0.0,0.0,0.0,0.0,0.0,0.0,0.0,0.0,0.0,0.0,0.0,0.0,0.0,0.0,0.0,0.0,0.0,0.0,0.0,0.0,0.0,0.0,0.0,0.0,0.0,0.0,0.0,0.0,0.0,0.0,0.0,0.0,0.0,0.0,0.0,0.0,0.0,0.0,0.0,0.0,0.0,0.0,0.0,0.0,0.0,0.0,0.0,0.0,0.0,0.0,0.0,0.0,0.0,0.0,0.0,0.0,0.0,0.0,0.0,0.0,0.0,0.0,0.0,0.0,0.0,-3.1885,-3.173,-3.0138,-2.9232,-2.9645,-2.886,-2.8015,-2.7272,0.0,0.0,0.0,0.0,0.0,0.0,0.0,0.0,0.0,0.0,0.0,0.0,0.0,0.0,0.0,0.0,0.0,0.0,0.0,0.0,0.0,0.0,0.0,0.0,0.0,0.0,0.0,0.0,0.0,0.0,0.0,0.0,0.0,0.0,0.0,0.0,0.0,0.0,0.0,0.0,0.0,0.0,0.0,0.0,0.0,0.0,0.0,0.0,0.0,0.0,0.0,0.0,0.0,0.0,0.0,0.0,0.0,0.0,0.0,0.0,0.0,0.0,0.0,0.0,0.0,0.0,0.0,0.0,0.0,0.0,0.0,0.0,0.0,0.0,0.0,0.0,0.0,0.0,0.0,0.0,0.0,0.0,0.0,0.0,0.0,0.0,0.0,0.0,0.0,0.0,0.0,0.0,0.0,0.0,0.0,0.0,0.0,0.0,0.0,0.0,0.0,0.0,0.0,-3.2138,-3.195,-3.2413,-2.9967,-2.8661,-2.9636,-2.8396,-2.7314,-2.6657,-2.6488,0.0,0.0,0.0,0.0,0.0,0.0,0.0,0.0,0.0,0.0,0.0,0.0,0.0,0.0,0.0,0.0,0.0,0.0,0.0,0.0,0.0,0.0,0.0,0.0,0.0,0.0,0.0,0.0,0.0,0.0,0.0,0.0,0.0,0.0,0.0,0.0,0.0,0.0,0.0,0.0,0.0,0.0,0.0,0.0,0.0,0.0,0.0,0.0,0.0,0.0,0.0,0.0,0.0,0.0,0.0,0.0,0.0,0.0,0.0,0.0,0.0,0.0,0.0,0.0,0.0,0.0,0.0,0.0,0.0,0.0,0.0,0.0,0.0,0.0,0.0,0.0,0.0,0.0,0.0,0.0,0.0,0.0,0.0,0.0,0.0,0.0,0.0,0.0,0.0,0.0,0.0,0.0,0.0,0.0,0.0,0.0,0.0,0.0,0.0,0.0,0.0,0.0,-3.2761,-3.2347,-3.3011,-3.0006,-2.8429,-2.9599,-2.8014,-2.6755,-2.6266,-2.605,0.0,0.0,0.0,0.0,0.0,0.0,0.0,0.0,0.0,0.0,0.0,0.0,0.0,0.0,0.0,0.0,0.0,0.0,0.0,0.0,0.0,0.0,0.0,0.0,0.0,0.0,0.0,0.0,0.0,0.0,0.0,0.0,0.0,0.0,0.0,0.0,0.0,0.0,0.0,0.0,0.0,0.0,0.0,0.0,0.0,0.0,0.0,0.0,0.0,0.0,0.0,0.0,0.0,0.0,0.0,0.0,0.0,0.0,0.0,0.0,0.0,0.0,0.0,0.0,0.0,0.0,0.0,0.0,0.0,0.0,0.0,0.0,0.0,0.0,0.0,0.0,0.0,0.0,0.0,0.0,0.0,0.0,0.0,0.0,0.0,0.0,0.0,0.0,0.0,0.0,0.0,0.0,0.0,0.0,0.0,0.0,0.0,0.0,0.0,0.0,0.0,0.0,-3.2887,-3.2967,-3.2928,-3.0544,-2.9206,-2.9645,-2.816,-2.6987,-2.6576,-2.5858,0.0,0.0,0.0,0.0,0.0,0.0,0.0,0.0,0.0,0.0,0.0,0.0,0.0,0.0,0.0,0.0,0.0,0.0,0.0,0.0,0.0,0.0,0.0,0.0,0.0,0.0,0.0,0.0,0.0,0.0,0.0,0.0,0.0,0.0,0.0,0.0,0.0,0.0,0.0,0.0,0.0,0.0,0.0,0.0,0.0,0.0,0.0,0.0,0.0,0.0,0.0,0.0,0.0,0.0,0.0,0.0,0.0,0.0,0.0,0.0,0.0,0.0,0.0,0.0,0.0,0.0,0.0,0.0,0.0,0.0,0.0,0.0,0.0,0.0,0.0,0.0,0.0,0.0,0.0,0.0,0.0,0.0,0.0,0.0,0.0,0.0,0.0,0.0,0.0,0.0,0.0,0.0,0.0,0.0,0.0,0.0,0.0,0.0,0.0,0.0,0.0,0.0,-3.2293,-3.2386,0.0,-3.0627,-2.9257,-2.9683,-2.8621,-2.7566,-2.6644,0.0,0.0,0.0,0.0,0.0,0.0,0.0,0.0,0.0,0.0,0.0,0.0,0.0,0.0,0.0,0.0,0.0,0.0,0.0,0.0,0.0,0.0,0.0,0.0,0.0,0.0,0.0,0.0,0.0,0.0,0.0,0.0,0.0,0.0,0.0,0.0,0.0,0.0,0.0,0.0,0.0,0.0,0.0,0.0,0.0,0.0,0.0,0.0,0.0,0.0,0.0,0.0,0.0,0.0,0.0,0.0,0.0,0.0,0.0,0.0,0.0,0.0,0.0,0.0,0.0,0.0,0.0,0.0,0.0,0.0,0.0,0.0,0.0,0.0,0.0,0.0,0.0,0.0,0.0,0.0,0.0,0.0,0.0,0.0,0.0,0.0,0.0,0.0,0.0,0.0,0.0,0.0,0.0,0.0,0.0,0.0,0.0,0.0,0.0,0.0,0.0,0.0,-3.219,-3.2178,-3.2275,0.0,-3.0852,-2.9449,-2.9322,-2.8525,-2.7546,-2.6287,0.0,0.0,0.0,0.0,0.0,0.0,0.0,0.0,0.0,0.0,0.0,0.0,0.0,0.0,0.0,0.0,0.0,0.0,0.0,0.0,0.0,0.0,0.0,0.0,0.0,0.0,0.0,0.0,0.0,0.0,0.0,0.0,0.0,0.0,0.0,0.0,0.0,0.0,0.0,0.0,0.0,0.0,0.0,0.0,0.0,0.0,0.0,0.0,0.0,0.0,0.0,0.0,0.0,0.0,0.0,0.0,0.0,0.0,0.0,0.0,0.0,0.0,0.0,0.0,0.0,0.0,0.0,0.0,0.0,0.0,0.0,0.0,0.0,0.0,0.0,0.0,0.0,0.0,0.0,0.0,0.0,0.0,0.0,0.0,0.0,0.0,0.0,0.0,0.0,0.0,0.0,0.0,0.0,0.0,0.0,0.0,0.0,0.0,0.0,0.0,0.0,0.0,-3.2483,-3.2753,-3.2891,-3.2891,-3.1385,-2.9877,-2.8599,-2.7781,-2.6764,0.0,0.0,0.0,0.0,0.0,0.0,0.0,0.0,0.0,0.0,0.0,0.0,0.0,0.0,0.0,0.0,0.0,0.0,0.0,0.0,0.0,0.0,0.0,0.0,0.0,0.0,0.0,0.0,0.0,0.0,0.0,0.0,0.0,0.0,0.0,0.0,0.0,0.0,0.0,0.0,0.0,0.0,0.0,0.0,0.0,0.0,0.0,0.0,0.0,0.0,0.0,0.0,0.0,0.0,0.0,0.0,0.0,0.0,0.0,0.0,0.0,0.0,0.0,0.0,0.0,0.0,0.0,0.0,0.0,0.0,0.0,0.0,0.0,0.0,0.0,0.0,0.0,0.0,0.0,0.0,0.0,0.0,0.0,0.0,0.0,0.0,0.0,0.0,0.0,0.0,0.0,0.0,0.0,0.0,0.0,0.0,0.0,0.0,0.0,0.0,0.0,0.0,0.0,-3.2257,-3.2675,-3.2891,-3.2891,-3.0852,-2.9275,-2.8774,-2.7909,-2.6904,-2.569,0.0,0.0,0.0,0.0,0.0,0.0,0.0,0.0,0.0,0.0,0.0,0.0,0.0,0.0,0.0,0.0,0.0,0.0,0.0,0.0,0.0,0.0,0.0,0.0,0.0,0.0,0.0,0.0,0.0,0.0,0.0,0.0,0.0,0.0,0.0,0.0,0.0,0.0,0.0,0.0,0.0,0.0,0.0,0.0,0.0,0.0,0.0,0.0,0.0,0.0,0.0,0.0,0.0,0.0,0.0,0.0,0.0,0.0,0.0,0.0,0.0,0.0,0.0,0.0,0.0,0.0,0.0,0.0,0.0,0.0,0.0,0.0,0.0,0.0,0.0,0.0,0.0,0.0,0.0,0.0,0.0,0.0,0.0,0.0,0.0,0.0,0.0,0.0,0.0,0.0,0.0,0.0,0.0,0.0,0.0,0.0,0.0,0.0,0.0,0.0,0.0,0.0,-3.2301,-3.269,-3.2891,-3.2891,-3.0627,-2.8871,-2.8363,-2.7528,-2.6529,-2.5402,0.0,0.0,0.0,0.0,0.0,0.0,0.0,0.0,0.0,0.0,0.0,0.0,0.0,0.0,0.0,0.0,0.0,0.0,0.0,0.0,0.0,0.0,0.0,0.0,0.0,0.0,0.0,0.0,0.0,0.0,0.0,0.0,0.0,0.0,0.0,0.0,0.0,0.0,0.0,0.0,0.0,0.0,0.0,0.0,0.0,0.0,0.0,0.0,0.0,0.0,0.0,0.0,0.0,0.0,0.0,0.0,0.0,0.0,0.0,0.0,0.0,0.0,0.0,0.0,0.0,0.0,0.0,0.0,0.0,0.0,0.0,0.0,0.0,0.0,0.0,0.0,0.0,0.0,0.0,0.0,0.0,0.0,0.0,0.0,0.0,0.0,0.0,0.0,0.0,0.0,0.0,0.0,0.0,0.0,0.0,0.0,0.0,0.0,0.0,0.0,0.0,0.0,-3.2483,-3.2725,-3.2833,-3.2776,-3.0512,-2.8576,-2.7593,-2.6689,-2.5818,-2.4877,0.0,0.0,0.0,0.0,0.0,0.0,0.0,0.0,0.0,0.0,0.0,0.0,0.0,0.0,0.0,0.0,0.0,0.0,0.0,0.0,0.0,0.0,0.0,0.0,0.0,0.0,0.0,0.0,0.0,0.0,0.0,0.0,0.0,0.0,0.0,0.0,0.0,0.0,0.0,0.0,0.0,0.0,0.0,0.0,0.0,0.0,0.0,0.0,0.0,0.0,0.0,0.0,0.0,0.0,0.0,0.0,0.0,0.0,0.0,0.0,-2.4593,0.0,0.0,0.0,0.0,0.0,0.0,0.0,0.0,0.0,0.0,0.0,0.0,0.0,0.0,0.0,0.0,0.0,0.0,0.0,0.0,0.0,0.0,0.0,0.0,0.0,0.0,0.0,0.0,0.0,0.0,0.0,0.0,0.0,0.0,0.0,0.0,0.0,0.0,0.0,0.0,0.0,-3.2212,-3.2474,-3.2414,-3.1988,-2.966,-2.7802,-2.6886,-2.5997,-2.5362,-2.4987,-2.4809,0.0,0.0,0.0,0.0,0.0,0.0,0.0,0.0,0.0,0.0,0.0,0.0,0.0,0.0,0.0,0.0,0.0,0.0,0.0,0.0,0.0,0.0,0.0,0.0,0.0,0.0,0.0,0.0,0.0,0.0,0.0,0.0,0.0,0.0,0.0,0.0,0.0,0.0,0.0,0.0,0.0,0.0,0.0,0.0,0.0,0.0,0.0,0.0,0.0,0.0,0.0,0.0,0.0,0.0,0.0,0.0,0.0,0.0,0.0,0.0,-2.5156,0.0,0.0,0.0,0.0,0.0,0.0,0.0,0.0,0.0,0.0,0.0,0.0,0.0,0.0,0.0,0.0,0.0,0.0,0.0,0.0,0.0,0.0,0.0,0.0,0.0,0.0,0.0,0.0,0.0,0.0,0.0,0.0,0.0,0.0,0.0,0.0,0.0,0.0,0.0,0.0,-3.2656,-3.2627,-3.2439,-3.2295,-2.966,-2.7741,-2.7274,-2.6038,-2.5278,-2.5133,-2.4987,0.0,0.0,0.0,0.0,0.0,0.0,0.0,0.0,0.0,0.0,0.0,0.0,0.0,0.0,0.0,0.0,0.0,0.0,0.0,0.0,0.0,0.0,0.0,0.0,0.0,0.0,0.0,0.0,0.0,0.0,0.0,0.0,0.0,0.0,0.0,0.0,0.0,0.0,0.0,0.0,0.0,0.0,0.0,0.0,0.0,0.0,0.0,0.0,0.0,0.0,0.0,0.0,0.0,-2.6188,-2.6129,-2.5792,-2.5873,-2.5926,-2.5873,-2.4874,-2.5183,-2.6348,-2.6299,0.0,0.0,0.0,0.0,0.0,0.0,0.0,0.0,0.0,0.0,0.0,0.0,0.0,0.0,0.0,0.0,0.0,0.0,0.0,0.0,0.0,0.0,0.0,0.0,-2.5412,-2.5416,0.0,0.0,0.0,0.0,0.0,0.0,0.0,0.0,0.0,0.0,0.0,0.0,-3.2954,-3.2674,-3.2376,-3.2325,-2.9639,-2.7775,-2.7621,-2.6177,-2.5308,-2.5308,-2.5105,-2.4985,0.0,0.0,0.0,0.0,0.0,0.0,0.0,0.0,0.0,0.0,0.0,0.0,0.0,0.0,0.0,0.0,0.0,0.0,0.0,0.0,0.0,0.0,0.0,0.0,0.0,0.0,0.0,0.0,0.0,0.0,0.0,0.0,-2.6669,-2.7511,0.0,0.0,0.0,0.0,0.0,0.0,0.0,0.0,0.0,0.0,0.0,0.0,0.0,-2.8122,-2.8021,-2.7844,-2.7148,-2.5924,-2.6987,-2.6576,-2.4963,-2.5452,-2.5655,-2.5655,-2.5503,0.0,-2.6838,-2.6377,0.0,0.0,0.0,0.0,0.0,0.0,0.0,0.0,0.0,0.0,0.0,0.0,0.0,0.0,0.0,0.0,0.0,0.0,0.0,0.0,0.0,0.0,-2.6359,-2.5128,-2.4887,-2.4919,0.0,-2.4411,-2.3987,-2.3336,-2.3363,0.0,0.0,0.0,0.0,0.0,0.0,0.0,-3.1879,-3.195,-3.1454,-3.0246,-2.8562,-2.7281,-2.6588,-2.5768,-2.5308,-2.5308,-2.5105,-2.4985,-2.4985,-2.4836,0.0,0.0,0.0,0.0,0.0,0.0,0.0,0.0,0.0,0.0,0.0,0.0,0.0,0.0,0.0,0.0,0.0,0.0,0.0,0.0,0.0,0.0,0.0,0.0,0.0,0.0,0.0,0.0,0.0,-2.5732,-2.686,-2.7838,-2.7364,-2.7047,0.0,0.0,0.0,0.0,0.0,0.0,0.0,0.0,0.0,-2.8577,-2.8719,-2.8569,-2.8124,-2.7939,-2.7273,-2.625,-2.6763,-2.6595,-2.5762,-2.6021,-2.6122,-2.6122,-2.6122,-2.6348,-2.6693,-2.6556,-2.6421,-2.6405,0.0,0.0,0.0,0.0,-2.6259,-2.5476,-2.6077,-2.5547,0.0,-2.4839,0.0,0.0,0.0,0.0,0.0,0.0,0.0,0.0,0.0,0.0,-2.5723,-2.5736,-2.5285,-2.4983,-2.5611,-2.5109,-2.4365,0.0,-2.4,-2.4259,-2.4225,0.0,0.0,0.0,0.0,0.0,-3.167,-3.1581,-3.108,-3.0188,-2.8449,-2.7176,-2.6827,-2.578,-2.5122,-2.5122,-2.5138,-2.5182,-2.5182,-2.5005,-2.4917,0.0,0.0,0.0,0.0,0.0,0.0,0.0,0.0,0.0,0.0,0.0,0.0,0.0,0.0,0.0,0.0,0.0,0.0,0.0,0.0,0.0,0.0,0.0,0.0,0.0,0.0,0.0,0.0,-2.613,-2.6904,-2.7971,-2.7306,-2.6842,0.0,0.0,0.0,0.0,0.0,0.0,-2.8304,-2.8601,-2.885,-2.9028,-2.8943,-2.8586,-2.7935,-2.759,-2.7095,-2.6499,-2.6348,-2.6273,-2.6273,-2.6273,-2.6273,-2.6273,-2.6424,-2.6499,-2.6483,-2.6451,-2.6265,-2.6101,-2.6481,-2.6723,-2.6881,-2.72,-2.7062,-2.6751,-2.7002,-2.6751,-2.6172,-2.546,0.0,-2.465,-2.3948,0.0,0.0,0.0,0.0,-2.4632,-2.5561,-2.5435,-2.5234,-2.6072,-2.5511,-2.5034,-2.5862,-2.541,-2.47,0.0,-2.4663,-2.4771,-2.4444,0.0,0.0,0.0,0.0,-2.9934,-3.1006,-3.0964,-3.0549,-2.9961,-2.8213,-2.7107,-2.7107,-2.5797,-2.4962,-2.4962,-2.5105,-2.5219,-2.5219,-2.5116,-2.5082,-2.5082,0.0,0.0,0.0,0.0,0.0,0.0,0.0,0.0,0.0,0.0,0.0,0.0,0.0,0.0,0.0,0.0,0.0,0.0,0.0,0.0,0.0,0.0,0.0,0.0,0.0,0.0,0.0,0.0,0.0,-2.7456,-2.7495,0.0,0.0,0.0,0.0,-2.7495,-2.8128,-2.9056,-3.0283,-2.9666,-2.9579,-3.0186,-2.8634,-2.7749,-2.7716,-2.696,-2.6533,-2.6474,-2.5946,-2.5636,-2.5636,-2.5636,-2.5636,-2.5661,-2.6248,-2.6499,-2.6449,-2.5904,-2.598,-2.6417,-2.5895,-2.6316,-2.7213,-2.6744,-2.6861,-2.7203,-2.67,-2.6147,-2.5711,-2.6248,-2.5661,-2.4876,-2.5335,-2.4757,0.0,0.0,-2.5511,-2.5661,-2.6298,-2.6021,-2.5561,-2.5636,-2.5209,-2.48,-2.485,-2.4825,-2.4926,0.0,-2.5141,-2.4811,-2.4857,0.0,-2.6215,-2.7738,-2.8392,-2.8904,-2.9369,-2.9737,-2.9582,-2.8619,-2.7569,-2.6926,-2.6926,-2.5617,-2.4818,-2.4818,-2.4949,-2.5036,-2.5036,-2.5198,-2.5298,-2.5298,-2.4968,0.0,0.0,0.0,0.0,0.0,0.0,0.0,0.0,0.0,0.0,0.0,0.0,0.0,0.0,0.0,0.0,0.0,0.0,0.0,0.0,0.0,0.0,0.0,0.0,0.0,0.0,0.0,0.0,-2.7901,-2.7365,0.0,-2.7667,-2.7419,-2.7854,-2.9355,-2.9188,-2.9462,-3.0338,-2.9592,-2.9218,-2.9473,-2.833,-2.7703,-2.7703,-2.6918,-2.6298,-2.5946,-2.5686,-2.5435,-2.5109,-2.5109,-2.5285,-2.5611,-2.5812,-2.6147,-2.6474,-2.6273,-2.6298,-2.6474,-2.6273,-2.665,-2.7304,-2.7102,-2.7344,-2.7745,-2.7193,-2.6866,-2.6666,-2.6549,-2.6223,-2.5946,-2.6122,-2.5921,-2.5695,-2.6072,-2.6172,-2.6086,-2.5638,-2.5324,-2.4863,-2.4068,-2.3403,-2.2991,-2.3081,-2.2864,-2.2959,-2.4047,-2.4575,-2.4798,-2.4897,-2.5418,-2.6205,-2.7309,-2.7995,-2.842,-2.8505,-2.8847,-2.8828,-2.8166,-2.7477,-2.6977,-2.6727,-2.5893,-2.5201,-2.4827,-2.4823,-2.4962,-2.5192,-2.5127,-2.5105,-2.5105,-2.4891,-2.4524,0.0,0.0,0.0,0.0,0.0,0.0,0.0,0.0,0.0,0.0,0.0,0.0,0.0,0.0,0.0,0.0,0.0,0.0,0.0,0.0,0.0,0.0,0.0,0.0,0.0,0.0,-2.7116,-2.7663,-2.7259,-2.7163,-2.7734,-2.767,-2.8086,-2.9415,-2.8944,-2.8907,-2.9563,-2.8761,-2.837,-2.8556,-2.7736,-2.7297,-2.7297,-2.6544,-2.6021,-2.5586,-2.5234,-2.4883,-2.4556,-2.47,-2.4976,-2.536,-2.5737,-2.6147,-2.6499,-2.6499,-2.6499,-2.6499,-2.6499,-2.6826,-2.7304,-2.7102,-2.7344,-2.7745,-2.7228,-2.7027,-2.6977,-2.6625,-2.6499,-2.6499,-2.6499,-2.6499,-2.643,-2.6094,-2.599,-2.5756,-2.4743,-2.4197,-2.3618,-2.2786,-2.2021,-2.1475,-2.1619,-2.1374,-2.1403,-2.2339,-2.3505,-2.4464,-2.4813,-2.5231,-2.5838,-2.6732,-2.7258,-2.7599,-2.7759,-2.8114,-2.8146,-2.7747,-2.7312,-2.6919,-2.6668,-2.5879,-2.5226,-2.4852,-2.472,-2.4953,-2.5497,-2.52,-2.5138,-2.5443,-2.4986,-2.4663,-2.449,0.0,0.0,0.0,0.0,0.0,0.0,0.0,0.0,0.0,0.0,0.0,0.0,0.0,0.0,0.0,0.0,0.0,0.0,0.0,0.0,0.0,0.0,0.0,-2.7411,-2.748,-2.728,-2.6723,-2.7195,-2.7345,-2.6697,-2.715,-2.7474,-2.7502,-2.7341,-2.7518,-2.8097,-2.7314,-2.7097,-2.7617,-2.6892,-2.6474,-2.6474,-2.5896,-2.5586,-2.5536,-2.4506,-2.4004,-2.4029,-2.4531,-2.4775,-2.4876,-2.5971,-2.6449,-2.6499,-2.6474,-2.6474,-2.6499,-2.6499,-2.6826,-2.7228,-2.67,-2.6826,-2.7193,-2.6675,-2.6499,-2.6499,-2.6499,-2.6499,-2.6499,-2.6499,-2.6499,-2.6267,-2.53,-2.5016,-2.4743,-2.3708,-2.2715,-2.1978,-2.1944,-2.1241,-2.0581,-2.0526,-2.0526,-2.0526,-2.0558,-2.2101,-2.3664,-2.4589,-2.4775,-2.5115,-2.606,-2.6209,0.0,-2.7133,-2.7486,-2.7585,-2.7366,-2.6991,-2.6696,-2.671,-2.5563,-2.4846,-2.4822,-2.4642,-2.4978,-2.5989,-2.5417,-2.5463,-2.6295,-2.5206,-2.4909,-2.5464,0.0,0.0,0.0,0.0,0.0,0.0,0.0,0.0,0.0,0.0,0.0,0.0,0.0,0.0,0.0,0.0,0.0,0.0,0.0,0.0,0.0,0.0,-2.7296,-2.748,-2.7537,-2.7655,-2.7946,-2.7739,-2.7501,-2.7272,-2.7407,-2.7453,-2.734,-2.6799,-2.6478,-2.6666,-2.6239,-2.6001,-2.6179,-2.6409,-2.6298,-2.5837,-2.5661,-2.5209,-2.4431,-2.413,-2.4004,-2.3979,-2.3697,-2.4224,-2.536,-2.4883,-2.5393,-2.6474,-2.6047,-2.6122,-2.6499,-2.6499,-2.6575,-2.67,-2.6549,-2.66,-2.67,-2.6549,-2.6499,-2.6499,-2.6499,-2.6499,-2.6499,-2.6499,-2.6499,-2.6267,-2.53,-2.5016,-2.46,-2.284,-2.2477,-2.2108,-2.0436,-2.0094,-1.9822,-1.8926,-1.8731,-1.8877,-1.9519,-2.0095,-2.1073,-2.2934,-2.4114,-2.5115,-2.606,-2.6209,0.0,-2.7829,-2.7603,-2.7519,-2.8026,-2.7519,-2.7037,-2.6717,-2.6388,-2.5964,-2.5494,-2.5534,-2.5858,-2.6394,-2.6417,-2.6336,-2.6302,-2.5881,-2.5527,0.0,0.0,0.0,0.0,0.0,0.0,0.0,0.0,0.0,0.0,0.0,0.0,0.0,0.0,0.0,0.0,0.0,0.0,0.0,0.0,0.0,0.0,-2.6864,-2.7537,-2.7537,-2.7783,-2.7879,-2.7705,-2.7352,-2.6983,-2.6661,-2.6357,-2.6104,-2.6031,-2.5312,-2.4957,-2.519,-2.5046,-2.5034,-2.5259,-2.5586,-2.5611,-2.5285,-2.5034,-2.4607,-2.4004,-2.4004,-2.4004,-2.4004,-2.3847,-2.4324,0.0,-2.4833,-2.5209,-2.6122,-2.6021,-2.6197,0.0,0.0,0.0,0.0,0.0,-2.6499,-2.6499,-2.6499,-2.6499,-2.6499,-2.6499,-2.6499,-2.6499,-2.6499,-2.6499,-2.6198,-2.4779,-2.4384,-2.3891,-2.1924,-2.1478,-2.1173,-1.9868,-1.9597,-1.9445,-1.8699,-1.8535,-1.8616,-1.8933,-1.9582,0.0,-2.1634,-2.2815,-2.3985,-2.5217,-2.5681,-2.6263,-2.7303,-2.7355,-2.7326,-2.7451,-2.7107,-2.664,-2.6111,-2.5894,0.0,0.0,0.0,-2.5781,-2.6442,-2.7063,0.0,0.0,0.0,0.0,0.0,0.0,0.0,0.0,-2.5681,-2.5581,0.0,0.0,0.0,0.0,0.0,0.0,0.0,0.0,0.0,0.0,0.0,0.0,0.0,0.0,0.0,0.0,-2.7041,-2.7403,-2.7263,-2.7709,-2.7659,-2.6628,-2.6416,-2.6095,-2.5356,-2.4681,-2.425,-2.4163,-2.3514,-2.3321,-2.3879,0.0,0.0,0.0,0.0,-2.475,-2.47,-2.4255,-2.3979,-2.3904,-2.3979,-2.4029,-2.4104,-2.4575,-2.485,-2.5001,-2.536,-2.5586,-2.5737,-2.6223,-2.6424,-2.6499,-2.6499,-2.6499,-2.6499,-2.6499,-2.6499,-2.6499,-2.6499,0.0,0.0,-2.6499,-2.6499,-2.6499,-2.6396,-2.6336,-2.5896,-2.3891,-2.332,-2.2936,-2.1088,-2.0273,-1.998,-1.9922,-1.9629,-1.9355,-1.9297,-1.9297,-1.918,-1.8754,-2.0009,-2.1063,-2.0782,-2.1478,-2.2586,-2.4192,-2.4992,-2.5679,-2.6431,-2.7045,-2.7159,-2.6532,0.0,0.0,-2.5342,-2.4871,-2.4839,-2.5463,-2.5335,-2.5643,-2.6577,-2.7622,-2.7991,-2.7475,-2.704,-2.7341,-2.8333,-2.7947,-2.7925,-2.8214,-2.6617,-2.6263,0.0,0.0,0.0,0.0,0.0,0.0,0.0,0.0,0.0,0.0,0.0,0.0,0.0,0.0,0.0,-2.5567,-2.63,-2.6349,-2.5253,-2.5194,-2.5576,-2.6412,-2.5987,-2.5328,-2.4567,-2.4366,-2.4044,-2.3395,-2.3185,-2.3145,-2.3271,-2.3753,-2.4054,-2.4155,-2.455,-2.4575,-2.4155,-2.4054,-2.3778,-2.3271,0.0,0.0,-2.4625,-2.475,-2.531,-2.6122,-2.531,-2.5485,-2.6298,-2.5946,-2.6072,-2.6499,-2.6499,-2.6499,-2.6499,-2.6499,-2.6499,-2.6499,-2.6499,-2.6499,-2.6499,-2.6499,-2.6499,-2.6336,-2.5546,-2.53,0.0,-2.284,-2.2301,-2.2038,-2.0895,-2.0546,-2.0352,-2.0,-1.9844,-1.9707,-1.9355,-1.9297,-1.9258,-1.918,-2.0088,-2.1064,-2.1642,-2.236,-2.3399,-2.4937,-2.5328,-2.6064,-2.7838,-2.7689,-2.7524,-2.7859,-2.688,-2.6146,-2.6019,-2.5432,-2.5556,-2.6679,-2.7879,-2.8533,-2.8486,-2.8705,-2.8365,-2.7341,-2.755,-2.7742,-2.7912,-2.7689,-2.8055,-2.8992,-2.8028,-2.7427,0.0,0.0,0.0,0.0,0.0,0.0,0.0,0.0,0.0,0.0,0.0,-2.32,-2.4224,0.0,-2.4341,-2.5011,-2.5112,-2.4862,-2.4187,-2.3793,-2.3796,-2.4471,-2.4204,-2.382,-2.3344,-2.3283,-2.3237,-2.3125,-2.3095,-2.3095,-2.3095,-2.3371,-2.3547,-2.3547,-2.3797,-2.3822,-2.3547,-2.3547,-2.3547,-2.3547,-2.413,-2.4682,-2.5209,-2.5209,-2.5511,-2.6021,-2.546,-2.5511,-2.6072,-2.6072,-2.6223,-2.6499,-2.6499,-2.6499,-2.6499,-2.6499,-2.6499,-2.6499,-2.6499,-2.6499,-2.643,-2.5921,-2.5721,-2.5546,-2.4564,-2.4253,-2.3927,-2.2392,-2.2,-2.1773,-2.0818,-2.0605,-2.0546,-2.0293,-2.0234,-2.0176,-2.0018,-1.9959,-1.9863,-1.9648,-2.0778,-2.1778,-2.1988,-2.3093,-2.4126,-2.4606,-2.4782,-2.5217,-2.6277,-2.641,-2.6365,-2.635,-2.6066,-2.5713,-2.5379,-2.5641,-2.6072,-2.6709,-2.7921,-2.8534,-2.8356,-2.8481,-2.8198,-2.7433,-2.7594,-2.7776,-2.7948,-2.791,-2.8056,-2.8297,-2.7906,-2.76,0.0,0.0,0.0,0.0,0.0,0.0,0.0,0.0,-2.2914,-2.3429,-2.3655,-2.3857,-2.4163,-2.3933,-2.3822,-2.4234,-2.3842,-2.3403,-2.3164,-2.2617,-2.2193,-2.2062,-2.2245,-2.2313,-2.2153,-2.2146,-2.2318,-2.2744,-2.2895,-2.2945,-2.2945,-2.3045,-2.3095,-2.3095,-2.3095,-2.3095,-2.3095,-2.3095,-2.3346,-2.3828,-2.4474,-2.4983,-2.5285,-2.5511,-2.5586,-2.5611,-2.5711,-2.5762,-2.5812,-2.6298,-2.6499,-2.6499,-2.6499,-2.6499,-2.6499,-2.6499,-2.6499,-2.6499,-2.6499,-2.6499,-2.6336,-2.5335,-2.5016,-2.4802,-2.3674,-2.3298,-2.301,-2.2105,-2.1797,-2.1545,-2.0779,-2.0605,-2.0605,-2.0605,-2.0605,-2.0605,-2.0605,-2.0605,-2.0507,-2.0117,-2.1418,-2.243,-2.2068,-2.3333,-2.4402,-2.4362,-2.4442,-2.4522,-2.4667,-2.5103,-2.5191,-2.4666,-2.5135,-2.5283,-2.4747,-2.5761,-2.6396,-2.6396,-2.7158,-2.7577,-2.7603,-2.7796,-2.7769,-2.7466,-2.7448,-2.7661,-2.8134,-2.7987,-2.7736,-2.7385,-2.7004,-2.6876,-2.2318,-2.3105,0.0,-2.4148,-2.4452,-2.5129,0.0,0.0,-2.5112,-2.4844,-2.4889,-2.4705,-2.3788,-2.3664,-2.3506,-2.2933,-2.2777,-2.2326,-2.1166,-2.0955,-2.0724,-2.0167,-2.1001,-2.1605,-2.1597,-2.1568,-2.1594,-2.1669,-2.2121,-2.2397,-2.2397,-2.2844,-2.3095,-2.3095,-2.3095,-2.3095,-2.3095,-2.3095,-2.3145,-2.3221,-2.4274,-2.4582,-2.4205,-2.5159,-2.5586,-2.5611,-2.6172,-2.6399,-2.6399,-2.6474,-2.6499,-2.6499,-2.6499,-2.6499,-2.6499,-2.6499,-2.6499,-2.6499,-2.6499,-2.6499,-2.6336,-2.5335,-2.5016,-2.4729,-2.3248,-2.2505,-2.2046,-2.1451,-2.1017,-2.0722,-2.0644,-2.0605,-2.0605,-2.0605,-2.0605,-2.0605,-2.0605,-2.0605,-2.0586,-2.0546,-2.1369,-2.2045,-2.2003,-2.252,-2.3557,-2.5412,-2.5292,-2.5252,-2.5925,-2.5659,-2.5356,-2.5301,-2.5418,-2.5513,-2.5479,-2.6027,-2.6393,-2.6393,-2.6941,-2.7252,-2.7269,-2.7279,-2.7283,-2.7208,-2.7228,-2.7581,-2.8265,-2.7103,-2.6825,-2.736,-2.5521,-2.4993,-2.2936,0.0,0.0,0.0,-2.5503,-2.5912,-2.6521,-2.5788,-2.4837,-2.4431,-2.4182,-2.3689,-2.2637,-2.2214,-2.1801,0.0,-2.1016,-2.0783,-2.024,-2.0189,-2.0062,-1.9836,-2.0514,-2.1043,-2.1043,-2.1043,-2.1169,-2.1496,-2.1694,-2.197,-2.2297,-2.2493,-2.2769,-2.3095,-2.3095,-2.3095,-2.3095,-2.3095,-2.3271,-2.3653,-2.413,-2.4381,-2.4481,-2.4933,-2.531,-2.5636,-2.6248,-2.6499,-2.6499,-2.6499,-2.6499,-2.6499,-2.6499,-2.6499,-2.6499,-2.6499,-2.6499,-2.6499,-2.6499,-2.67,-2.6706,-2.5081,-2.4751,-2.465,-2.2791,-2.209,-2.191,-2.1685,-2.1289,-2.0957,-2.0957,-2.0957,-2.0898,-2.0664,-2.0762,-2.0879,-2.0664,-2.0605,-2.0605,-2.0605,-2.1375,-2.2,-2.2,-2.265,-2.3481,-2.4372,-2.3766,-2.3563,-2.4394,-2.4317,-2.4463,-2.5159,-2.4993,-2.4968,-2.546,-2.5709,-2.5824,-2.5824,-2.6024,-2.6155,-2.6129,-2.6075,-2.6237,-2.6665,-2.6257,-2.6408,-2.7134,-2.6213,-2.5701,-2.5576,-2.4429,-2.3836,-2.344,0.0,0.0,-2.5798,-2.6098,-2.6286,-2.5976,-2.5077,-2.4175,-2.3523,-2.3062,-2.2356,-2.1168,-2.0733,-2.0394,-1.9832,-1.9761,-1.9811,-1.9811,-1.9811,-1.9811,-1.9811,-2.0189,-2.0515,-2.0666,-2.0691,-2.0867,-2.127,-2.1418,-2.1669,-2.2071,-2.2372,-2.2694,-2.3095,-2.3095,-2.3095,-2.3095,-2.3095,-2.3321,-2.3753,-2.3929,-2.413,-2.4324,-2.465,-2.5109,-2.5636,-2.6248,-2.6499,-2.6499,-2.6499,-2.6499,-2.6499,-2.6499,-2.6499,-2.6499,-2.6499,-2.6499,-2.6499,-2.6499,-2.6851,-2.7019,-2.5238,-2.4792,-2.4675,-2.3043,-2.2263,-2.1914,-2.2031,-2.1738,-2.1366,-2.1366,-2.1366,-2.1328,-2.1055,-2.1172,-2.1328,-2.1036,-2.0977,-2.0938,-2.0781,-2.1307,-2.1747,-2.1642,-2.2226,-2.2713,-2.2713,-2.2056,-2.1914,-2.2994,-2.3226,-2.3717,-2.4808,-2.4812,-2.5047,-2.5768,-2.5654,-2.5373,-2.4983,-2.4981,-2.4929,-2.4741,-2.4859,-2.5299,-2.6021,-2.5506,-2.5506,-2.6046,-2.5301,-2.4638,-2.4079,-2.3436,-2.2716,0.0,0.0,-2.6896,-2.588,-2.6202,-2.6484,-2.5366,-2.4504,-2.3589,-2.2408,-2.1921,-2.1178,-1.9321,-1.9539,-1.9808,-1.9131,-1.9459,-1.9811,-1.9811,-1.9811,-1.9811,-1.9811,-1.9811,-2.0062,0.0,-2.0691,-2.0691,-2.0717,-2.1219,-2.1493,-2.1518,-2.2493,-2.3095,-2.3095,-2.3095,-2.3095,-2.3095,-2.3095,-2.312,-2.3145,-2.3728,-2.3703,-2.3195,-2.4299,-2.5109,-2.5636,-2.6248,-2.6499,-2.6499,-2.6499,-2.6499,-2.6499,-2.6499,-2.6499,-2.6499,-2.6499,-2.6499,-2.6499,-2.6499,-2.6851,-2.7126,-2.6082,-2.5414,-2.4898,-2.4315,-2.3083,-2.1973,-2.2383,-2.2187,-2.1875,-2.1875,-2.1875,-2.1855,-2.1855,-2.1855,-2.1855,-2.1855,-2.1855,-2.1719,-2.1249,-2.1211,-2.1114,-2.0722,-2.0683,-2.0683,-2.0683,-2.0644,-2.1154,-2.2546,-2.3063,-2.3574,-2.4325,-2.5298,-2.6161,-2.6889,-2.6314,-2.5314,-2.3921,-2.3966,-2.3739,-2.3114,-2.3878,-2.4682,-2.5412,-2.5384,-2.5384,-2.5412,-2.4227,-2.3629,-2.3592,-2.2461,-2.1472,0.0,0.0,-2.5325,-2.5183,-2.5422,-2.5345,-2.4176,-2.3496,-2.2704,-2.1222,-2.088,-2.0431,-1.9155,-1.9427,-1.9688,-1.9107,-1.9434,-1.9811,-1.9811,-1.9811,-1.9811,-1.9811,-2.0464,0.0,0.0,0.0,0.0,-2.1219,-2.1421,-2.1644,-2.202,-2.2368,-2.2719,-2.3095,-2.3095,-2.3095,-2.3095,-2.3095,-2.3095,-2.312,-2.3728,-2.4079,-2.4249,-2.5008,-2.5435,-2.5636,-2.6248,-2.6499,-2.6499,-2.6499,-2.6499,-2.6499,-2.6499,-2.6499,-2.6499,-2.6499,-2.6725,-2.7027,-2.7027,-2.7369,-2.7726,-2.7021,-2.6433,-2.581,-2.4891,-2.3734,-2.2711,-2.2847,-2.2617,-2.2305,-2.2305,-2.2305,-2.2227,-2.1953,-2.209,-2.2227,-2.1953,-2.1894,-2.1836,-2.1699,-2.166,-2.1523,-2.1094,-2.1016,-2.0918,-2.0644,-2.1106,-2.1694,-2.2179,-2.2617,-2.3006,-2.3259,-2.3263,-2.3352,-2.3625,-2.3385,-2.3048,-2.2585,-2.2575,-2.2505,-2.2296,-2.2559,-2.3031,-2.3785,-2.3328,-2.3328,-2.3785,-2.2906,-2.2461,-2.2451,-2.1769,-2.1295,0.0,-2.4027,-2.4587,-2.4563,-2.4515,-2.4147,-2.296,-2.2435,-2.1838,-2.0593,-2.0268,-1.9961,-1.9102,-1.9451,-1.976,-1.9424,-1.9811,-2.0144,-2.0144,-1.994,-1.9811,-1.9811,-2.0641,0.0,0.0,0.0,0.0,-2.1744,-2.1794,-2.2034,-2.2674,-2.2618,-2.2892,-2.3488,-2.3245,-2.3095,-2.3095,-2.3095,-2.3221,-2.3421,-2.3828,-2.4381,-2.5109,-2.5435,-2.5711,-2.5912,-2.6323,-2.6499,-2.6499,-2.6499,-2.6499,-2.6499,-2.6499,-2.6499,-2.6499,-2.6499,-2.6725,-2.7052,-2.7218,-2.777,-2.8337,-2.7957,-2.7245,-2.6359,-2.563,-2.4339,-2.3101,-2.3101,-2.2906,-2.2691,-2.2691,-2.2691,-2.2676,-2.2402,-2.2539,-2.2656,-2.2383,-2.2344,-2.2285,-2.2129,-2.2109,-2.1973,-2.1543,-2.1288,-2.1093,-2.084,-2.1328,-2.1673,-2.151,-2.2083,-2.2455,-2.2455,-2.2479,-2.2457,-2.2457,-2.2457,-2.2249,-2.1756,-2.2002,-2.1948,-2.1481,-2.1737,-2.2127,-2.2602,-2.2161,-2.2127,-2.2602,-2.1939,-2.165,-2.1615,-2.0814,-2.0419,-2.3893,-2.4382,-2.4681,-2.4077,-2.3563,-2.2926,-2.1819,-2.1404,-2.1087,-2.0501,-2.012,-1.9729,0.0,0.0,-2.0049,-2.0072,-2.0499,-2.0845,-2.0795,-2.0245,-1.9837,0.0,0.0,0.0,0.0,0.0,0.0,-2.2405,0.0,-2.2665,-2.3351,-2.3207,-2.3454,-2.4192,-2.3514,-2.3095,-2.3095,-2.312,-2.3446,-2.4029,-2.4079,-2.4632,-2.5636,-2.5636,-2.5971,-2.6499,-2.6499,-2.6499,-2.6499,-2.6499,-2.6499,-2.6499,-2.6524,-2.6524,-2.6549,-2.6575,-2.66,-2.67,-2.7228,-2.8021,-2.8863,-2.8875,-2.7782,-2.6483,-2.6442,-2.4851,-2.3101,-2.3101,-2.3101,-2.3101,-2.3101,-2.3101,-2.3101,-2.3101,-2.3101,-2.3101,-2.3101,-2.3101,-2.2984,-2.2617,-2.2519,-2.2383,-2.1992,-2.1562,-2.1229,-2.1229,-2.1229,-2.1094,-2.0664,-2.1395,-2.1945,-2.1924,-2.2765,-2.3342,-2.3342,-2.3342,-2.2776,-2.1466,-2.215,-2.1969,-2.0651,-2.1406,-2.1803,-2.1803,-2.1803,-2.1803,-2.1825,-2.1373,-2.113,-2.1056,-1.9657,-1.8957,-2.3472,-2.3519,-2.3543,-2.3136,-2.2527,-2.187,-2.1292,-2.0864,-2.0501,-1.9963,-1.9832,-1.9947,0.0,0.0,0.0,-2.1182,-2.1363,0.0,-2.087,-2.0646,0.0,0.0,0.0,-2.0918,-2.1471,-2.1995,0.0,0.0,-2.3225,-2.2984,-2.3166,-2.314,-2.3185,-2.3395,-2.3215,-2.3095,-2.3095,-2.3547,-2.4054,-2.4575,-2.5008,-2.5561,-2.6273,-2.6273,-2.6348,-2.6499,-2.6499,-2.6499,-2.6499,-2.6499,-2.6499,-2.6524,-2.6952,-2.7102,-2.7118,-2.7544,-2.7946,-2.8323,-2.8448,-2.8423,-2.83,-2.8281,-2.7509,-2.6359,-2.5504,-2.4211,-2.3101,-2.3101,-2.3101,-2.3101,-2.3101,-2.3101,-2.3101,-2.3101,-2.3101,-2.3101,-2.3101,-2.3101,-2.3062,-2.2964,-2.2734,-2.248,-2.2363,-2.2012,-2.1719,-2.1719,-2.1719,-2.1445,-2.0703,-2.1076,-2.1273,-2.1012,-2.1203,-2.1336,-2.1336,-2.1336,-2.1181,-2.0813,-2.1022,-2.0982,-2.0615,-2.0823,-2.0936,-2.0936,-2.0936,-2.0936,-2.0936,-2.0829,-2.0333,-1.9539,-1.918,-1.8559,-2.3153,-2.3093,-2.3045,-2.2357,-2.1772,-2.1293,-2.1177,-2.1057,-2.0833,-2.028,-2.0667,0.0,0.0,0.0,0.0,0.0,0.0,0.0,-2.1738,-2.1153,-2.0547,0.0,-2.0339,0.0,-2.1119,-2.1845,-2.2597,0.0,-2.3238,-2.3395,-2.4076,-2.3484,-2.3245,-2.3632,-2.3275,-2.3095,-2.3095,-2.3703,-2.428,-2.48,-2.5335,-2.5946,-2.6499,-2.6499,-2.6499,-2.6499,0.0,-2.6499,-2.6499,-2.6499,-2.6499,-2.6549,-2.7102,-2.7293,-2.7344,-2.7896,-2.8298,-2.8562,-2.8813,-2.84,-2.78,-2.802,-2.7035,-2.563,-2.4999,-2.3996,-2.3101,-2.3101,-2.3101,-2.3101,-2.3101,-2.3101,-2.3101,-2.3101,-2.3101,-2.3101,-2.3101,-2.3101,-2.3101,-2.3101,-2.2906,-2.275,-2.275,-2.2441,-2.2168,-2.2168,-2.2168,-2.1914,-2.1271,-2.1191,-2.1055,-2.0644,-2.0605,-2.0605,-2.0605,-2.0605,-2.0605,-2.0605,-2.0605,-2.0605,-2.0605,-2.0605,-2.0605,-2.0605,-2.0605,-2.0372,-1.9883,-1.9883,-1.9313,-1.8238,-1.7779,-1.7212,-2.3021,-2.2947,-2.291,-2.1845,-2.1291,-2.1052,-2.1255,-2.1444,-2.1439,-2.1008,0.0,0.0,-2.0345,0.0,-2.3174,-2.2773,0.0,-2.3307,-2.2649,-2.1693,-2.0725,-1.9914,-2.0343,-2.0723,-2.0718,-2.1518,-2.215,-2.234,-2.2728,-2.3618,-2.5021,-2.3842,-2.3424,-2.4131,-2.3454,-2.3095,-2.3095,-2.3703,-2.428,-2.48,-2.5335,-2.5946,-2.6499,-2.6499,-2.6499,-2.6499,-2.6499,0.0,-2.6499,-2.6499,-2.6499,-2.6549,-2.7178,-2.7394,-2.7469,-2.8097,-2.8323,-2.8361,-2.8662,-2.81,-2.7254,-2.7742,-2.6479,-2.4787,-2.4617,-2.3887,-2.3101,-2.3101,-2.3101,-2.3101,-2.3101,-2.3101,-2.3101,-2.3101,-2.3101,-2.3101,-2.3101,-2.3101,-2.3101,-2.3101,-2.3101,-2.3101,-2.3101,-2.2789,-2.2598,-2.2598,-2.2598,-2.2441,-2.2031,-2.1582,-2.1152,-2.0742,-2.0644,-2.0605,-2.0605,-2.0605,-2.0605,-2.0605,-2.0605,-2.0605,-2.0605,-2.045,-2.0411,-2.0411,-2.0235,-1.9708,-1.8758,-1.8758,-1.8181,-1.705,-1.615,-1.5613,-2.3224,-2.296,-2.2604,-2.182,-2.1291,-2.1052,-2.1255,-2.1077,0.0,0.0,0.0,-2.1161,-2.1352,-2.134,0.0,-2.2468,0.0,0.0,0.0,0.0,-2.1649,0.0,0.0,0.0,0.0,0.0,0.0,0.0,0.0,-2.2766,-2.3458,-2.3245,-2.3155,-2.3305,-2.3155,-2.3095,-2.3095,-2.3703,-2.428,-2.48,-2.5335,-2.5946,-2.6499,-2.6499,-2.6499,-2.6499,-2.6499,0.0,-2.6499,-2.6499,-2.6499,-2.66,-2.757,-2.7971,-2.8097,-2.9126,-2.9503,-2.9388,-2.8557,-2.7566,-2.6635,-2.6726,-2.588,-2.4617,-2.3671,-2.3256,-2.3101,-2.3101,-2.3101,-2.3101,-2.3101,-2.3101,-2.3101,-2.3101,-2.3101,-2.3101,-2.3101,-2.3101,-2.3101,-2.3101,-2.3101,-2.3101,-2.3101,-2.3042,-2.2984,-2.2984,-2.2984,-2.2828,-2.2461,-2.2031,-2.1602,-2.1132,-2.0781,-2.0605,-2.0605,-2.0605,-2.0605,-2.0605,-2.0605,-2.0605,-2.0605,-1.9766,-1.9274,-1.9274,-1.8341,-1.7779,-1.7577,-1.7577,-1.705,-1.5985,-1.5779,-1.5213,-2.3081,-2.296,-2.2686,-2.1564,-2.1134,-2.1003,-2.0995,0.0,0.0,0.0,0.0,-2.1262,-2.1253,0.0,0.0,0.0,0.0,0.0,0.0,0.0,0.0,0.0,0.0,0.0,0.0,0.0,0.0,0.0,0.0,-2.2597,-2.3203,-2.3183,-2.3095,-2.3095,-2.3095,-2.3095,-2.3095,-2.3973,-2.4431,-2.4406,-2.5511,-2.6072,-2.6047,-2.6348,-2.6499,-2.6499,-2.6499,0.0,-2.6499,-2.6499,-2.6499,-2.66,-2.767,-2.8097,-2.8247,-2.9377,-2.9404,-2.8846,-2.8307,-2.7035,-2.563,-2.563,-2.483,-2.38,-2.3256,-2.3101,-2.3101,-2.3101,-2.3101,-2.3101,-2.3101,-2.3101,-2.3101,-2.3101,-2.3101,-2.3101,-2.3101,-2.3101,-2.3101,-2.3101,-2.3101,-2.3101,-2.3101,-2.3101,-2.3101,-2.3101,-2.3101,-2.3221,-2.3647,-2.3347,-2.2634,-2.1349,-2.1035,-2.082,-2.0625,-2.0605,-2.0605,-2.0605,-2.0605,-2.0372,-1.9805,-1.9274,-1.8718,-1.8141,-1.7577,-1.7009,-1.6478,-1.6478,-1.5993,-1.5092,-1.5092,-1.4808,-2.2908,-2.2898,-2.2784,-2.1547,-2.1198,-2.1159,-2.0944,-2.0897,0.0,0.0,0.0,-2.1366,-2.0886,0.0,0.0,0.0,0.0,0.0,0.0,0.0,0.0,0.0,0.0,0.0,0.0,0.0,0.0,0.0,0.0,0.0,-2.3313,-2.32,-2.3095,-2.3095,-2.3095,-2.3095,-2.3095,-2.3998,-2.4356,-2.418,-2.5519,-2.6021,-2.5787,-2.6273,-2.6499,-2.6499,-2.6499,0.0,0.0,-2.6499,-2.6499,-2.66,-2.7544,-2.7996,-2.8186,-2.8998,-2.8748,-2.8044,-2.7562,-2.6232,-2.4745,-2.451,-2.3844,-2.3101,-2.3101,-2.3101,-2.3101,-2.3101,-2.3101,-2.3101,-2.3101,-2.3101,-2.3101,-2.3101,-2.3101,-2.3101,-2.3101,-2.3101,-2.3101,-2.3101,-2.3101,-2.3101,-2.3101,-2.3101,-2.3101,-2.3101,-2.3101,-2.343,-2.4339,-2.4157,-2.3308,-2.1663,-2.1529,-2.1352,-2.0781,-2.0742,-2.0781,-2.0879,-2.0879,-2.0386,-1.925,-1.9008,-1.8307,-1.7081,-1.6835,-1.6268,-1.5379,-1.5396,-1.512,-1.4522,-1.4589,-1.4616,-2.2971,-2.2721,-2.2609,-2.2054,-2.1917,-2.1869,-2.1639,0.0,0.0,0.0,-2.126,-2.0886,-2.0813,-2.0898,0.0,0.0,0.0,0.0,0.0,0.0,0.0,0.0,0.0,0.0,0.0,0.0,0.0,0.0,0.0,0.0,-2.3089,-2.31,-2.3095,-2.3095,-2.3095,-2.3095,-2.3095,-2.3195,-2.3747,-2.4725,-2.4876,-2.546,-2.6424,-2.6474,-2.6499,-2.6499,-2.6499,0.0,0.0,-2.6499,-2.6499,-2.6549,-2.7118,-2.767,-2.8062,-2.7666,-2.7758,-2.7804,-2.5817,-2.4957,-2.4617,-2.3584,-2.3188,-2.3101,-2.3101,-2.3101,-2.3101,-2.3101,-2.3101,-2.3101,-2.3101,-2.3101,-2.3101,-2.3101,-2.3101,-2.3101,-2.3101,-2.3101,-2.3101,-2.3101,-2.3101,-2.3101,-2.3101,-2.3101,-2.3101,-2.3101,-2.3101,-2.3144,-2.3256,-2.3217,-2.2977,-2.2441,-2.2594,-2.2321,-2.1252,-2.1132,-2.1348,-2.1738,-2.1758,-2.1244,-1.9979,-1.8948,-1.7733,-1.6229,-1.5276,-1.4593,-1.425,-1.4478,-1.4583,-1.4522,-1.4803,-1.4968,-2.3089,-2.3019,-2.2811,-2.2166,-2.209,-2.1978,-2.128,0.0,0.0,-2.163,-2.088,-2.0512,-2.1699,-2.1321,-2.0791,0.0,0.0,0.0,0.0,0.0,0.0,0.0,0.0,0.0,0.0,0.0,0.0,0.0,0.0,0.0,-2.31,-2.3095,-2.3095,-2.3095,-2.3095,-2.3095,-2.3095,-2.3446,-2.3672,-2.3797,-2.4808,-2.536,-2.5485,-2.6197,-2.6499,-2.6499,-2.6499,0.0,0.0,-2.6499,-2.6499,-2.6549,-2.7102,-2.7072,-2.6773,-2.7167,-2.6632,-2.565,-2.5019,-2.4339,-2.3714,-2.3256,-2.3101,-2.3101,-2.3101,-2.3101,-2.3101,-2.3101,-2.3101,-2.3101,-2.3101,-2.3101,-2.3101,-2.3101,-2.3101,-2.3101,-2.3101,-2.3101,-2.3101,-2.3101,-2.3101,-2.3101,-2.3101,-2.3101,-2.3101,-2.3101,-2.3101,-2.3343,-2.4039,-2.4125,-2.3961,-2.3575,-2.3,-2.2369,-2.1681,-2.1621,-2.1699,-2.1875,-2.1894,-2.1358,-2.0153,-1.9008,-1.7825,-1.6575,-1.5381,-1.4723,-1.466,-1.4736,-1.487,-1.5044,-1.5164,-1.5217,-2.3148,-2.3248,-2.3009,-2.2315,-2.2369,-2.2252,0.0,0.0,-2.1008,-2.109,-2.0506,-2.0419,-2.1873,-2.1733,-2.1245,0.0,0.0,0.0,0.0,0.0,0.0,0.0,0.0,0.0,0.0,0.0,0.0,0.0,0.0,0.0,-2.3458,-2.3215,-2.3095,-2.3095,-2.3095,-2.3095,-2.3095,-2.3521,-2.3597,-2.3371,-2.4556,-2.5109,-2.5051,-2.5862,-2.6323,-2.6499,-2.6499,0.0,0.0,-2.6499,-2.6499,-2.649,-2.6586,-2.6274,-2.5849,-2.6039,-2.5307,-2.422,-2.4259,-2.3757,-2.3101,-2.3101,-2.3101,-2.3101,-2.3101,-2.3101,-2.3101,-2.3101,-2.3101,-2.3101,-2.3101,-2.3101,-2.3101,-2.3101,-2.3101,-2.3101,-2.3101,-2.3101,-2.3101,-2.3101,-2.3101,-2.3101,-2.3101,-2.3101,-2.3101,-2.3101,-2.3101,-2.3387,-2.4168,-2.4296,-2.4173,-2.3907,-2.3145,-2.2519,-2.2109,-2.207,-2.2129,-2.2246,-2.2246,-2.1721,-2.0558,-1.9722,-1.8715,-1.7479,-1.6269,-1.5614,-1.5517,-1.5269,-1.5204,-1.5404,-1.5484,-1.5524,-2.312,-2.3198,-2.3231,-2.2546,-2.2859,-2.2838,0.0,-2.1234,-2.1327,-1.9978,-2.0251,-2.0734,-2.0811,-2.1835,-2.2253,-2.1017,0.0,0.0,0.0,0.0,0.0,0.0,0.0,0.0,0.0,0.0,0.0,0.0,0.0,0.0,-2.4253,-2.3543,-2.3095,-2.3095,-2.3095,-2.3095,-2.3095,-2.312,-2.3396,-2.3979,-2.4004,-2.4582,-2.5586,-2.5586,-2.5946,0.0,0.0,0.0,0.0,-2.6499,-2.6499,-2.6396,-2.5406,-2.5361,-2.5617,-2.3963,-2.3717,-2.4096,-2.3358,-2.3101,-2.3101,-2.3101,-2.3101,-2.3101,-2.3101,-2.3101,-2.3101,-2.3101,-2.3101,-2.3101,-2.3101,-2.3101,-2.3101,-2.3101,-2.3101,-2.3101,-2.3101,-2.3101,-2.3101,-2.3101,-2.3101,-2.3101,-2.3101,-2.3101,-2.3101,-2.3101,-2.3101,-2.3101,-2.3144,-2.3144,-2.3144,-2.3081,-2.3081,-2.2925,-2.2539,-2.25,-2.2633,-2.3062,-2.3081,-2.2536,-2.1328,-2.1284,-2.0571,-1.9101,-1.7821,-1.7041,-1.6755,-1.5868,-1.5391,-1.5404,-1.5698,-1.5784,-2.3424,-2.3568,-2.3286,-2.3069,-2.3254,-2.3128,-2.1723,-2.1545,-2.1426,-2.0577,-2.0538,-2.1,-2.1942,-2.2422,-2.2871,-2.3376,-2.3939,0.0,0.0,0.0,0.0,0.0,0.0,0.0,0.0,0.0,0.0,0.0,0.0,0.0,-2.3488,-2.3245,-2.3095,-2.3095,-2.3095,-2.3095,-2.3095,-2.3095,-2.3195,-2.3371,-2.3803,-2.418,-2.4531,-2.5259,-2.5686,0.0,0.0,0.0,0.0,-2.6499,-2.6094,-2.5441,-2.5123,-2.4236,-2.3198,-2.2967,-2.2775,-2.2609,-2.2686,-2.2847,-2.3101,-2.3101,-2.3101,-2.3101,-2.3101,-2.3101,-2.3101,-2.3101,-2.3101,-2.3101,-2.3101,-2.3101,-2.3101,-2.3101,-2.3101,-2.3101,-2.3101,-2.3101,-2.3101,-2.3101,-2.3101,-2.3101,-2.3101,-2.3101,-2.3101,-2.3101,-2.3101,-2.3101,-2.3101,-2.3101,-2.3101,-2.3101,-2.3101,-2.3042,-2.2906,-2.2906,-2.2945,-2.3081,-2.3101,-2.2906,-2.2536,-2.1747,-2.1096,-2.0615,-1.8605,-1.7521,-1.7416,-1.6239,-1.5698,-1.5698,-1.5744,-1.5784,0.0,-2.365,-2.3376,-2.3119,-2.3164,-2.2939,-2.1641,-2.1327,-2.1126,-2.0468,-2.0509,-2.0976,-2.1784,-2.2159,-2.2614,-2.3421,-2.396,0.0,0.0,0.0,0.0,0.0,0.0,0.0,0.0,0.0,0.0,0.0,0.0,0.0,-2.2799,-2.2794,-2.2895,-2.3095,-2.3095,-2.3095,-2.3095,-2.3095,-2.3095,-2.312,-2.3471,-2.3778,-2.4029,-2.4682,-2.5209,0.0,0.0,0.0,0.0,-2.6499,-2.5921,-2.4981,-2.4564,-2.3452,-2.2004,-2.2117,-2.205,-2.1953,-2.2363,-2.275,-2.3101,-2.3101,-2.3101,-2.3101,-2.3101,-2.3101,-2.3101,-2.3101,-2.3101,-2.3101,-2.3101,-2.3101,-2.3101,-2.3101,-2.3101,-2.3101,-2.3101,-2.3101,-2.3101,-2.3101,-2.3101,-2.3101,-2.3101,-2.3101,-2.3101,-2.3101,-2.3101,-2.3101,-2.3101,-2.3101,-2.3101,-2.3101,-2.3101,-2.3101,-2.3101,-2.3101,-2.3101,-2.3101,-2.3101,-2.3101,-2.3101,-2.2403,-2.1987,-2.1987,-1.9588,-1.8365,-1.8365,-1.6655,-1.5784,-1.5784,-1.5784,-1.5784,0.0,-2.346,-2.3331,-2.2781,-2.2628,-2.2289,-2.0976,-2.0705,0.0,-1.9857,-2.0228,-2.0718,-2.0748,-2.1278,-2.1758,-2.1945,-2.2973,0.0,0.0,0.0,0.0,0.0,0.0,0.0,0.0,0.0,0.0,0.0,0.0,0.0,-2.2272,-2.2322,-2.2543,-2.3095,-2.3095,-2.3095,-2.3095,-2.3095,-2.3095,-2.3095,-2.3095,-2.3396,-2.3929,-2.3979,-2.4531,0.0,0.0,0.0,0.0,-2.6405,-2.5791,-2.4779,-2.3781,-2.2765,-2.1835,-2.1332,-2.1465,-2.1894,-2.2285,-2.2672,-2.3062,-2.3081,-2.3101,-2.3101,-2.3101,-2.3101,-2.3101,-2.3101,-2.3101,-2.3101,-2.3101,-2.3101,-2.3101,-2.3101,-2.3101,-2.3101,-2.3101,-2.3101,-2.3101,-2.3101,-2.3101,-2.3101,-2.3101,-2.3101,-2.3101,-2.3101,-2.3101,-2.3101,-2.3101,-2.3101,-2.3101,-2.3101,-2.3101,-2.3101,-2.3101,-2.3101,-2.3101,-2.3101,-2.3101,-2.3101,-2.3101,-2.3101,-2.3101,-2.3101,-2.0719,-1.9451,-1.936,-1.6983,-1.5784,-1.5784,-1.5784,-1.5784,-2.1874,0.0,-2.2123,-2.198,-2.1923,-2.1734,0.0,-2.0682,-2.0509,0.0,0.0,-2.0868,-2.1365,-2.1591,-2.2344,-2.4361,-2.4985,0.0,0.0,0.0,0.0,0.0,0.0,0.0,0.0,0.0,0.0,0.0,0.0,-2.132,-2.2272,-2.2322,-2.2543,-2.3095,-2.3095,-2.3095,-2.3095,-2.3095,-2.3095,-2.3095,-2.3095,-2.317,-2.3321,-2.3803,-2.413,0.0,0.0,0.0,-2.5803,-2.5481,-2.4743,-2.3745,-2.2728,-2.1773,-2.0915,-2.0801,-2.0996,-2.1366,-2.1463,-2.199,-2.2672,-2.2984,-2.3101,-2.3101,-2.3101,-2.3101,-2.3101,-2.3101,-2.3101,-2.3101,-2.3101,-2.3101,-2.3101,-2.3101,-2.3101,-2.3101,-2.3101,-2.3101,-2.3101,-2.3101,-2.3101,-2.3101,-2.3101,-2.3101,-2.3101,-2.3101,-2.3101,-2.3101,-2.3101,-2.3101,-2.3101,-2.3101,-2.3101,-2.3101,-2.3101,-2.3101,-2.3101,-2.3101,-2.3101,-2.3101,-2.3101,-2.3101,-2.3101,-2.3101,-2.0719,-1.9039,-1.8149,-1.6574,-1.5784,-1.5784,-1.5784,-1.5784,-2.0677,-2.1216,-2.1695,-2.1695,-2.1455,-2.1156,-2.0778,0.0,0.0,0.0,0.0,0.0,-2.1126,0.0,0.0,0.0,0.0,0.0,0.0,0.0,0.0,0.0,0.0,0.0,0.0,0.0,0.0,0.0,0.0,-2.0666,-2.1518,-2.1568,-2.192,-2.2694,-2.2719,-2.2844,-2.3095,-2.3095,-2.3095,-2.3095,-2.3095,-2.3095,-2.312,-2.3421,-2.3753,0.0,0.0,0.0,-2.4939,-2.4715,-2.3902,-2.2765,-2.2226,-2.1451,-2.0605,-2.0605,-2.084,-2.119,-2.119,-2.1756,-2.2559,-2.273,-2.2945,-2.3101,-2.3101,-2.3101,-2.3101,-2.3101,-2.3101,-2.3101,-2.3101,-2.3101,-2.3101,-2.3101,-2.3101,-2.3101,-2.3101,-2.3101,-2.3101,-2.3101,-2.3101,-2.3101,-2.3101,-2.3101,-2.3101,-2.3101,-2.3101,-2.3101,-2.3101,-2.3101,-2.3101,-2.3101,-2.3101,-2.3101,-2.3101,-2.3101,-2.3101,-2.3101,-2.3101,-2.3101,-2.3101,-2.3101,-2.2818,-2.2252,-2.0989,-1.9451,-1.7684,-1.6998,-1.6386,-1.5784,-1.5784,-1.5784,-1.9708,-2.0528,-2.1395,-2.1395,-2.0976,-2.0557,-2.0633,0.0,0.0,0.0,0.0,0.0,0.0,0.0,0.0,0.0,0.0,0.0,0.0,0.0,0.0,0.0,0.0,0.0,0.0,0.0,0.0,0.0,0.0,-2.0062,-2.0666,-2.0691,-2.1169,-2.2146,-2.2272,-2.2518,-2.297,-2.307,-2.3095,-2.3095,-2.3095,-2.3095,-2.3095,-2.3095,-2.3371,-2.3879,0.0,0.0,-2.4249,-2.4046,-2.3293,-2.2226,-2.1886,-2.1298,-2.0605,-2.0605,-2.0801,-2.1093,-2.1171,-2.1678,-2.2324,-2.2402,-2.2656,-2.2925,-2.2984,-2.3003,-2.3023,-2.3081,-2.3101,-2.3101,-2.3101,-2.3101,-2.3101,-2.3101,-2.3101,-2.3101,-2.3101,-2.3101,-2.3101,-2.3101,-2.3101,-2.3101,-2.3101,-2.3101,-2.3101,-2.3101,-2.3101,-2.3101,-2.3101,-2.3101,-2.3101,-2.3101,-2.3101,-2.3101,-2.3101,-2.3101,-2.3101,-2.3101,-2.3101,-2.3101,-2.3101,-2.3101,-2.2624,-2.1569,-2.1391,-2.0296,-1.8226,-1.787,-1.7124,-1.6103,-1.6103,-1.5974,-1.9708,-1.9857,-2.0007,-2.0007,-1.9947,-1.9948,0.0,0.0,0.0,0.0,0.0,0.0,0.0,0.0,0.0,0.0,0.0,0.0,0.0,0.0,0.0,0.0,0.0,0.0,0.0,0.0,0.0,0.0,0.0,0.0,-2.0666,-2.0691,-2.0993,-2.1594,-2.2071,-2.2347,-2.2418,-2.2869,-2.3095,-2.3095,-2.3095,-2.3095,-2.3095,-2.3095,-2.3145,-2.3271,0.0,-2.426,-2.4599,-2.3433,-2.3077,-2.3121,-2.1451,-2.0722,-2.0605,-2.0605,-2.0644,-2.0723,-2.1054,-2.1288,-2.1444,-2.1855,-2.2031,-2.2148,-2.25,-2.2617,-2.2633,-2.2984,-2.3101,-2.3101,-2.3101,-2.3101,-2.3101,-2.3101,-2.3101,-2.3101,-2.3101,-2.3101,-2.3101,-2.3101,-2.3101,-2.3101,-2.3101,-2.3101,-2.3101,-2.3101,-2.3101,-2.3101,-2.3101,-2.3101,-2.3101,-2.3101,-2.3101,-2.3101,-2.3101,-2.3101,-2.3101,-2.3101,-2.3101,-2.3101,-2.3101,-2.3101,-2.2994,-2.2818,-2.181,-2.1105,-2.0747,-1.8688,-1.7591,-1.7404,-1.7404,-1.681,-1.9708,-1.9708,-1.9708,-1.9708,-1.9856,-2.0072,0.0,0.0,0.0,0.0,0.0,0.0,0.0,0.0,0.0,0.0,0.0,0.0,0.0,0.0,0.0,0.0,0.0,0.0,0.0,0.0,0.0,0.0,0.0,0.0,-2.0214,-2.0188,-2.049,-2.1043,-2.132,-2.1568,-2.187,-2.2121,-2.2518,-2.3095,-2.3095,-2.3095,-2.3095,-2.3095,-2.3095,-2.312,0.0,-2.3242,-2.2789,-2.2162,-2.1759,-2.1495,-2.0576,-2.039,-2.0605,-2.0605,-2.0605,-2.0625,-2.0801,-2.1035,-2.1229,-2.1424,-2.1699,-2.1973,-2.2383,-2.2519,-2.2598,-2.2984,-2.3101,-2.3101,-2.3101,-2.3101,-2.3101,-2.3101,-2.3101,-2.3101,-2.3101,-2.3101,-2.3101,-2.3101,-2.3101,-2.3101,-2.3101,-2.3101,-2.3101,-2.3101,-2.3101,-2.3101,-2.3101,-2.3101,-2.3101,-2.3101,-2.3101,-2.3101,-2.3101,-2.3101,-2.3101,-2.3101,-2.3101,-2.3101,-2.3101,-2.3101,-2.3101,-2.3101,-2.2536,-2.1943,-2.1302,-2.0178,-1.9314,-1.8688,-1.8688,-1.8365,-1.9672,-1.9708,-1.9708,-1.9708,0.0,0.0,0.0,0.0,0.0,0.0,0.0,0.0,0.0,0.0,0.0,0.0,0.0,0.0,0.0,0.0,0.0,0.0,0.0,0.0,0.0,0.0,0.0,0.0,0.0,0.0,-1.9811,-1.9811,-2.0012,-2.0465,-2.0616,-2.0893,-2.132,-2.1446,-2.197,-2.292,-2.292,-2.297,-2.3095,-2.3095,-2.3095,-2.3065,-2.2884,-2.2351,-2.1506,-2.1074,-2.0646,-2.024,-1.9977,-2.0176,-2.0605,-2.0605,-2.0605,-2.0605,-2.0605,-2.0781,-2.1074,-2.1074,-2.1309,-2.168,-2.2207,-2.2363,-2.248,-2.2945,-2.3101,-2.3101,-2.3101,-2.3101,-2.3101,-2.3101,-2.3101,-2.3101,-2.3101,-2.3101,-2.3013,-2.2731,-2.2687,-2.2687,-2.2687,-2.2687,-2.2775,-2.3057,-2.3101,-2.3101,-2.3101,-2.3101,-2.3101,-2.3101,-2.3101,-2.3101,-2.3101,-2.3101,-2.3101,-2.3101,-2.3101,-2.3101,-2.3101,-2.3101,-2.3101,-2.3101,-2.3101,-2.2624,-2.1702,-2.1168,-2.0522,-1.9906,-1.936,-1.9222,-1.9551,-1.9708,-1.9708,-1.9708,0.0,0.0,0.0,0.0,0.0,0.0,0.0,0.0,0.0,0.0,0.0,0.0,0.0,0.0,0.0,0.0,0.0,0.0,0.0,0.0,0.0,0.0,0.0,0.0,0.0,0.0,-1.9811,-1.9811,-1.9811,-1.9861,-2.0415,-2.0717,-2.0742,-2.127,-2.1794,-2.2372,-2.2372,-2.2619,-2.3095,-2.3095,-2.3095,-2.3065,-2.231,-2.2218,-2.2445,-2.0706,-2.0526,-2.1219,-2.0277,-2.0176,-2.0605,-2.0605,-2.0605,-2.0605,-2.0605,-2.0625,-2.0644,-2.0644,-2.0664,-2.086,-2.168,-2.1934,-2.2109,-2.2867,-2.3101,-2.3101,-2.3101,-2.3101,-2.3101,-2.3101,-2.3101,-2.3101,-2.3101,-2.3101,-2.2775,-2.1658,-2.1454,-2.1427,-2.1436,-2.1436,-2.1791,-2.295,-2.3101,-2.3101,-2.3101,-2.3101,-2.3101,-2.3101,-2.3101,-2.3101,-2.3101,-2.3101,-2.3101,-2.3101,-2.3101,-2.3101,-2.3101,-2.3101,-2.3101,-2.3101,-2.3101,-2.3057,-2.295,-2.0719,-2.0161,-2.1105,-1.8856,-1.8411,-1.9136,-1.9442,-1.9708,-1.9708,0.0,0.0,0.0,0.0,0.0,0.0,0.0,0.0,0.0,0.0,0.0,0.0,0.0,0.0,0.0,0.0,0.0,0.0,0.0,0.0,0.0,0.0,0.0,0.0,0.0,0.0,0.0,-1.9811,-1.9811,-1.9811,-2.0012,-2.0137,-2.0137,-2.0338,-2.0715,-2.1292,-2.197,-2.2569,-2.3095,-2.3095,-2.2823,-2.2341,-2.2032,-2.1406,-2.0533,-1.9828,-1.9596,-1.9665,-1.9856,-2.0176,-2.0605,-2.0605,-2.0605,-2.0605,-2.0605,-2.0605,-2.0605,-2.0605,-2.0605,-2.0762,-2.1662,-2.1894,-2.207,-2.2847,-2.3101,-2.3101,-2.3101,-2.3101,-2.3101,-2.3101,-2.3101,-2.3101,-2.3101,-2.3101,-2.295,-2.2492,-2.181,-2.1543,-2.2315,-2.181,-2.1702,-2.2906,-2.3101,-2.3101,-2.3101,-2.3101,-2.3101,-2.3101,-2.3101,-2.3101,-2.3101,-2.3101,-2.3101,-2.3101,-2.3101,-2.3101,-2.3101,-2.3101,-2.3101,-2.3101,-2.3101,-2.3101,-2.3101,-2.1436,-2.0836,-2.1302,-2.0342,-1.977,-1.9062,-1.9314,-1.9479,0.0,0.0,0.0,0.0,0.0,0.0,0.0,0.0,0.0,0.0,0.0,0.0,0.0,0.0,0.0,0.0,0.0,0.0,0.0,0.0,0.0,0.0,0.0,0.0,0.0,0.0,0.0,0.0,-1.9811,-1.9811,-1.9811,-1.9811,-1.9811,-1.9811,-1.9811,-2.0087,-2.0691,-2.1418,-2.2027,-2.2461,-2.2725,-2.2347,-2.1502,-2.1502,-2.0655,-1.9276,-1.9011,-1.8791,-1.8695,-1.957,-2.0098,-2.041,-2.0546,-2.0605,-2.0605,-2.0605,-2.0605,-2.0605,-2.0605,-2.0605,-2.0762,-2.1662,-2.1894,-2.207,-2.2847,-2.3101,-2.3101,-2.3101,-2.3101,-2.2994,-2.2624,-2.2536,-2.2448,-2.205,-2.2271,-2.2315,-2.1543,-2.1033,-2.0854,-2.132,-2.1033,-2.1168,-2.2359,-2.2862,-2.3101,-2.3101,-2.3101,-2.3101,-2.3101,-2.3101,-2.3101,-2.3101,-2.3101,-2.3101,-2.3101,-2.2731,-2.2687,-2.3101,-2.3101,-2.3101,-2.3101,-2.3101,-2.3101,-2.3101,-2.148,-2.0944,-2.1284,-2.0116,-1.9526,-1.9406,-1.9314,0.0,0.0,0.0,0.0,0.0,0.0,0.0,0.0,0.0,0.0,0.0,0.0,0.0,0.0,0.0,0.0,0.0,0.0,0.0,0.0,0.0,0.0,0.0,0.0,0.0,0.0,0.0,0.0,0.0,-1.9811,-1.9811,-1.9811,-1.9811,-1.9811,-1.9811,-1.9811,-2.0087,-2.0691,-2.0691,-2.08,-2.1039,-2.1893,-2.1681,-2.059,-2.059,-2.0107,-1.9243,-1.8361,-1.8262,-1.8695,-1.957,-1.9902,-1.9961,-2.0449,-2.0605,-2.0605,-2.0605,-2.0605,-2.0605,-2.0605,-2.0605,-2.0762,-2.1602,-2.1875,-2.207,-2.2847,-2.3081,-2.3101,-2.3101,-2.3101,-2.2818,-2.1569,-2.1302,-2.0989,-1.977,-2.0432,-2.0567,-1.818,-1.8688,-1.9085,-1.7917,-1.8734,-1.9906,-2.1105,-2.2359,-2.3101,-2.3101,-2.3101,-2.3101,-2.3101,-2.3101,-2.3101,-2.3101,-2.3101,-2.3101,-2.3101,-2.1987,-2.1854,-2.3057,-2.3101,-2.3101,-2.3101,-2.3101,-2.3101,-2.3057,-2.0629,-2.007,-2.115,-1.7515,-1.7109,-1.9046,0.0,0.0,0.0,0.0,0.0,0.0,0.0,0.0,0.0,0.0,0.0,0.0,0.0,0.0,0.0,0.0,0.0,0.0,0.0,0.0,0.0,0.0,0.0,0.0,0.0,0.0,0.0,0.0,0.0,0.0,-1.9811,-1.9811,-1.9811,-1.9811,-1.9811,-1.9811,-1.9811,-1.9886,-2.0062,-2.0062,-2.0379,-2.0985,-2.0976,-2.051,-1.9661,-1.934,-1.8897,-1.8361,-1.811,-1.8262,-1.8656,-1.9258,-1.9648,-1.9961,-2.0449,-2.0605,-2.0605,-2.0605,-2.0605,-2.0605,-2.0605,-2.0605,-2.0703,-2.125,-2.1641,-2.1992,-2.2539,-2.2867,-2.3101,-2.3101,-2.3101,-2.2818,-2.1569,-2.1302,-2.0989,-1.977,-1.977,-1.9815,-1.9085,-1.8549,-1.8365,-1.8856,-1.9268,-1.9906,-2.1105,-2.2359,-2.3101,-2.3101,-2.3101,-2.3101,-2.3101,-2.3101,-2.3101,-2.3101,-2.3101,-2.3101,-2.3101,-2.1987,-2.1854,-2.3057,-2.2252,-2.1836,-2.1836,-2.1836,-2.1436,-2.0539,-1.901,-1.8411,-1.8734,-1.7638,-1.703,-1.9478,0.0,0.0,0.0,0.0,0.0,0.0,0.0,0.0,0.0,0.0,0.0,0.0,0.0,0.0,0.0,0.0,0.0,0.0,0.0,0.0,0.0,0.0,0.0,0.0,0.0,0.0,0.0,0.0,0.0,0.0,-1.9811,-1.9811,-1.9811,-1.9811,-1.9811,-1.9811,-1.9811,-1.9811,-1.9811,-1.9811,-1.9851,-1.993,-2.0055,-1.9509,-1.8545,-1.843,-1.8201,-1.8008,-1.8008,-1.813,-1.8403,-1.8867,-1.9277,-1.9727,-2.0156,-2.0449,-2.0605,-2.0605,-2.0605,-2.0605,-2.0605,-2.0605,-2.0683,-2.1054,-2.1543,-2.1973,-2.2402,-2.2769,-2.3101,-2.3101,-2.3101,-2.2687,-2.0989,-2.0567,-2.0116,-1.8395,-1.8442,-1.8626,-1.8118,-1.7855,-1.7777,-1.7979,-1.8856,-1.9588,-1.9844,-2.0899,-2.1676,-2.1676,-2.2094,-2.2403,-2.2403,-2.2818,-2.2906,-2.2448,-2.2818,-2.2687,-2.1721,-2.0989,-2.0899,-2.1632,-2.0989,-2.0567,-2.0567,-2.0567,-2.0223,-1.9497,-1.8272,-1.7684,-1.7684,-1.7185,-1.6527,0.0,0.0,0.0,0.0,0.0,0.0,0.0,0.0,0.0,0.0,0.0,0.0,0.0,0.0,0.0,0.0,0.0,0.0,0.0,0.0,0.0,0.0,0.0,0.0,0.0,0.0,0.0,0.0,0.0,0.0,0.0,-1.9736,-1.9761,-1.9811,-1.9811,-1.9811,-1.9811,-1.9811,-1.9811,-1.9811,-1.9811,-1.9245,-1.8248,-1.9062,-1.8659,-1.7344,-1.7773,-1.7969,-1.8008,-1.8008,-1.8008,-1.8047,-1.8442,-1.8906,-1.9336,-1.9766,-2.0195,-2.0605,-2.0605,-2.0605,-2.0605,-2.0605,-2.0605,-2.0683,-2.1055,-2.1504,-2.1973,-2.2344,-2.275,-2.3101,-2.3101,-2.3013,-2.2359,-2.0042,-1.9497,-1.8856,-1.6466,-1.681,-1.7185,-1.6021,-1.6716,-1.7185,-1.6021,-1.7762,-1.8993,-1.801,-1.8826,-1.9497,-1.9497,-2.0432,-2.115,-2.1302,-2.2164,-2.2359,-2.1391,-2.2208,-2.181,-1.9633,-1.9405,-1.936,-1.936,-1.936,-1.936,-1.936,-1.936,-1.9268,-1.9177,-1.8041,-1.7544,-1.7498,-1.6339,-1.5784,0.0,0.0,0.0,0.0,0.0,0.0,0.0,0.0,0.0,0.0,0.0,0.0,0.0,0.0,0.0,0.0,0.0,0.0,0.0,0.0,0.0,0.0,0.0,0.0,0.0,0.0,0.0,0.0,0.0,0.0,-1.9108,-1.9158,-1.9359,-1.9786,-1.9811,-1.9811,-1.9811,-1.9811,-1.9811,0.0,-1.9811,-1.9078,-1.7762,-1.7928,-1.7599,-1.6863,-1.7324,-1.7715,-1.8008,-1.8008,-1.8008,-1.8047,-1.8442,-1.8906,-1.9336,-1.9766,-2.0195,-2.0605,-2.0605,-2.0605,-2.0605,-2.0605,-2.0605,-2.0625,-2.0684,-2.129,-2.1894,-2.1992,-2.2559,-2.3101,-2.3101,-2.2403,-2.1302,-1.9861,-1.9497,-1.9085,-1.7591,-1.6716,-1.6103,-1.5832,-1.6021,-1.6103,-1.5832,-1.7077,-1.8319,-1.8993,-1.9314,-1.9497,-1.9497,-1.9724,-2.0251,-2.1194,-2.0674,-2.0539,-2.1239,-2.0674,-2.0042,-1.9542,-1.8596,-1.8102,-1.8102,-1.8102,-1.8102,-1.8102,-1.8102,-1.7576,-1.6608,-1.6339,-1.6197,-1.6197,-1.5927,-1.5784,0.0,0.0,0.0,0.0,0.0,0.0,0.0,0.0,0.0,0.0,0.0,0.0,0.0,0.0,0.0,0.0,0.0,0.0,0.0,0.0,0.0,0.0,0.0,0.0,0.0,0.0,0.0,0.0,0.0,-1.7877,-1.8933,-1.9008,-1.9233,-1.9786,-1.9811,-1.9811,-1.9811,-1.9449,-1.9293,-1.9267,-1.8927,-1.8178,-1.7073,-1.692,-1.6827,-1.6726,-1.7187,-1.7617,-1.8008,-1.8008,-1.8008,-1.8027,-1.8208,-1.8594,-1.9023,-1.9453,-1.9883,-2.0273,-2.0527,-2.0605,-2.0605,-2.0605,-2.0605,-2.0489,-2.0001,-2.0388,-2.1006,-2.1089,-2.1244,-2.1498,-2.2076,-2.1346,-2.0251,-1.9633,-1.9039,-1.8319,-1.7077,-1.6244,-1.5784,-1.5784,-1.5784,-1.5784,-1.5784,-1.6339,-1.7217,-1.8457,-1.8133,-1.7701,-1.7701,-1.8272,-1.8856,-1.9497,-1.9542,-1.9542,-1.9588,-1.9542,-1.8993,-1.7794,-1.7731,-1.7419,-1.681,-1.681,-1.681,-1.681,-1.681,-1.648,-1.5784,-1.5784,-1.5784,-1.5784,-1.5784,-1.5784,0.0,0.0,0.0,0.0,0.0,0.0,0.0,0.0,0.0,0.0,0.0,0.0,0.0,0.0,0.0,0.0,0.0,0.0,0.0,0.0,0.0,0.0,0.0,0.0,0.0,0.0,0.0,0.0,0.0,-1.7677,-1.8657,-1.8807,-1.9108,-1.966,-1.9761,-1.9811,-1.9811,-1.9059,-1.8688,-1.8688,-1.7825,-1.7079,-1.6503,-1.6138,-1.623,-1.6726,-1.7109,-1.7559,-1.8008,-1.8008,-1.8008,-1.8008,-1.8008,-1.8227,-1.8656,-1.9121,-1.9551,-1.998,-2.0449,-2.0605,-2.0605,-2.0605,-2.0605,-2.045,-1.9569,-1.962,-2.0027,-2.0111,-1.9843,-1.9724,-2.0747,-2.007,-1.9177,-1.9177,-1.8272,-1.7124,-1.6292,-1.5974,-1.5784,-1.5784,-1.5784,-1.5784,-1.5784,-1.5784,-1.615,-1.7217,-1.648,-1.5784,-1.5784,-1.6716,-1.7451,-1.7684,-1.8411,-1.8534,-1.7777,-1.8411,-1.7979,-1.5913,-1.681,-1.6904,-1.5832,-1.5784,-1.5784,-1.5784,-1.5784,-1.5784,-1.5784,-1.5784,-1.5784,-1.5784,-1.5784,-1.5784,0.0,0.0,0.0,0.0,0.0,0.0,0.0,0.0,0.0,0.0,0.0,0.0,0.0,0.0,0.0,0.0,0.0,0.0,0.0,0.0,0.0,0.0,0.0,0.0,0.0,0.0,0.0,0.0,-1.66,-1.6923,-1.7576,-1.8053,-1.8531,-1.9083,-1.956,-1.9811,-1.9811,-1.9059,-1.8688,-1.8688,-1.7302,-1.6595,-1.6482,-1.5818,-1.5907,-1.6707,-1.6765,-1.7233,-1.8008,-1.8008,-1.8008,-1.8008,-1.8008,-1.8227,-1.8656,-1.9121,-1.9551,-1.998,-2.0449,-2.0605,-2.0605,-2.0605,-2.0605,-2.0566,-2.045,-2.0208,-1.9985,-2.0027,-1.9773,-1.9542,-1.9724,-1.881,-1.7963,-1.7963,-1.6983,-1.6292,-1.7217,-1.6574,-1.5784,-1.5784,-1.5784,-1.5784,-1.5784,-1.5784,-1.5879,-1.6008,-1.5927,-1.5784,-1.5784,-1.5974,-1.648,-1.7591,-1.6842,-1.6669,-1.7638,-1.6842,-1.615,-1.5832,-1.5974,-1.5974,-1.5832,-1.5784,-1.5784,-1.5784,-1.5784,-1.5784,-1.5784,-1.5784,-1.5784,-1.5784,-1.5784,-1.5784,0.0,0.0,0.0,0.0,0.0,0.0,0.0,0.0,0.0,0.0,0.0,0.0,0.0,0.0,0.0,0.0,0.0,0.0,0.0,0.0,0.0,0.0,0.0,0.0,0.0,0.0,0.0,0.0,-1.65,-1.6876,-1.7802,-1.7777,-1.8279,-1.9409,-1.9409,-1.951,-1.9811,-1.8661,-1.7665,-1.6834,-1.6197,-1.5882,-1.5874,-1.5812,-1.6133,-1.6707,-1.6707,-1.7194,-1.8008,-1.8008,-1.8008,-1.8008,-1.8008,-1.8125,-1.834,-1.8769,-1.9199,-1.9629,-2.0059,-2.039,-2.0605,-2.0605,-2.0605,-2.0489,-1.9883,-1.9273,-1.8794,-1.9042,-1.8169,-1.7384,-1.8272,-1.7591,-1.6622,-1.6622,-1.6197,-1.5974,-1.6527,-1.6197,-1.5784,-1.5784,-1.5784,-1.5784,-1.5784,-1.5784,-1.5784,-1.5784,-1.5784,-1.5784,-1.5784,-1.5784,-1.6008,-1.6574,-1.6103,-1.6008,-1.6574,-1.6103,-1.5784,-1.5784,-1.5784,-1.5784,-1.5784,-1.5784,-1.5784,-1.5784,-1.5784,-1.5784,-1.5784,-1.5784,-1.5784,-1.5784,-1.5784,-1.5784,0.0,0.0,0.0,0.0,0.0,0.0,0.0,0.0,0.0,0.0,0.0,0.0,0.0,0.0,0.0,0.0,0.0,0.0,0.0,0.0,0.0,0.0,0.0,0.0,0.0,0.0,0.0,0.0,-1.65,-1.686,-1.767,-1.7472,-1.7846,-1.8996,-1.8775,-1.885,-1.9216,-1.7961,-1.6659,-1.541,-1.541,-1.541,-1.543,-1.5742,-1.6211,-1.6707,-1.6824,-1.7291,-1.8008,-1.8008,-1.8008,-1.8008,-1.8008,-1.8008,-1.8066,-1.8442,-1.8906,-1.9355,-1.9766,-2.0195,-2.0605,-2.0605,-2.0605,-2.045,-1.9648,-1.8661,-1.7877,-1.8222,-1.6922,-1.5689,-1.6911,-1.6527,-1.5784,-1.5784,-1.5784,-1.5784,-1.5784,-1.5784,-1.5784,-1.5784,-1.5784,-1.5784,-1.5784,-1.5784,-1.5784,-1.5784,-1.5784,-1.5784,-1.5784,-1.5784,-1.5784,-1.5784,-1.5784,-1.5784,-1.5784,-1.5784,-1.5784,-1.5784,-1.5784,-1.5784,-1.5784,-1.5784,-1.5784,-1.5784,-1.5784,-1.5784,-1.5784,-1.5784,-1.5784,-1.5784,-1.5784,-1.5784,0.0,0.0,0.0,0.0,0.0,0.0,0.0,0.0,0.0,0.0,0.0,0.0,0.0,0.0,0.0,0.0,0.0,0.0,0.0,0.0,0.0,0.0,0.0,0.0,0.0,0.0,0.0,0.0,-1.65,-1.6465,-1.6385,-1.686,-1.7085,-1.6969,-1.7418,-1.7693,-1.7715,-1.6961,-1.6169,-1.541,-1.541,-1.541,-1.541,-1.543,-1.5888,-1.6726,-1.7168,-1.7598,-1.8008,-1.8008,-1.8008,-1.8008,-1.8008,-1.8008,-1.8066,-1.8442,-1.8906,-1.9355,-1.9766,-2.0195,-2.0605,-2.0605,-2.0605,-2.0605,-2.0527,-1.9227,-1.7877,-1.8153,-1.6833,-1.5458,-1.5799,-1.5832,-1.5784,-1.5784,-1.5784,-1.5784,-1.5784,-1.5784,-1.5784,-1.5784,-1.5784,-1.5784,-1.5784,-1.5784,-1.5784,-1.5784,-1.5784,-1.5784,-1.5784,-1.5784,-1.5784,-1.5784,-1.5784,-1.5784,-1.5784,-1.5784,-1.5784,-1.5784,-1.5784,-1.5784,-1.5784,-1.5784,-1.5784,-1.5784,-1.5784,-1.5784,-1.5784,-1.5784,-1.5784,-1.5784,-1.5784,-1.5784,0.0,0.0,0.0,0.0,0.0,0.0,0.0,0.0,0.0,0.0,0.0,0.0,0.0,0.0,0.0,0.0,0.0,0.0,0.0,0.0,0.0,0.0,0.0,0.0,0.0,0.0,0.0,0.0,0.0,-1.5591,-1.6205,-1.6067,-1.6264,-1.6897,-1.702,-1.7021,-1.6905,-1.6624,-1.6132,-1.541,-1.541,-1.541,-1.543,-1.5703,-1.6026,-1.6378,-1.707,-1.7617,-1.8008,-1.8008,-1.8008,-1.8008,-1.8008,-1.8008,-1.8027,-1.8149,-1.8691,-1.9316,-1.9453,-1.998,-2.0605,-2.0605,-2.0605,-2.0605,-2.0605,-1.9127,-1.7581,-1.8087,-1.6728,-1.5231,-1.5712,-1.5784,-1.5784,-1.5784,-1.5784,-1.5784,-1.5784,-1.5784,-1.5784,-1.5784,-1.5784,-1.5784,-1.5784,-1.5784,-1.5784,-1.5784,-1.5784,-1.5784,-1.5784,-1.5784,-1.5784,-1.5784,-1.5784,-1.5784,-1.5784,-1.5784,-1.5784,-1.5784,-1.5784,-1.5784,-1.5784,-1.5784,-1.5784,-1.5784,-1.5784,-1.5784,-1.5784,-1.5784,-1.5784,-1.5784,-1.5784,-1.5784,0.0,0.0,0.0,0.0,0.0,0.0,0.0,0.0,0.0,0.0,0.0,0.0,0.0,0.0,0.0,0.0,0.0,0.0,0.0,0.0,0.0,0.0,0.0,0.0,0.0,0.0,0.0,0.0,0.0,0.0,-1.5778,-1.5312,-1.5387,-1.6208,-1.617,-1.6111,-1.614,-1.6112,-1.5882,-1.541,-1.541,-1.541,-1.543,-1.5703,-1.5948,-1.6124,-1.6836,-1.7402,-1.7812,-1.7949,-1.8008,-1.8008,-1.8008,-1.8008,-1.8008,-1.8008,-1.8555,-1.9297,-1.9297,-1.9881,-2.0605,-2.0605,-2.0605,-2.0605,-2.0605,-1.9076,-1.7417,-1.8038,-1.6654,-1.5142,-1.5671,-1.5784,-1.5784,-1.5784,-1.5784,-1.5784,-1.5784,-1.5784,-1.5784,-1.5784,-1.5784,-1.5784,-1.5784,-1.5784,-1.5784,-1.5784,-1.5784,-1.5784,-1.5784,-1.5784,-1.5784,-1.5784,-1.5784,-1.5784,-1.5784,-1.5784,-1.5784,-1.5784,-1.5784,-1.5784,-1.5784,-1.5784,-1.5784,-1.5784,-1.5784,-1.5784,-1.5784,-1.5784,-1.5784,-1.5784,-1.5784,-1.5784,0.0,0.0,0.0,0.0,0.0,0.0,0.0,0.0,0.0,0.0,0.0,0.0,0.0,0.0,0.0,0.0,0.0,0.0,0.0,0.0,0.0,0.0,0.0,0.0,0.0,0.0,0.0,0.0,-1.4651,-1.4788,-1.5076,-1.4654,-1.4537,-1.4793,-1.4793,-1.4961,-1.5371,-1.5391,-1.5391,-1.5391,-1.5381,-1.541,-1.541,-1.541,-1.5644,-1.6105,-1.6523,-1.6953,-1.7402,-1.7832,-1.8008,-1.8008,-1.8008,-1.8008,-1.8008,-1.8008,-1.8535,-1.9277,-1.9277,-1.9881,-2.0586,-2.0605,-2.0605,-2.0605,-2.0566,-1.9036,-1.7417,-1.8038,-1.6698,-1.5187,-1.5718,-1.5832,-1.5784,-1.5784,-1.5784,-1.5784,-1.5784,-1.5784,-1.5784,-1.5784,-1.5784,-1.5784,-1.5784,-1.5784,-1.5784,-1.5784,-1.5784,-1.5784,-1.5784,-1.5784,-1.5784,-1.5784,-1.5784,-1.5784,-1.5784,-1.5784,-1.5784,-1.5784,-1.5784,-1.5784,-1.5784,-1.5784,-1.5784,-1.5784,-1.5784,-1.5784,-1.5784,-1.5784,-1.5784,-1.5784,-1.5784,-1.5832,-1.65,0.0,0.0,0.0,0.0,0.0,0.0,0.0,0.0,0.0,0.0,0.0,0.0,0.0,0.0,0.0,0.0,0.0,0.0,0.0,0.0,0.0,0.0,0.0,0.0,0.0,0.0,0.0,-1.3825,-1.4154,-1.4852,-1.4745,-1.4723,-1.4813,-1.4473,-1.4348,-1.4465,-1.4805,-1.4961,-1.4961,-1.5273,-1.541,-1.541,-1.541,-1.5469,-1.5625,-1.6055,-1.6504,-1.6941,-1.7681,-1.8008,-1.8008,-1.8008,-1.8008,-1.8008,-1.8008,-1.8359,-1.8831,-1.918,-1.9648,-2.0137,-2.0507,-2.0605,-2.045,-1.9687,-1.8439,-1.7458,-1.8124,-1.7383,-1.6447,-1.7011,-1.648,-1.5784,-1.5784,-1.5784,-1.5784,-1.5784,-1.5784,-1.5784,-1.5784,-1.5784,-1.5784,-1.5784,-1.5784,-1.5784,-1.5784,-1.5784,-1.5784,-1.5784,-1.5784,-1.5784,-1.5784,-1.5784,-1.5784,-1.5784,-1.5784,-1.5784,-1.5784,-1.5784,-1.5784,-1.5784,-1.5784,-1.5784,-1.5784,-1.5784,-1.5784,-1.5784,-1.5784,-1.5784,-1.5784,-1.5784,-1.6292,0.0,0.0,0.0,0.0,0.0,0.0,0.0,0.0,0.0,0.0,0.0,0.0,0.0,0.0,0.0,0.0,0.0,0.0,0.0,0.0,0.0,0.0,0.0,0.0,0.0,-1.4569,-1.4183,-1.3776,-1.3743,-1.3958,-1.4492,-1.4687,-1.4707,-1.4512,-1.4434,-1.4387,-1.4387,-1.4668,-1.4863,-1.5039,-1.5117,-1.5234,-1.541,-1.541,-1.541,-1.543,-1.5909,-1.6328,-1.6746,-1.7461,-1.7852,-1.8008,-1.8008,-1.8008,-1.8008,-1.8008,-1.8247,-1.8676,-1.9141,-1.9551,-1.998,-2.0468,-2.0274,-1.9805,-1.9195,-1.79,-1.6835,-1.7858,-1.7541,-1.6877,-1.6901,-1.6339,-1.5784,-1.5784,-1.5784,-1.5784,-1.5784,-1.5784,-1.5784,-1.5784,-1.5784,-1.5784,-1.5784,-1.5784,-1.5784,-1.5784,-1.5784,-1.5784,-1.5784,-1.5784,-1.5784,-1.5784,-1.5784,-1.5784,-1.5784,-1.5784,-1.5784,-1.5784,-1.5784,-1.5784,-1.5784,-1.5784,-1.5784,-1.5784,-1.5784,-1.5784,-1.5784,-1.5784,-1.6055,-1.6622,-1.7124,-1.7762,0.0,0.0,0.0,0.0,0.0,0.0,-1.8505,-1.8431,0.0,0.0,0.0,0.0,0.0,0.0,0.0,0.0,0.0,0.0,0.0,0.0,0.0,0.0,0.0,0.0,0.0,-1.5101,-1.4771,-1.4226,-1.4231,-1.425,-1.425,-1.4648,-1.4648,-1.4192,-1.4531,-1.4687,-1.4648,-1.4687,-1.4902,-1.5245,-1.498,-1.5059,-1.541,-1.541,-1.541,-1.543,-1.5909,-1.6328,-1.6746,-1.7207,-1.7637,-1.8008,-1.8008,-1.8008,-1.8008,-1.8008,-1.8242,-1.8598,-1.9121,-1.9531,-1.9884,-2.0294,-1.9766,-1.8957,-1.8718,-1.7253,-1.5978,-1.7327,-1.737,-1.693,-1.6223,-1.5927,-1.5784,-1.5784,-1.5784,-1.5784,-1.5784,-1.5784,-1.5784,-1.5784,-1.5784,-1.5784,-1.5784,-1.5784,-1.5784,-1.5784,-1.5784,-1.5784,-1.5784,-1.5784,-1.5784,-1.5784,-1.5784,-1.5784,-1.5784,-1.5784,-1.5784,-1.5784,-1.5784,-1.5784,-1.5784,-1.5784,-1.5784,-1.5784,-1.5784,-1.5784,-1.5784,-1.5927,-1.6669,-1.7917,-1.8993,-1.9588,-1.7167,-1.755,0.0,0.0,0.0,0.0,0.0,-1.7626,0.0,0.0,0.0,0.0,0.0,0.0,0.0,0.0,0.0,0.0,0.0,0.0,0.0,0.0,0.0,0.0,0.0,-1.4637,-1.4412,-1.4629,-1.498,-1.5156,-1.5156,-1.5234,-1.5098,-1.4668,-1.4394,-1.4075,-1.3769,-1.4055,-1.427,-1.4367,-1.5,-1.5332,-1.541,-1.541,-1.541,-1.543,-1.5909,-1.6328,-1.6746,-1.7207,-1.7637,-1.8008,-1.8008,-1.8008,-1.8008,-1.8008,-1.8066,-1.8242,-1.9023,-1.9336,-1.942,-1.9327,-1.9155,-1.8678,-1.6887,-1.6026,-1.5857,-1.6759,-1.7296,-1.7517,-1.739,-1.6574,-1.5784,-1.5784,-1.5784,-1.5784,-1.5784,-1.5784,-1.5784,-1.5784,-1.5784,-1.5784,-1.5784,-1.5784,-1.5784,-1.5784,-1.5784,-1.5784,-1.5784,-1.5784,-1.5784,-1.5784,-1.5784,-1.5784,-1.5784,-1.5784,-1.5784,-1.5784,-1.5784,-1.5784,-1.5784,-1.5784,-1.5784,-1.5784,-1.5784,-1.5784,-1.5784,-1.681,-1.7948,-1.9131,-1.9405,-2.0025,-1.7855,-1.7929,0.0,-1.7824,0.0,0.0,0.0,0.0,0.0,0.0,0.0,0.0,0.0,0.0,0.0,0.0,0.0,0.0,0.0,0.0,0.0,0.0,0.0,0.0,0.0,-1.5007,-1.4863,-1.5078,-1.5293,-1.541,-1.541,-1.5215,-1.5,-1.4813,-1.457,-1.4258,-1.3802,-1.3997,-1.4211,-1.4453,-1.464,-1.4972,-1.541,-1.541,-1.541,-1.543,-1.5644,-1.5996,-1.6426,-1.6875,-1.7305,-1.7715,-1.793,-1.8008,-1.8008,-1.8008,-1.8008,-1.8105,-1.875,-1.9102,-1.9248,-1.8779,-1.8439,-1.7859,-1.6191,-1.5696,-1.5705,-1.5863,-1.649,-1.7084,-1.6818,-1.6292,-1.5784,-1.5784,-1.5784,-1.5784,-1.5784,-1.5784,-1.5784,-1.5784,-1.5784,-1.5784,-1.5784,-1.5784,-1.5784,-1.5784,-1.5784,-1.5784,-1.5784,-1.5784,-1.5784,-1.5784,-1.5784,-1.5784,-1.5784,-1.5784,-1.5784,-1.5784,-1.5784,-1.5784,-1.5784,-1.5784,-1.5784,-1.5784,-1.5784,-1.5784,-1.5784,-1.7091,-1.8319,-1.9497,-2.0116,-2.1033,0.0,0.0,0.0,0.0,0.0,-1.7843,0.0,0.0,0.0,0.0,0.0,0.0,0.0,0.0,0.0,0.0,0.0,0.0,0.0,0.0,0.0,0.0,0.0,0.0,0.0,-1.545,-1.5332,-1.5381,-1.5332,-1.5332,-1.541,-1.5098,-1.4902,-1.4902,-1.4852,-1.457,-1.4114,-1.4114,-1.4289,-1.4648,-1.4367,-1.464,-1.541,-1.541,-1.541,-1.541,-1.5508,-1.5742,-1.6124,-1.6512,-1.6992,-1.7422,-1.7852,-1.8008,-1.8008,-1.8008,-1.8008,-1.8066,-1.8461,-1.8926,-1.9209,-1.8502,-1.7711,-1.6805,-1.5711,-1.5423,-1.5388,-1.5069,-1.5648,-1.6296,-1.592,-1.5784,-1.5784,-1.5784,-1.5784,-1.5784,-1.5784,-1.5784,-1.5784,-1.5784,-1.5784,-1.5784,-1.5784,-1.5784,-1.5784,-1.5784,-1.5784,-1.5784,-1.5784,-1.5784,-1.5784,-1.5784,-1.5784,-1.5784,-1.5784,-1.5784,-1.5784,-1.5784,-1.5784,-1.5784,-1.5784,-1.5784,-1.5784,-1.5784,-1.5784,-1.5784,-1.5784,-1.681,-1.8087,-1.9542,-2.0747,-2.1943,0.0,0.0,0.0,0.0,-1.9263,0.0,0.0,0.0,0.0,0.0,0.0,0.0,0.0,0.0,0.0,0.0,0.0,0.0,0.0,0.0,0.0,0.0,0.0,0.0,0.0,0.0,-1.5019,-1.5391,-1.5059,-1.5019,-1.5391,-1.5371,-1.5352,-1.5352,-1.498,-1.457,-1.4114,-1.4114,-1.4133,-1.4192,-1.4551,-1.4961,-1.541,-1.541,-1.541,-1.543,-1.585,-1.6046,-1.6124,-1.6512,-1.6992,-1.7422,-1.7852,-1.8008,-1.8008,-1.8008,-1.8008,-1.8066,-1.8461,-1.8926,-1.9209,-1.8502,-1.7196,-1.5655,-1.4615,-1.4426,-1.471,-1.4914,-1.5287,-1.5602,-1.5738,-1.5784,-1.5784,-1.5784,-1.5784,-1.5784,-1.5784,-1.5784,-1.5784,-1.5784,-1.5784,-1.5784,-1.5784,-1.5784,-1.5784,-1.5784,-1.5784,-1.5784,-1.5784,-1.5784,-1.5784,-1.5784,-1.5784,-1.5784,-1.5784,-1.5784,-1.5784,-1.5784,-1.5784,-1.5784,-1.5784,-1.5784,-1.5784,-1.5784,-1.5784,-1.5784,-1.5784,-1.5974,-1.7203,-1.9542,-2.0747,-2.1943,0.0,0.0,0.0,0.0,0.0,0.0,-1.77,0.0,-1.6823,0.0,0.0,0.0,0.0,0.0,0.0,0.0,0.0,0.0,0.0,0.0,0.0,0.0,0.0,0.0,0.0,0.0,0.0,0.0,0.0,-1.4961,-1.5391,-1.5176,-1.5156,-1.5381,-1.5,-1.4763,-1.4698,-1.4698,-1.4888,-1.5309,-1.5094,-1.5355,-1.6026,-1.5613,-1.541,-1.543,-1.5605,-1.5684,-1.5723,-1.6172,-1.6476,-1.6711,-1.7383,-1.7793,-1.8008,-1.8008,-1.8008,-1.8027,-1.8169,-1.852,-1.8843,-1.8429,-1.7116,-1.5613,-1.5171,-1.4656,-1.4362,-1.4874,-1.5102,-1.5257,-1.5712,-1.5784,-1.5784,-1.5784,-1.5784,-1.5784,-1.5784,-1.5784,-1.5784,-1.5784,-1.5784,-1.5784,-1.5784,-1.5784,-1.5784,-1.5784,-1.5784,-1.5784,-1.5784,-1.5784,-1.5784,-1.5784,-1.5784,-1.5784,-1.5784,-1.5784,-1.5784,-1.5784,-1.5784,-1.5784,-1.5784,-1.5784,-1.5784,-1.5784,-1.5784,-1.5784,-1.5784,-1.5784,-1.6702,-1.8503,-1.9679,-2.0775,-2.0318,0.0,0.0,0.0,0.0,0.0,0.0,0.0,0.0,0.0,0.0,0.0,0.0,0.0,0.0,0.0,0.0,0.0,0.0,0.0,0.0,0.0,0.0,0.0,0.0,0.0,0.0,0.0,0.0,-1.4844,-1.5391,-1.5117,-1.5183,-1.568,-1.543,-1.5362,-1.5599,-1.5472,-1.5756,-1.6404,-1.573,-1.5791,-1.6482,-1.596,-1.5584,-1.541,-1.541,-1.541,-1.543,-1.5791,-1.5987,-1.6163,-1.6914,-1.7461,-1.7852,-1.7969,-1.8008,-1.8008,-1.8008,-1.8359,-1.8766,-1.8577,-1.7638,-1.6478,-1.5861,-1.5171,-1.4613,-1.4923,-1.5008,-1.5142,-1.5671,-1.5784,-1.5784,-1.5784,-1.5784,-1.5784,-1.5784,-1.5784,-1.5784,-1.5784,-1.5784,-1.5784,-1.5784,-1.5784,-1.5784,-1.5784,-1.5784,-1.5784,-1.5784,-1.5784,-1.5784,-1.5784,-1.5784,-1.5784,-1.5784,-1.5784,-1.5784,-1.5784,-1.5784,-1.5784,-1.5784,-1.5784,-1.5784,-1.5784,-1.5784,-1.5784,-1.5784,-1.5784,-1.6292,-1.7217,-1.8669,-1.9826,0.0,0.0,0.0,-1.9055,0.0,0.0,0.0,0.0,-1.65,0.0,0.0,0.0,0.0,0.0,0.0,0.0,0.0,0.0,0.0,0.0,0.0,0.0,0.0,0.0,0.0,0.0,0.0,0.0,0.0,0.0,-1.5371,-1.5391,-1.5709,-1.6425,-1.6454,-1.6592,-1.692,-1.6423,-1.6449,-1.6972,-1.6401,-1.6273,-1.6482,-1.6482,-1.6083,-1.541,-1.541,-1.541,-1.541,-1.543,-1.5684,-1.6144,-1.6562,-1.7031,-1.7494,-1.7871,-1.8008,-1.8008,-1.8008,-1.8555,-1.9248,-1.9038,-1.8939,-1.8501,-1.6355,-1.5696,-1.5553,-1.5144,-1.5008,-1.5142,-1.5671,-1.5784,-1.5784,-1.5784,-1.5784,-1.5784,-1.5784,-1.5784,-1.5784,-1.5784,-1.5784,-1.5784,-1.5784,-1.5784,-1.5784,-1.5784,-1.5784,-1.5784,-1.5784,-1.5784,-1.5784,-1.5784,-1.5784,-1.5784,-1.5784,-1.5784,-1.5784,-1.5784,-1.5784,-1.5784,-1.5784,-1.5784,-1.5784,-1.5784,-1.5784,-1.5784,-1.5784,-1.5784,-1.5832,-1.5913,-1.7978,-1.9543,0.0,0.0,-2.0217,-1.8776,0.0,0.0,0.0,0.0,0.0,0.0,0.0,0.0,0.0,0.0,0.0,0.0,0.0,0.0,0.0,0.0,0.0,0.0,0.0,0.0,0.0,0.0,0.0,0.0,0.0,0.0,0.0,-1.6856,-1.6968,-1.7219,-1.7219,-1.7355,-1.7594,-1.7408,-1.7661,-1.8308,-1.7151,-1.7085,-1.7907,-1.6433,-1.5902,-1.6083,-1.5613,-1.541,-1.541,-1.541,-1.5508,-1.5703,-1.6414,-1.6785,-1.6999,-1.7754,-1.8008,-1.8008,-1.8008,-1.8574,-1.9299,-1.92,-1.9122,-1.8877,-1.8101,-1.6887,-1.5747,-1.598,-1.5562,-1.5142,-1.5671,-1.5784,-1.5784,-1.5784,-1.5784,-1.5784,-1.5784,-1.5784,-1.5784,-1.5784,-1.5784,-1.5784,-1.5784,-1.5784,-1.5784,-1.5784,-1.5784,-1.5784,-1.5784,-1.5784,-1.5784,-1.5784,-1.5784,-1.5784,-1.5784,-1.5784,-1.5784,-1.5784,-1.5784,-1.5784,-1.5784,-1.5784,-1.5784,-1.5784,-1.5784,-1.5784,-1.5784,-1.5631,-1.5551,-1.5571,-1.736,-1.8503,-2.1691,-2.116,0.0,-1.8934,-1.8248,0.0,-1.6734,0.0,0.0,0.0,0.0,0.0,0.0,0.0,0.0,0.0,0.0,0.0,0.0,0.0,0.0,0.0,0.0,0.0,0.0,0.0,-1.6988,-1.7436,0.0,0.0,0.0,0.0,-1.7715,-1.7988,-1.7988,-1.8107,-1.8284,-1.809,-1.8338,-1.9008,-1.7838,-1.7638,-1.8259,-1.6828,-1.6169,-1.6083,-1.5613,-1.541,-1.541,-1.541,-1.541,-1.5508,-1.6356,-1.6707,-1.6804,-1.7695,-1.8008,-1.8047,-1.8359,-1.8828,-1.9336,-1.9648,-1.9678,-1.9471,-1.9116,-1.7738,-1.6329,-1.6532,-1.5828,-1.5142,-1.5671,-1.5784,-1.5784,-1.5784,-1.5784,-1.5784,-1.5784,-1.5784,-1.5784,-1.5784,-1.5784,-1.5784,-1.5784,-1.5784,-1.5784,-1.5784,-1.5784,-1.5784,-1.5784,-1.5784,-1.5784,-1.5784,-1.5784,-1.5784,-1.5784,-1.5784,-1.5784,-1.5784,-1.5784,-1.5784,-1.5784,-1.5784,-1.5784,-1.5784,-1.5784,-1.5784,-1.5784,-1.5645,-1.5551,-1.5584,-1.7193,-1.8104]},{"header":{"parameterUnit":"m.s-1","parameterCategory":1,"la1":30.6,"la2":29.2853,"lo1":-89.7004,"lo2":-87.6739,"dy":0.0162,"dx":0.0183,"nx":112,"ny":82,"refTime":"2024-11-27T06:00:00:Z","depth":0,"parameterNumber":3,"parameterNumberName":"V-component_of_WINDS"},"data":[0.0,0.0,0.0,0.0,0.0,0.0,0.0,0.0,0.0,0.0,0.0,0.0,0.0,0.0,0.0,0.0,0.0,0.0,0.0,0.0,0.0,0.0,0.0,0.0,0.0,0.0,0.0,0.0,0.0,0.0,0.0,0.0,0.0,0.0,0.0,0.0,0.0,0.0,0.0,0.0,0.0,0.0,0.0,0.0,0.0,0.0,0.0,0.0,0.0,0.0,0.0,0.0,0.0,0.0,0.0,0.0,0.0,0.0,0.0,0.0,0.0,0.0,0.0,0.0,0.0,0.0,0.0,0.0,0.0,0.0,0.0,0.0,0.0,0.0,0.0,0.0,0.0,0.0,0.0,0.0,0.0,0.0,0.0,0.0,0.0,0.0,0.0,0.0,0.0,0.0,0.0,-0.3147,-0.4865,-0.6578,-0.7872,-0.8384,-0.9333,-1.1004,0.0,0.0,0.0,0.0,0.0,0.0,0.0,0.0,0.0,0.0,0.0,0.0,0.0,0.0,0.0,0.0,0.0,0.0,0.0,0.0,0.0,0.0,0.0,0.0,0.0,0.0,0.0,0.0,0.0,0.0,0.0,0.0,0.0,0.0,0.0,0.0,0.0,0.0,0.0,0.0,0.0,0.0,0.0,0.0,0.0,0.0,0.0,0.0,0.0,0.0,0.0,0.0,0.0,0.0,0.0,0.0,0.0,0.0,0.0,0.0,0.0,0.0,0.0,0.0,0.0,0.0,0.0,0.0,0.0,0.0,0.0,0.0,0.0,0.0,0.0,0.0,0.0,0.0,0.0,0.0,0.0,0.0,0.0,0.0,0.0,0.0,0.0,0.0,0.0,0.0,0.0,0.0,0.0,0.0,0.0,0.0,0.0,0.0,0.0,0.0,0.0,0.0,0.0,0.0,-0.5193,-0.5168,-0.5213,-0.6014,-0.7839,-0.7902,-0.8833,-1.1123,0.0,0.0,0.0,0.0,0.0,0.0,0.0,0.0,0.0,0.0,0.0,0.0,0.0,0.0,0.0,0.0,0.0,0.0,0.0,0.0,0.0,0.0,0.0,0.0,0.0,0.0,0.0,0.0,0.0,0.0,0.0,0.0,0.0,0.0,0.0,0.0,0.0,0.0,0.0,0.0,0.0,0.0,0.0,0.0,0.0,0.0,0.0,0.0,0.0,0.0,0.0,0.0,0.0,0.0,0.0,0.0,0.0,0.0,0.0,0.0,0.0,0.0,0.0,0.0,0.0,0.0,0.0,0.0,0.0,0.0,0.0,0.0,0.0,0.0,0.0,0.0,0.0,0.0,0.0,0.0,0.0,0.0,0.0,0.0,0.0,0.0,0.0,0.0,0.0,0.0,0.0,0.0,0.0,0.0,0.0,0.0,0.0,0.0,0.0,0.0,0.0,0.0,0.0,-0.509,-0.4775,-0.4844,-0.5284,-0.6256,-0.7872,-0.8109,-0.8974,-1.0872,-1.1278,0.0,0.0,0.0,0.0,0.0,0.0,0.0,0.0,0.0,0.0,0.0,0.0,0.0,0.0,0.0,0.0,0.0,0.0,0.0,0.0,0.0,0.0,0.0,0.0,0.0,0.0,0.0,0.0,0.0,0.0,0.0,0.0,0.0,0.0,0.0,0.0,0.0,0.0,0.0,0.0,0.0,0.0,0.0,0.0,0.0,0.0,0.0,0.0,0.0,0.0,0.0,0.0,0.0,0.0,0.0,0.0,0.0,0.0,0.0,0.0,0.0,0.0,0.0,0.0,0.0,0.0,0.0,0.0,0.0,0.0,0.0,0.0,0.0,0.0,0.0,0.0,0.0,0.0,0.0,0.0,0.0,0.0,0.0,0.0,0.0,0.0,0.0,0.0,0.0,0.0,0.0,0.0,0.0,0.0,0.0,0.0,0.0,0.0,0.0,0.0,0.0,0.0,-0.4896,-0.4187,-0.4529,-0.5291,-0.64,-0.7862,-0.8165,-0.892,-1.0379,-1.0393,0.0,0.0,0.0,0.0,0.0,0.0,0.0,0.0,0.0,0.0,0.0,0.0,0.0,0.0,0.0,0.0,0.0,0.0,0.0,0.0,0.0,0.0,0.0,0.0,0.0,0.0,0.0,0.0,0.0,0.0,0.0,0.0,0.0,0.0,0.0,0.0,0.0,0.0,0.0,0.0,0.0,0.0,0.0,0.0,0.0,0.0,0.0,0.0,0.0,0.0,0.0,0.0,0.0,0.0,0.0,0.0,0.0,0.0,0.0,0.0,0.0,0.0,0.0,0.0,0.0,0.0,0.0,0.0,0.0,0.0,0.0,0.0,0.0,0.0,0.0,0.0,0.0,0.0,0.0,0.0,0.0,0.0,0.0,0.0,0.0,0.0,0.0,0.0,0.0,0.0,0.0,0.0,0.0,0.0,0.0,0.0,0.0,0.0,0.0,0.0,0.0,0.0,-0.5356,-0.456,-0.5584,-0.5386,-0.5942,-0.7839,-0.7644,-0.8058,-0.9673,-0.9475,0.0,0.0,0.0,0.0,0.0,0.0,0.0,0.0,0.0,0.0,0.0,0.0,0.0,0.0,0.0,0.0,0.0,0.0,0.0,0.0,0.0,0.0,0.0,0.0,0.0,0.0,0.0,0.0,0.0,0.0,0.0,0.0,0.0,0.0,0.0,0.0,0.0,0.0,0.0,0.0,0.0,0.0,0.0,0.0,0.0,0.0,0.0,0.0,0.0,0.0,0.0,0.0,0.0,0.0,0.0,0.0,0.0,0.0,0.0,0.0,0.0,0.0,0.0,0.0,0.0,0.0,0.0,0.0,0.0,0.0,0.0,0.0,0.0,0.0,0.0,0.0,0.0,0.0,0.0,0.0,0.0,0.0,0.0,0.0,0.0,0.0,0.0,0.0,0.0,0.0,0.0,0.0,0.0,0.0,0.0,0.0,0.0,0.0,0.0,0.0,0.0,0.0,-0.6241,-0.5274,0.0,-0.5366,-0.5886,-0.7849,-0.7736,-0.8165,-0.9599,0.0,0.0,0.0,0.0,0.0,0.0,0.0,0.0,0.0,0.0,0.0,0.0,0.0,0.0,0.0,0.0,0.0,0.0,0.0,0.0,0.0,0.0,0.0,0.0,0.0,0.0,0.0,0.0,0.0,0.0,0.0,0.0,0.0,0.0,0.0,0.0,0.0,0.0,0.0,0.0,0.0,0.0,0.0,0.0,0.0,0.0,0.0,0.0,0.0,0.0,0.0,0.0,0.0,0.0,0.0,0.0,0.0,0.0,0.0,0.0,0.0,0.0,0.0,0.0,0.0,0.0,0.0,0.0,0.0,0.0,0.0,0.0,0.0,0.0,0.0,0.0,0.0,0.0,0.0,0.0,0.0,0.0,0.0,0.0,0.0,0.0,0.0,0.0,0.0,0.0,0.0,0.0,0.0,0.0,0.0,0.0,0.0,0.0,0.0,0.0,0.0,0.0,-0.8138,-0.662,-0.5691,0.0,-0.544,-0.5925,-0.7686,-0.7643,-0.8094,-0.9438,0.0,0.0,0.0,0.0,0.0,0.0,0.0,0.0,0.0,0.0,0.0,0.0,0.0,0.0,0.0,0.0,0.0,0.0,0.0,0.0,0.0,0.0,0.0,0.0,0.0,0.0,0.0,0.0,0.0,0.0,0.0,0.0,0.0,0.0,0.0,0.0,0.0,0.0,0.0,0.0,0.0,0.0,0.0,0.0,0.0,0.0,0.0,0.0,0.0,0.0,0.0,0.0,0.0,0.0,0.0,0.0,0.0,0.0,0.0,0.0,0.0,0.0,0.0,0.0,0.0,0.0,0.0,0.0,0.0,0.0,0.0,0.0,0.0,0.0,0.0,0.0,0.0,0.0,0.0,0.0,0.0,0.0,0.0,0.0,0.0,0.0,0.0,0.0,0.0,0.0,0.0,0.0,0.0,0.0,0.0,0.0,0.0,0.0,0.0,0.0,0.0,0.0,-0.7425,-0.633,-0.58,-0.58,-0.5569,-0.5977,-0.7363,-0.7249,-0.7706,0.0,0.0,0.0,0.0,0.0,0.0,0.0,0.0,0.0,0.0,0.0,0.0,0.0,0.0,0.0,0.0,0.0,0.0,0.0,0.0,0.0,0.0,0.0,0.0,0.0,0.0,0.0,0.0,0.0,0.0,0.0,0.0,0.0,0.0,0.0,0.0,0.0,0.0,0.0,0.0,0.0,0.0,0.0,0.0,0.0,0.0,0.0,0.0,0.0,0.0,0.0,0.0,0.0,0.0,0.0,0.0,0.0,0.0,0.0,0.0,0.0,0.0,0.0,0.0,0.0,0.0,0.0,0.0,0.0,0.0,0.0,0.0,0.0,0.0,0.0,0.0,0.0,0.0,0.0,0.0,0.0,0.0,0.0,0.0,0.0,0.0,0.0,0.0,0.0,0.0,0.0,0.0,0.0,0.0,0.0,0.0,0.0,0.0,0.0,0.0,0.0,0.0,0.0,-0.8192,-0.6722,-0.58,-0.58,-0.544,-0.5591,-0.6643,-0.6572,-0.7052,-0.8409,0.0,0.0,0.0,0.0,0.0,0.0,0.0,0.0,0.0,0.0,0.0,0.0,0.0,0.0,0.0,0.0,0.0,0.0,0.0,0.0,0.0,0.0,0.0,0.0,0.0,0.0,0.0,0.0,0.0,0.0,0.0,0.0,0.0,0.0,0.0,0.0,0.0,0.0,0.0,0.0,0.0,0.0,0.0,0.0,0.0,0.0,0.0,0.0,0.0,0.0,0.0,0.0,0.0,0.0,0.0,0.0,0.0,0.0,0.0,0.0,0.0,0.0,0.0,0.0,0.0,0.0,0.0,0.0,0.0,0.0,0.0,0.0,0.0,0.0,0.0,0.0,0.0,0.0,0.0,0.0,0.0,0.0,0.0,0.0,0.0,0.0,0.0,0.0,0.0,0.0,0.0,0.0,0.0,0.0,0.0,0.0,0.0,0.0,0.0,0.0,0.0,0.0,-0.8016,-0.6651,-0.58,-0.58,-0.5366,-0.5416,-0.6158,-0.6134,-0.6461,-0.7494,0.0,0.0,0.0,0.0,0.0,0.0,0.0,0.0,0.0,0.0,0.0,0.0,0.0,0.0,0.0,0.0,0.0,0.0,0.0,0.0,0.0,0.0,0.0,0.0,0.0,0.0,0.0,0.0,0.0,0.0,0.0,0.0,0.0,0.0,0.0,0.0,0.0,0.0,0.0,0.0,0.0,0.0,0.0,0.0,0.0,0.0,0.0,0.0,0.0,0.0,0.0,0.0,0.0,0.0,0.0,0.0,0.0,0.0,0.0,0.0,0.0,0.0,0.0,0.0,0.0,0.0,0.0,0.0,0.0,0.0,0.0,0.0,0.0,0.0,0.0,0.0,0.0,0.0,0.0,0.0,0.0,0.0,0.0,0.0,0.0,0.0,0.0,0.0,0.0,0.0,0.0,0.0,0.0,0.0,0.0,0.0,0.0,0.0,0.0,0.0,0.0,0.0,-0.7425,-0.6472,-0.59,-0.5779,-0.5346,-0.5296,-0.5834,-0.5764,-0.5901,-0.6463,0.0,0.0,0.0,0.0,0.0,0.0,0.0,0.0,0.0,0.0,0.0,0.0,0.0,0.0,0.0,0.0,0.0,0.0,0.0,0.0,0.0,0.0,0.0,0.0,0.0,0.0,0.0,0.0,0.0,0.0,0.0,0.0,0.0,0.0,0.0,0.0,0.0,0.0,0.0,0.0,0.0,0.0,0.0,0.0,0.0,0.0,0.0,0.0,0.0,0.0,0.0,0.0,0.0,0.0,0.0,0.0,0.0,0.0,0.0,0.0,-2.1663,0.0,0.0,0.0,0.0,0.0,0.0,0.0,0.0,0.0,0.0,0.0,0.0,0.0,0.0,0.0,0.0,0.0,0.0,0.0,0.0,0.0,0.0,0.0,0.0,0.0,0.0,0.0,0.0,0.0,0.0,0.0,0.0,0.0,0.0,0.0,0.0,0.0,0.0,0.0,0.0,0.0,-0.8368,-0.746,-0.6632,-0.5748,-0.523,-0.4965,-0.4983,-0.4848,-0.5045,-0.5683,-0.6416,0.0,0.0,0.0,0.0,0.0,0.0,0.0,0.0,0.0,0.0,0.0,0.0,0.0,0.0,0.0,0.0,0.0,0.0,0.0,0.0,0.0,0.0,0.0,0.0,0.0,0.0,0.0,0.0,0.0,0.0,0.0,0.0,0.0,0.0,0.0,0.0,0.0,0.0,0.0,0.0,0.0,0.0,0.0,0.0,0.0,0.0,0.0,0.0,0.0,0.0,0.0,0.0,0.0,0.0,0.0,0.0,0.0,0.0,0.0,0.0,-2.3254,0.0,0.0,0.0,0.0,0.0,0.0,0.0,0.0,0.0,0.0,0.0,0.0,0.0,0.0,0.0,0.0,0.0,0.0,0.0,0.0,0.0,0.0,0.0,0.0,0.0,0.0,0.0,0.0,0.0,0.0,0.0,0.0,0.0,0.0,0.0,0.0,0.0,0.0,0.0,0.0,-0.8827,-0.7833,-0.6895,-0.5804,-0.523,-0.486,-0.4809,-0.4621,-0.4656,-0.4999,-0.5683,0.0,0.0,0.0,0.0,0.0,0.0,0.0,0.0,0.0,0.0,0.0,0.0,0.0,0.0,0.0,0.0,0.0,0.0,0.0,0.0,0.0,0.0,0.0,0.0,0.0,0.0,0.0,0.0,0.0,0.0,0.0,0.0,0.0,0.0,0.0,0.0,0.0,0.0,0.0,0.0,0.0,0.0,0.0,0.0,0.0,0.0,0.0,0.0,0.0,0.0,0.0,0.0,0.0,-2.7059,-2.7116,-2.706,-2.7145,-2.7202,-2.7145,-2.6154,-2.602,-2.6464,-2.5231,0.0,0.0,0.0,0.0,0.0,0.0,0.0,0.0,0.0,0.0,0.0,0.0,0.0,0.0,0.0,0.0,0.0,0.0,0.0,0.0,0.0,0.0,0.0,0.0,-2.672,-2.6608,0.0,0.0,0.0,0.0,0.0,0.0,0.0,0.0,0.0,0.0,0.0,0.0,-0.9216,-0.8298,-0.7363,-0.6283,-0.556,-0.5116,-0.5088,-0.4734,-0.4491,-0.4491,-0.5136,-0.5511,0.0,0.0,0.0,0.0,0.0,0.0,0.0,0.0,0.0,0.0,0.0,0.0,0.0,0.0,0.0,0.0,0.0,0.0,0.0,0.0,0.0,0.0,0.0,0.0,0.0,0.0,0.0,0.0,0.0,0.0,0.0,0.0,-2.0556,-2.1063,0.0,0.0,0.0,0.0,0.0,0.0,0.0,0.0,0.0,0.0,0.0,0.0,0.0,-2.4392,-2.5621,-2.7006,-2.7869,-2.8167,-2.9259,-2.9581,-2.9228,-2.9735,-2.9972,-2.9972,-2.9794,0.0,-2.7133,-2.6435,0.0,0.0,0.0,0.0,0.0,0.0,0.0,0.0,0.0,0.0,0.0,0.0,0.0,0.0,0.0,0.0,0.0,0.0,0.0,0.0,0.0,0.0,-2.8829,-2.9034,-2.9139,-2.9112,0.0,-2.664,-2.4785,-2.5134,-2.4193,0.0,0.0,0.0,0.0,0.0,0.0,0.0,-1.009,-0.973,-0.9205,-0.7857,-0.6693,-0.5986,-0.5864,-0.5009,-0.4491,-0.4491,-0.5136,-0.5511,-0.5511,-0.6308,0.0,0.0,0.0,0.0,0.0,0.0,0.0,0.0,0.0,0.0,0.0,0.0,0.0,0.0,0.0,0.0,0.0,0.0,0.0,0.0,0.0,0.0,0.0,0.0,0.0,0.0,0.0,0.0,0.0,-2.0422,-2.0241,-2.0365,-2.048,-2.0382,0.0,0.0,0.0,0.0,0.0,0.0,0.0,0.0,0.0,-2.3979,-2.5075,-2.6179,-2.7278,-2.868,-2.9633,-3.013,-3.0719,-3.0865,-3.0702,-3.0943,-3.1062,-3.1062,-3.1062,-3.0511,-2.9581,-2.854,-2.8025,-2.7825,0.0,0.0,0.0,0.0,-2.9811,-3.0227,-3.0331,-2.9911,0.0,-2.8199,0.0,0.0,0.0,0.0,0.0,0.0,0.0,0.0,0.0,0.0,-2.9656,-3.0468,-3.0133,-2.9774,-3.0522,-2.8948,-2.7418,0.0,-2.6538,-2.5012,-2.2247,0.0,0.0,0.0,0.0,0.0,-1.1999,-1.1222,-1.0399,-0.8942,-0.7623,-0.6776,-0.672,-0.5715,-0.5054,-0.5054,-0.4972,-0.4952,-0.4952,-0.5601,-0.5982,0.0,0.0,0.0,0.0,0.0,0.0,0.0,0.0,0.0,0.0,0.0,0.0,0.0,0.0,0.0,0.0,0.0,0.0,0.0,0.0,0.0,0.0,0.0,0.0,0.0,0.0,0.0,0.0,-2.0738,-2.0182,-2.0183,-2.0297,-2.0135,0.0,0.0,0.0,0.0,0.0,0.0,-2.3697,-2.4374,-2.4804,-2.4957,-2.6754,-2.8091,-2.8738,-2.9978,-3.0896,-3.1511,-3.1331,-3.1241,-3.1241,-3.1241,-3.1241,-3.1241,-3.1421,-3.1511,-3.1422,-3.0162,-2.9492,-2.9115,-2.8397,-2.8972,-3.0251,-3.0542,-3.1132,-3.1809,-3.2108,-3.1809,-3.1122,-3.0342,0.0,-2.9442,-2.8603,0.0,0.0,0.0,0.0,-2.9355,-3.0462,-3.0313,-3.0073,-3.1002,-3.0402,-2.9834,-3.0821,-3.0283,-2.9502,0.0,-2.8559,-2.7211,-2.4391,0.0,0.0,0.0,0.0,-1.6979,-1.4008,-1.2826,-1.165,-1.0171,-0.8592,-0.7645,-0.7645,-0.6492,-0.5792,-0.5792,-0.5136,-0.4759,-0.4759,-0.5081,-0.5246,-0.5246,0.0,0.0,0.0,0.0,0.0,0.0,0.0,0.0,0.0,0.0,0.0,0.0,0.0,0.0,0.0,0.0,0.0,0.0,0.0,0.0,0.0,0.0,0.0,0.0,0.0,0.0,0.0,0.0,0.0,-2.0878,-2.0955,0.0,0.0,0.0,0.0,-2.302,-2.3602,-2.4381,-2.541,-2.6304,-2.6985,-2.7479,-2.9202,-3.0151,-3.0181,-3.1014,-3.1482,-3.1481,-3.0853,-3.0552,-3.0552,-3.0552,-3.0552,-3.0582,-3.1212,-3.1511,-3.1451,-3.0735,-3.0824,-3.1274,-3.0589,-3.1154,-3.2288,-3.1662,-3.187,-3.2348,-3.175,-3.1092,-3.0642,-3.1212,-3.0582,-2.9711,-3.0193,-2.9505,0.0,0.0,-3.0402,-3.0582,-3.1271,-3.0943,-3.0462,-3.0552,-3.0043,-2.9621,-2.9681,-2.9651,-2.9771,0.0,-2.9896,-2.905,-2.7607,0.0,-2.515,-2.1916,-2.0865,-1.9177,-1.5739,-1.4504,-1.3365,-1.1854,-0.9797,-0.8522,-0.8522,-0.7315,-0.6534,-0.6534,-0.5846,-0.5464,-0.5464,-0.4869,-0.4546,-0.4546,-0.5937,0.0,0.0,0.0,0.0,0.0,0.0,0.0,0.0,0.0,0.0,0.0,0.0,0.0,0.0,0.0,0.0,0.0,0.0,0.0,0.0,0.0,0.0,0.0,0.0,0.0,0.0,0.0,0.0,-2.0411,-2.1188,0.0,-2.1373,-2.2253,-2.3321,-2.4632,-2.5428,-2.6181,-2.69,-2.7776,-2.8339,-2.8524,-2.9659,-3.0299,-3.0299,-3.1102,-3.1271,-3.0853,-3.0612,-3.0313,-2.9924,-2.9924,-3.0133,-3.0522,-3.0761,-3.1092,-3.1481,-3.1241,-3.1271,-3.1481,-3.1241,-3.169,-3.2467,-3.2228,-3.2587,-3.3066,-3.2407,-3.2018,-3.1779,-3.157,-3.1182,-3.0853,-3.1062,-3.0823,-3.0554,-3.1002,-3.1122,-3.1296,-3.2015,-3.1064,-3.0229,-3.1508,-3.0294,-2.9229,-3.0491,-3.041,-3.0192,-3.0435,-3.0011,-2.9163,-2.7833,-2.7678,-2.655,-2.3119,-2.272,-2.1416,-1.7554,-1.6362,-1.5007,-1.2799,-1.1241,-1.0053,-0.9366,-0.8288,-0.7345,-0.6652,-0.6362,-0.5792,-0.4897,-0.5027,-0.5136,-0.5136,-0.6091,-0.7294,0.0,0.0,0.0,0.0,0.0,0.0,0.0,0.0,0.0,0.0,0.0,0.0,0.0,0.0,0.0,0.0,0.0,0.0,0.0,0.0,0.0,0.0,0.0,0.0,0.0,0.0,-2.1569,-2.0798,-2.1829,-2.2441,-2.211,-2.3115,-2.4254,-2.5345,-2.6348,-2.7193,-2.775,-2.8636,-2.9187,-2.9442,-3.0269,-3.0718,-3.0718,-3.1011,-3.0943,-3.0492,-3.0073,-2.9654,-2.9265,-2.9502,-2.9831,-3.0223,-3.0672,-3.1092,-3.1511,-3.1511,-3.1511,-3.1511,-3.1511,-3.1899,-3.2467,-3.2228,-3.2587,-3.3066,-3.2378,-3.2138,-3.2079,-3.166,-3.1511,-3.1511,-3.1511,-3.1511,-3.1568,-3.1796,-3.1881,-3.202,-3.2761,-3.1606,-3.0572,-3.1872,-3.0449,-2.9155,-3.0449,-3.0384,-3.0076,-3.012,-3.0017,-2.9546,-2.8481,-2.8581,-2.7768,-2.4657,-2.4543,-2.3261,-1.8989,-1.7738,-1.625,-1.3683,-1.2411,-1.1461,-1.0741,-0.9643,-0.8686,-0.7955,-0.7322,-0.6482,-0.5361,-0.5443,-0.5544,-0.5612,-0.7106,-0.8522,-0.9771,0.0,0.0,0.0,0.0,0.0,0.0,0.0,0.0,0.0,0.0,0.0,0.0,0.0,0.0,0.0,0.0,0.0,0.0,0.0,0.0,0.0,0.0,0.0,-2.1129,-2.1039,-2.1361,-2.2176,-2.2769,-2.2895,-2.2451,-2.402,-2.512,-2.5146,-2.6345,-2.7338,-2.7974,-2.8846,-2.9636,-3.0271,-3.1073,-3.1481,-3.1481,-3.0793,-3.0492,-3.0432,-2.9205,-2.8607,-2.8637,-2.9235,-2.9592,-2.9711,-3.0883,-3.1451,-3.1511,-3.1481,-3.1481,-3.1511,-3.1511,-3.1899,-3.2378,-3.175,-3.1899,-3.2407,-3.172,-3.1511,-3.1511,-3.1511,-3.1511,-3.1511,-3.1511,-3.1511,-3.1653,-3.2382,-3.2602,-3.2761,-3.3469,-3.2592,-3.1534,-3.1558,-3.0477,-2.9461,-2.9451,-2.9451,-2.9451,-2.9429,-3.0004,-3.0289,-2.9696,-2.9592,-2.8891,-2.6693,-2.6381,0.0,-1.994,-1.8627,-1.7111,-1.4513,-1.3274,-1.2626,-1.2597,-1.1348,-1.0547,-1.0504,-0.8817,-0.7547,-0.6994,-0.6073,-0.5703,-0.592,-0.8864,-1.0895,-1.1942,0.0,0.0,0.0,0.0,0.0,0.0,0.0,0.0,0.0,0.0,0.0,0.0,0.0,0.0,0.0,0.0,0.0,0.0,0.0,0.0,0.0,0.0,-2.1278,-2.1039,-2.1855,-2.2395,-2.2031,-2.2664,-2.3436,-2.4235,-2.4786,-2.5488,-2.6402,-2.739,-2.8024,-2.8223,-2.9463,-3.0242,-3.0449,-3.1127,-3.1271,-3.0791,-3.0582,-3.0043,-2.9116,-2.8757,-2.8607,-2.8577,-2.8304,-2.8933,-3.0223,-2.9654,-3.0195,-3.1481,-3.0972,-3.1062,-3.1511,-3.1511,-3.16,-3.175,-3.157,-3.163,-3.175,-3.157,-3.1511,-3.1511,-3.1511,-3.1511,-3.1511,-3.1511,-3.1511,-3.1653,-3.2382,-3.2602,-3.2868,-3.4021,-3.3323,-3.2394,-3.2785,-3.1847,-3.0816,-3.0734,-3.0716,-3.058,-3.0128,-3.0217,-3.0165,-2.962,-2.958,-2.8891,-2.6693,-2.6381,0.0,-2.0312,-1.9283,-1.7871,-1.5019,-1.4135,-1.3444,-1.2672,-1.227,-1.1696,-1.092,-1.0316,-0.9475,-0.8259,-0.7919,-0.8052,-0.8673,-0.9967,-1.1332,0.0,0.0,0.0,0.0,0.0,0.0,0.0,0.0,0.0,0.0,0.0,0.0,0.0,0.0,0.0,0.0,0.0,0.0,0.0,0.0,0.0,0.0,-2.1321,-2.1855,-2.1855,-2.2298,-2.2677,-2.2889,-2.331,-2.4031,-2.5135,-2.5509,-2.599,-2.6721,-2.7563,-2.8146,-2.8409,-2.926,-2.9834,-3.0103,-3.0492,-3.0522,-3.0133,-2.9834,-2.9325,-2.8607,-2.8607,-2.8607,-2.8607,-2.8483,-2.9052,0.0,-2.9594,-3.0043,-3.1062,-3.0943,-3.1152,0.0,0.0,0.0,0.0,0.0,-3.1511,-3.1511,-3.1511,-3.1511,-3.1511,-3.1511,-3.1511,-3.1511,-3.1511,-3.1511,-3.171,-3.2734,-3.3029,-3.3339,-3.4664,-3.4206,-3.3476,-3.3814,-3.3021,-3.2202,-3.2144,-3.2104,-3.1921,-3.1278,-3.0738,0.0,-2.9572,-2.9267,-2.8521,-2.669,-2.619,-2.4759,-2.1332,-2.0427,-1.9134,-1.6657,-1.6167,-1.5653,-1.4773,-1.4279,0.0,0.0,0.0,-1.1043,-0.9234,-0.8859,0.0,0.0,0.0,0.0,0.0,0.0,0.0,0.0,-1.5583,-1.5523,0.0,0.0,0.0,0.0,0.0,0.0,0.0,0.0,0.0,0.0,0.0,0.0,0.0,0.0,0.0,0.0,-2.2892,-2.325,-2.3234,-2.2639,-2.2699,-2.4134,-2.4366,-2.4709,-2.5467,-2.6122,-2.6522,-2.6602,-2.7229,-2.7854,-2.8457,0.0,0.0,0.0,0.0,-2.9562,-2.9502,-2.8906,-2.8577,-2.8487,-2.8577,-2.8637,-2.8727,-2.9352,-2.9681,-2.9861,-3.0223,-3.0492,-3.0672,-3.1182,-3.1421,-3.1511,-3.1511,-3.1511,-3.1511,-3.1511,-3.1511,-3.1511,-3.1511,0.0,0.0,-3.1511,-3.1511,-3.1511,-3.1597,-3.1596,-3.1908,-3.3339,-3.3694,-3.4003,-3.527,-3.5115,-3.4607,-3.4506,-3.3998,-3.3525,-3.3423,-3.3423,-3.322,-3.2564,-3.1484,-3.0505,-2.9749,-2.8959,-2.7953,-2.6575,-2.5824,-2.4636,-2.2524,-2.1658,-2.0559,-1.8838,0.0,0.0,-1.7745,-1.6776,-1.59,-1.5187,-1.408,-1.2472,-1.0335,-0.9646,-0.9775,-1.0719,-1.1968,-1.3446,-1.5025,-1.5731,-1.6779,-1.8018,-1.6073,-1.6054,0.0,0.0,0.0,0.0,0.0,0.0,0.0,0.0,0.0,0.0,0.0,0.0,0.0,0.0,0.0,-2.2919,-2.3681,-2.4092,-2.4121,-2.4013,-2.4007,-2.4255,-2.4823,-2.5495,-2.6229,-2.6416,-2.6762,-2.7331,-2.7509,-2.7645,-2.7794,-2.8308,-2.8667,-2.8786,-2.9322,-2.9352,-2.8786,-2.8667,-2.8338,-2.7794,0.0,0.0,-2.9412,-2.9562,-3.0163,-3.1062,-3.0163,-3.0372,-3.1271,-3.0853,-3.1002,-3.1511,-3.1511,-3.1511,-3.1511,-3.1511,-3.1511,-3.1511,-3.1511,-3.1511,-3.1511,-3.1511,-3.1511,-3.1596,-3.2188,-3.2382,0.0,-3.4021,-3.4423,-3.4592,-3.5385,-3.5498,-3.525,-3.4641,-3.437,-3.4134,-3.3525,-3.3423,-3.3355,-3.322,-3.2541,-3.1824,-3.1197,-2.9273,-2.7276,-2.5823,-2.5495,-2.4572,-2.2293,-2.1536,-2.0788,-1.9734,-1.8953,-1.8436,-1.8346,-1.7684,-1.7157,-1.6792,-1.5693,-1.4382,-1.2944,-1.2743,-1.2927,-1.3446,-1.3104,-1.3869,-1.5872,-1.6026,-1.6941,-1.847,-1.7727,-1.794,0.0,0.0,0.0,0.0,0.0,0.0,0.0,0.0,0.0,0.0,0.0,-1.7762,-1.8546,0.0,-2.1535,-2.2719,-2.3417,-2.3852,-2.3873,-2.4211,-2.4427,-2.4418,-2.4738,-2.5377,-2.6444,-2.6549,-2.6849,-2.756,-2.7585,-2.7585,-2.7585,-2.7914,-2.8124,-2.8124,-2.8423,-2.8453,-2.8124,-2.8124,-2.8124,-2.8124,-2.8757,-2.9415,-3.0043,-3.0043,-3.0402,-3.0943,-3.0342,-3.0402,-3.1002,-3.1002,-3.1182,-3.1511,-3.1511,-3.1511,-3.1511,-3.1511,-3.1511,-3.1511,-3.1511,-3.1511,-3.1568,-3.1938,-3.2048,-3.2188,-3.2895,-3.3077,-3.3313,-3.4317,-3.4616,-3.4759,-3.543,-3.56,-3.5498,-3.5148,-3.5047,-3.4945,-3.4585,-3.4484,-3.4404,-3.4032,-3.317,-3.2287,-3.1622,-2.9892,-2.8248,-2.7149,-2.6402,-2.555,-2.4343,-2.3676,-2.302,-2.2257,-2.1439,-2.0822,-2.0551,-1.9586,-1.8942,-1.8789,-1.7532,-1.6515,-1.588,-1.4826,-1.4523,-1.5128,-1.475,-1.5396,-1.7043,-1.7695,-1.8969,-2.0796,-2.0602,-2.0751,0.0,0.0,0.0,0.0,0.0,0.0,0.0,0.0,-1.5347,-1.584,-1.6951,-1.8059,-1.8752,-2.0396,-2.1877,-2.2697,-2.3277,-2.3608,-2.3624,-2.4148,-2.4486,-2.4341,-2.4544,-2.5165,-2.6284,-2.6393,-2.6656,-2.7165,-2.7345,-2.7405,-2.7405,-2.7525,-2.7585,-2.7585,-2.7585,-2.7585,-2.7585,-2.7585,-2.7884,-2.8397,-2.9232,-2.9774,-3.0133,-3.0402,-3.0492,-3.0522,-3.0642,-3.0702,-3.0761,-3.1271,-3.1511,-3.1511,-3.1511,-3.1511,-3.1511,-3.1511,-3.1511,-3.1511,-3.1511,-3.1511,-3.1596,-3.2355,-3.2602,-3.2765,-3.3732,-3.3899,-3.3953,-3.4781,-3.4883,-3.4901,-3.5453,-3.56,-3.56,-3.56,-3.56,-3.56,-3.56,-3.56,-3.543,-3.4844,-3.3782,-3.2789,-3.2184,-3.1035,-2.98,-2.8714,-2.7506,-2.6644,-2.651,-2.5825,-2.5191,-2.472,-2.3905,-2.3117,-2.2429,-2.1378,-2.0716,-2.0716,-1.9641,-1.8909,-1.8663,-1.6992,-1.6276,-1.6708,-1.6738,-1.7284,-1.8358,-1.9688,-2.1283,-2.303,-2.3475,-2.3621,-1.6856,-1.5621,0.0,-1.4189,-1.3659,-1.3396,0.0,0.0,-1.5014,-1.56,-1.6749,-1.8032,-1.9349,-2.0707,-2.216,-2.3956,-2.4319,-2.4418,-2.4456,-2.4535,-2.4372,-2.3769,-2.4752,-2.5521,-2.5681,-2.5704,-2.5734,-2.5824,-2.6363,-2.6692,-2.6692,-2.7285,-2.7585,-2.7585,-2.7585,-2.7585,-2.7585,-2.7585,-2.7645,-2.7735,-2.8992,-2.9295,-2.8846,-2.9983,-3.0492,-3.0522,-3.1122,-3.1391,-3.1391,-3.1481,-3.1511,-3.1511,-3.1511,-3.1511,-3.1511,-3.1511,-3.1511,-3.1511,-3.1511,-3.1511,-3.1596,-3.2355,-3.2602,-3.2966,-3.4876,-3.4988,-3.4772,-3.6145,-3.6038,-3.5532,-3.5577,-3.56,-3.56,-3.56,-3.56,-3.56,-3.56,-3.56,-3.5566,-3.5498,-3.4872,-3.4355,-3.429,-3.3153,-3.1404,-2.8786,-2.7845,-2.7139,-2.6497,-2.5827,-2.5356,-2.5301,-2.4174,-2.2921,-2.1713,-2.1791,-2.1902,-2.1902,-2.2159,-2.1775,-2.0736,-2.0463,-1.9867,-1.8963,-1.8933,-1.9178,-1.97,-2.1271,-2.236,-2.3059,-2.5135,-2.5769,-1.621,0.0,0.0,0.0,-1.3524,-1.3417,-1.3769,-1.4148,-1.4557,-1.5229,-1.612,-1.7171,-1.8413,-2.0046,-2.1564,0.0,-2.3495,-2.4013,-2.4014,-2.4007,-2.3909,-2.364,-2.4448,-2.5023,-2.5023,-2.5023,-2.5173,-2.5561,-2.5854,-2.6183,-2.6572,-2.6866,-2.7195,-2.7585,-2.7585,-2.7585,-2.7585,-2.7585,-2.7794,-2.8188,-2.8757,-2.9056,-2.9175,-2.9714,-3.0163,-3.0552,-3.1212,-3.1511,-3.1511,-3.1511,-3.1511,-3.1511,-3.1511,-3.1511,-3.1511,-3.1511,-3.1511,-3.1511,-3.1511,-3.175,-3.2254,-3.3435,-3.4067,-3.4717,-3.6473,-3.6764,-3.6645,-3.7276,-3.6874,-3.6299,-3.6299,-3.6299,-3.6197,-3.5701,-3.596,-3.6163,-3.5701,-3.56,-3.56,-3.56,-3.5052,-3.4616,-3.4616,-3.3819,-3.2768,-3.1619,-3.0556,-2.9623,-2.8943,-2.8598,-2.7956,-2.6745,-2.5769,-2.4805,-2.3846,-2.3922,-2.4028,-2.4028,-2.4214,-2.4072,-2.3579,-2.2817,-2.1967,-2.1069,-2.1453,-2.1576,-2.1295,-2.3192,-2.4443,-2.5079,-2.6835,-2.7724,-1.4825,0.0,0.0,-1.3039,-1.3226,-1.3285,-1.3378,-1.39,-1.4526,-1.5058,-1.5961,-1.7,-1.804,-1.9804,-2.1304,-2.1881,-2.2883,-2.361,-2.361,-2.361,-2.361,-2.361,-2.4007,-2.4395,-2.4575,-2.4605,-2.4814,-2.5292,-2.5525,-2.5824,-2.6303,-2.6662,-2.7106,-2.7585,-2.7585,-2.7585,-2.7585,-2.7585,-2.7854,-2.8308,-2.8517,-2.8757,-2.9052,-2.9442,-2.9924,-3.0552,-3.1212,-3.1511,-3.1511,-3.1511,-3.1511,-3.1511,-3.1511,-3.1511,-3.1511,-3.1511,-3.1511,-3.1511,-3.1511,-3.1929,-3.2704,-3.3952,-3.4999,-3.5986,-3.7419,-3.7889,-3.7956,-3.8159,-3.7652,-3.71,-3.71,-3.71,-3.6941,-3.6377,-3.6671,-3.6941,-3.6343,-3.6242,-3.6174,-3.5994,-3.5549,-3.5143,-3.4887,-3.4471,-3.4153,-3.4153,-3.3323,-3.2336,-3.1288,-3.0822,-2.995,-2.8226,-2.7436,-2.6743,-2.5994,-2.6106,-2.6217,-2.6212,-2.6268,-2.6155,-2.5957,-2.4859,-2.3903,-2.3173,-2.3681,-2.3681,-2.3145,-2.5246,-2.6537,-2.7097,-2.8621,-2.9738,0.0,0.0,-1.1417,-1.1692,-1.2114,-1.2526,-1.2855,-1.4041,-1.51,-1.5257,-1.6669,-1.8088,-1.8904,-2.05,-2.1903,-2.2548,-2.3191,-2.361,-2.361,-2.361,-2.361,-2.361,-2.361,-2.3909,0.0,-2.4605,-2.4605,-2.4634,-2.5232,-2.5615,-2.5644,-2.6866,-2.7585,-2.7585,-2.7585,-2.7585,-2.7585,-2.7585,-2.7615,-2.7645,-2.8278,-2.8248,-2.7705,-2.9022,-2.9924,-3.0552,-3.1212,-3.1511,-3.1511,-3.1511,-3.1511,-3.1511,-3.1511,-3.1511,-3.1511,-3.1511,-3.1511,-3.1511,-3.1511,-3.1929,-3.2616,-3.3308,-3.4502,-3.5974,-3.7353,-3.7853,-3.8058,-3.8768,-3.843,-3.7889,-3.7889,-3.7889,-3.7855,-3.7855,-3.7855,-3.7855,-3.7855,-3.7855,-3.7618,-3.6897,-3.6738,-3.6479,-3.5712,-3.5554,-3.5554,-3.5554,-3.5487,-3.4774,-3.2804,-3.1382,-3.031,-2.9509,-2.8783,-2.8054,-2.7303,-2.7911,-2.8299,-2.8319,-2.8435,-2.8166,-2.7364,-2.6753,-2.6067,-2.5301,-2.5329,-2.5329,-2.5301,-2.7384,-2.8411,-2.8493,-3.0564,-3.1834,0.0,0.0,-1.1209,-1.0852,-1.1753,-1.281,-1.3024,-1.3909,-1.4814,-1.5383,-1.6608,-1.7878,-1.8906,-2.0606,-2.201,-2.262,-2.3212,-2.361,-2.361,-2.361,-2.361,-2.361,-2.4388,0.0,0.0,0.0,0.0,-2.5232,-2.5472,-2.5794,-2.6243,-2.6716,-2.7136,-2.7585,-2.7585,-2.7585,-2.7585,-2.7585,-2.7585,-2.7615,-2.8278,-2.8697,-2.8963,-2.9804,-3.0313,-3.0552,-3.1212,-3.1511,-3.1511,-3.1511,-3.1511,-3.1511,-3.1511,-3.1511,-3.1511,-3.1511,-3.178,-3.2138,-3.2138,-3.2617,-3.3336,-3.4507,-3.5886,-3.7291,-3.8237,-3.892,-3.9436,-3.9673,-3.9174,-3.8633,-3.8633,-3.8633,-3.8497,-3.8024,-3.8261,-3.8497,-3.8024,-3.7922,-3.7821,-3.7584,-3.7516,-3.728,-3.6535,-3.64,-3.6231,-3.5667,-3.5214,-3.4717,-3.399,-3.2755,-3.181,-3.1577,-3.0941,-3.0432,-3.0171,-3.0407,-3.0516,-3.0521,-3.0577,-3.0483,-3.02,-3.0005,-2.9545,-2.8789,-2.9261,-2.9261,-2.8789,-2.9987,-3.0564,-3.062,-3.2199,-3.3027,0.0,-1.114,-1.0947,-1.1001,-1.2023,-1.3077,-1.3356,-1.4293,-1.5327,-1.6089,-1.7349,-1.8573,-1.9566,-2.0905,-2.1946,-2.2296,-2.2891,-2.3275,-2.3275,-2.345,-2.361,-2.361,-2.4545,0.0,0.0,0.0,0.0,-2.5914,-2.5974,-2.6027,-2.6199,-2.6659,-2.7041,-2.7199,-2.7458,-2.7585,-2.7585,-2.7585,-2.7735,-2.7974,-2.8397,-2.9056,-2.9924,-3.0313,-3.0642,-3.0881,-3.1301,-3.1511,-3.1511,-3.1511,-3.1511,-3.1511,-3.1511,-3.1511,-3.1511,-3.1511,-3.178,-3.2168,-3.2437,-3.3095,-3.3996,-3.4912,-3.6402,-3.7908,-3.8358,-3.9236,-4.0113,-4.0113,-3.9774,-3.9402,-3.9402,-3.9402,-3.9276,-3.8802,-3.9039,-3.9242,-3.8768,-3.87,-3.8599,-3.8328,-3.8294,-3.8058,-3.7313,-3.6965,-3.6626,-3.6096,-3.5673,-3.5281,-3.5015,-3.4005,-3.3291,-3.3291,-3.2707,-3.2296,-3.2296,-3.2296,-3.2297,-3.2255,-3.2088,-3.1935,-3.1922,-3.1701,-3.1382,-3.0896,-3.1358,-3.1382,-3.0896,-3.1847,-3.2326,-3.2349,-3.3883,-3.4577,-1.1783,-1.1305,-1.0636,-1.1939,-1.2761,-1.3337,-1.3733,-1.5197,-1.6661,-1.7317,-1.8804,-2.0208,0.0,0.0,-2.1736,-2.1714,-2.2224,-2.2649,-2.2694,-2.3187,-2.3588,0.0,0.0,0.0,0.0,0.0,0.0,-2.6583,0.0,-2.6362,-2.5651,-2.6874,-2.728,-2.6575,-2.7229,-2.7585,-2.7585,-2.7615,-2.8004,-2.8637,-2.8697,-2.9355,-3.0552,-3.0552,-3.0883,-3.1511,-3.1511,-3.1511,-3.1511,-3.1511,-3.1511,-3.1511,-3.154,-3.154,-3.157,-3.16,-3.163,-3.175,-3.2378,-3.3395,-3.4474,-3.4565,-3.6043,-3.7822,-3.7851,-3.8914,-4.0113,-4.0113,-4.0113,-4.0113,-4.0113,-4.0113,-4.0113,-4.0113,-4.0113,-4.0113,-4.0113,-4.0113,-3.991,-3.9174,-3.9005,-3.8768,-3.8091,-3.7347,-3.6863,-3.6863,-3.6863,-3.6535,-3.5701,-3.5085,-3.4697,-3.4664,-3.4071,-3.3726,-3.3726,-3.3726,-3.3687,-3.3613,-3.3072,-3.2724,-3.265,-3.2113,-3.1798,-3.1798,-3.1798,-3.1798,-3.183,-3.3069,-3.3733,-3.3779,-3.5553,-3.6416,-1.0945,-1.0936,-1.0885,-1.1725,-1.2778,-1.3799,-1.4328,-1.5865,-1.7317,-1.7935,-1.9832,-2.1297,0.0,0.0,0.0,-2.1792,-2.1834,0.0,-2.2626,-2.283,0.0,0.0,0.0,-2.4874,-2.5531,-2.6213,0.0,0.0,-2.7014,-2.727,-2.7064,-2.7394,-2.7509,-2.7331,-2.7484,-2.7585,-2.7585,-2.8124,-2.8667,-2.9352,-2.9804,-3.0462,-3.1241,-3.1241,-3.1331,-3.1511,-3.1511,-3.1511,-3.1511,-3.1511,-3.1511,-3.154,-3.2049,-3.2228,-3.2317,-3.2826,-3.3305,-3.3754,-3.3903,-3.3873,-3.4027,-3.5554,-3.6839,-3.7908,-3.8442,-3.9315,-4.0113,-4.0113,-4.0113,-4.0113,-4.0113,-4.0113,-4.0113,-4.0113,-4.0113,-4.0113,-4.0113,-4.0113,-4.0045,-3.9876,-3.9377,-3.8937,-3.8734,-3.8125,-3.7618,-3.7618,-3.7618,-3.7144,-3.5769,-3.5958,-3.6024,-3.5406,-3.5201,-3.5075,-3.5075,-3.5075,-3.5078,-3.507,-3.49,-3.4833,-3.4824,-3.4655,-3.4587,-3.4587,-3.4587,-3.4587,-3.4587,-3.4924,-3.5306,-3.5707,-3.6167,-3.662,-1.0889,-1.1015,-1.1116,-1.2361,-1.344,-1.4396,-1.5245,-1.6637,-1.807,-1.9203,-2.0488,0.0,0.0,0.0,0.0,0.0,0.0,0.0,-2.2559,-2.2683,-2.292,0.0,-2.4186,0.0,-2.5113,-2.6033,-2.6574,0.0,-2.7208,-2.7331,-2.668,-2.7255,-2.7458,-2.7126,-2.7433,-2.7585,-2.7585,-2.8248,-2.8936,-2.9621,-3.0193,-3.0853,-3.1511,-3.1511,-3.1511,-3.1511,0.0,-3.1511,-3.1511,-3.1511,-3.1511,-3.157,-3.2228,-3.2527,-3.2587,-3.3245,-3.3724,-3.4114,-3.4414,-3.4452,-3.4638,-3.6106,-3.7381,-3.8358,-3.8772,-3.9447,-4.0113,-4.0113,-4.0113,-4.0113,-4.0113,-4.0113,-4.0113,-4.0113,-4.0113,-4.0113,-4.0113,-4.0113,-4.0113,-4.0113,-3.9774,-3.9503,-3.9503,-3.887,-3.8396,-3.8396,-3.8396,-3.7956,-3.6749,-3.6705,-3.6468,-3.5667,-3.56,-3.56,-3.56,-3.56,-3.56,-3.56,-3.56,-3.56,-3.56,-3.56,-3.56,-3.56,-3.56,-3.5734,-3.5963,-3.5963,-3.6228,-3.6781,-3.6962,-3.7229,-1.1166,-1.1316,-1.1391,-1.3321,-1.426,-1.5017,-1.6126,-1.7403,-1.8802,-2.042,0.0,0.0,-2.3047,0.0,-2.1943,-2.2526,0.0,-2.1973,-2.2649,-2.271,-2.2917,-2.3523,-2.403,-2.4425,-2.4582,-2.5644,-2.6338,-2.6331,-2.7026,-2.6931,-2.5741,-2.689,-2.7306,-2.6683,-2.728,-2.7585,-2.7585,-2.8248,-2.8936,-2.9621,-3.0193,-3.0853,-3.1511,-3.1511,-3.1511,-3.1511,-3.1511,0.0,-3.1511,-3.1511,-3.1511,-3.157,-3.2318,-3.2647,-3.2736,-3.3484,-3.3754,-3.3874,-3.4539,-3.5248,-3.6004,-3.6565,-3.7729,-3.8908,-3.9016,-3.9558,-4.0113,-4.0113,-4.0113,-4.0113,-4.0113,-4.0113,-4.0113,-4.0113,-4.0113,-4.0113,-4.0113,-4.0113,-4.0113,-4.0113,-4.0113,-4.0113,-4.0113,-3.9571,-3.914,-3.914,-3.914,-3.887,-3.8159,-3.7381,-3.6637,-3.5836,-3.5667,-3.56,-3.56,-3.56,-3.56,-3.56,-3.56,-3.56,-3.56,-3.5689,-3.5711,-3.5711,-3.5766,-3.6015,-3.6519,-3.6519,-3.6766,-3.7304,-3.7702,-3.7928,-1.0737,-1.1291,-1.1987,-1.3437,-1.426,-1.5017,-1.6126,-1.7725,0.0,0.0,0.0,-2.23,-2.2063,-2.2292,0.0,-2.2665,0.0,0.0,0.0,0.0,-2.2914,0.0,0.0,0.0,0.0,0.0,0.0,0.0,0.0,-2.6892,-2.7225,-2.7458,-2.7534,-2.7408,-2.7534,-2.7585,-2.7585,-2.8248,-2.8936,-2.9621,-3.0193,-3.0853,-3.1511,-3.1511,-3.1511,-3.1511,-3.1511,0.0,-3.1511,-3.1511,-3.1511,-3.163,-3.2856,-3.3335,-3.3484,-3.4711,-3.516,-3.5257,-3.5982,-3.6747,-3.7427,-3.7555,-3.8189,-3.9016,-3.9688,-3.9978,-4.0113,-4.0113,-4.0113,-4.0113,-4.0113,-4.0113,-4.0113,-4.0113,-4.0113,-4.0113,-4.0113,-4.0113,-4.0113,-4.0113,-4.0113,-4.0113,-4.0113,-4.0011,-3.991,-3.991,-3.991,-3.9639,-3.8903,-3.8159,-3.7415,-3.6694,-3.5994,-3.56,-3.56,-3.56,-3.56,-3.56,-3.56,-3.56,-3.56,-3.6028,-3.6249,-3.6249,-3.6686,-3.6962,-3.7058,-3.7058,-3.7304,-3.7772,-3.7859,-3.8132,-1.104,-1.1291,-1.1747,-1.3771,-1.4491,-1.5085,-1.6588,0.0,0.0,0.0,0.0,-2.1495,-2.2104,0.0,0.0,0.0,0.0,0.0,0.0,0.0,0.0,0.0,0.0,0.0,0.0,0.0,0.0,0.0,0.0,-2.6574,-2.6516,-2.7204,-2.7585,-2.7585,-2.7585,-2.7585,-2.7585,-2.8633,-2.9116,-2.9086,-3.0402,-3.1002,-3.0972,-3.1331,-3.1511,-3.1511,-3.1511,0.0,-3.1511,-3.1511,-3.1511,-3.163,-3.2976,-3.3484,-3.3664,-3.5011,-3.575,-3.6102,-3.6477,-3.7381,-3.8358,-3.8358,-3.8881,-3.961,-3.9978,-4.0113,-4.0113,-4.0113,-4.0113,-4.0113,-4.0113,-4.0113,-4.0113,-4.0113,-4.0113,-4.0113,-4.0113,-4.0113,-4.0113,-4.0113,-4.0113,-4.0113,-4.0113,-4.0113,-4.0113,-4.0113,-4.0113,-3.9817,-3.9064,-3.8287,-3.7577,-3.6884,-3.6434,-3.6062,-3.5633,-3.56,-3.56,-3.56,-3.56,-3.5734,-3.6006,-3.6249,-3.6539,-3.6786,-3.7058,-3.7323,-3.756,-3.756,-3.8023,-3.8935,-3.8935,-3.9086,-1.1484,-1.1416,-1.1641,-1.4228,-1.4878,-1.5337,-1.715,-1.7574,0.0,0.0,0.0,-2.0724,-2.2398,0.0,0.0,0.0,0.0,0.0,0.0,0.0,0.0,0.0,0.0,0.0,0.0,0.0,0.0,0.0,0.0,0.0,-2.5948,-2.6984,-2.7585,-2.7585,-2.7585,-2.7585,-2.7585,-2.8663,-2.9026,-2.8816,-3.0345,-3.0943,-3.0731,-3.1241,-3.1511,-3.1511,-3.1511,0.0,0.0,-3.1511,-3.1511,-3.163,-3.2826,-3.3365,-3.3665,-3.5022,-3.598,-3.663,-3.6994,-3.7901,-3.8935,-3.9129,-3.9584,-4.0113,-4.0113,-4.0113,-4.0113,-4.0113,-4.0113,-4.0113,-4.0113,-4.0113,-4.0113,-4.0113,-4.0113,-4.0113,-4.0113,-4.0113,-4.0113,-4.0113,-4.0113,-4.0113,-4.0113,-4.0113,-4.0113,-4.0113,-4.0113,-3.9876,-3.9236,-3.8659,-3.8036,-3.7334,-3.6824,-3.634,-3.5904,-3.5836,-3.5904,-3.6073,-3.6073,-3.6309,-3.688,-3.7005,-3.7226,-3.759,-3.7701,-3.7864,-3.8065,-3.8227,-3.8882,-3.99,-4.0084,-4.0157,-1.1704,-1.1765,-1.2308,-1.4805,-1.5418,-1.5889,-1.772,0.0,0.0,0.0,-2.0441,-2.1208,-2.2466,-2.2706,0.0,0.0,0.0,0.0,0.0,0.0,0.0,0.0,0.0,0.0,0.0,0.0,0.0,0.0,0.0,0.0,-2.7335,-2.753,-2.7585,-2.7585,-2.7585,-2.7585,-2.7585,-2.7705,-2.8364,-2.9532,-2.9711,-3.0342,-3.1421,-3.1481,-3.1511,-3.1511,-3.1511,0.0,0.0,-3.1511,-3.1511,-3.157,-3.2317,-3.2976,-3.3666,-3.5094,-3.6012,-3.6813,-3.8185,-3.8799,-3.9016,-3.974,-4.0062,-4.0113,-4.0113,-4.0113,-4.0113,-4.0113,-4.0113,-4.0113,-4.0113,-4.0113,-4.0113,-4.0113,-4.0113,-4.0113,-4.0113,-4.0113,-4.0113,-4.0113,-4.0113,-4.0113,-4.0113,-4.0113,-4.0113,-4.0113,-4.0113,-4.0087,-3.9978,-3.991,-3.9598,-3.887,-3.6961,-3.5983,-3.6624,-3.6694,-3.6975,-3.7652,-3.7686,-3.7933,-3.8482,-3.8957,-3.9139,-3.8941,-3.9408,-3.9292,-3.8627,-3.9376,-3.9795,-3.99,-4.0671,-4.0985,-1.2733,-1.2858,-1.3303,-1.5057,-1.6049,-1.6788,-1.7542,0.0,0.0,-1.8761,-1.9133,-1.9809,-2.1277,-2.1602,-2.2005,0.0,0.0,0.0,0.0,0.0,0.0,0.0,0.0,0.0,0.0,0.0,0.0,0.0,0.0,0.0,-2.753,-2.7585,-2.7585,-2.7585,-2.7585,-2.7585,-2.7585,-2.8004,-2.8274,-2.8423,-2.9564,-3.0223,-3.0372,-3.1152,-3.1511,-3.1511,-3.1511,0.0,0.0,-3.1511,-3.1511,-3.157,-3.2228,-3.2914,-3.3658,-3.5087,-3.6321,-3.7496,-3.8526,-3.9236,-3.9662,-3.9978,-4.0113,-4.0113,-4.0113,-4.0113,-4.0113,-4.0113,-4.0113,-4.0113,-4.0113,-4.0113,-4.0113,-4.0113,-4.0113,-4.0113,-4.0113,-4.0113,-4.0113,-4.0113,-4.0113,-4.0113,-4.0113,-4.0113,-4.0113,-4.0113,-4.0113,-3.9927,-3.942,-3.9368,-3.9101,-3.8376,-3.7903,-3.7599,-3.7459,-3.7449,-3.7584,-3.7889,-3.7922,-3.8138,-3.8611,-3.9188,-3.9569,-3.977,-4.0331,-4.0451,-4.0141,-4.0487,-4.0855,-4.1332,-4.1662,-4.1809,-1.4185,-1.4246,-1.4483,-1.6138,-1.7048,-1.7581,0.0,0.0,-1.7745,-1.8132,-1.8382,-1.8999,-2.0532,-2.085,-2.1292,0.0,0.0,0.0,0.0,0.0,0.0,0.0,0.0,0.0,0.0,0.0,0.0,0.0,0.0,0.0,-2.7225,-2.7484,-2.7585,-2.7585,-2.7585,-2.7585,-2.7585,-2.8094,-2.8184,-2.7914,-2.9265,-2.9924,-2.9921,-3.0821,-3.1301,-3.1511,-3.1511,0.0,0.0,-3.1511,-3.1511,-3.1569,-3.2251,-3.2957,-3.3686,-3.5351,-3.6736,-3.7926,-3.8917,-3.9636,-4.0113,-4.0113,-4.0113,-4.0113,-4.0113,-4.0113,-4.0113,-4.0113,-4.0113,-4.0113,-4.0113,-4.0113,-4.0113,-4.0113,-4.0113,-4.0113,-4.0113,-4.0113,-4.0113,-4.0113,-4.0113,-4.0113,-4.0113,-4.0113,-4.0113,-4.0113,-4.0113,-3.9901,-3.9342,-3.9262,-3.9063,-3.8539,-3.9001,-3.9005,-3.8294,-3.8227,-3.8328,-3.8531,-3.8531,-3.8785,-3.9282,-3.9664,-4.002,-4.0319,-4.0907,-4.1078,-4.0822,-4.1249,-4.1772,-4.2323,-4.2543,-4.2653,-1.6151,-1.5832,-1.5854,-1.8339,-1.8511,-1.8288,0.0,-1.8621,-1.8215,-1.8267,-1.872,-1.9462,-2.0676,-2.0857,-2.121,-2.2489,0.0,0.0,0.0,0.0,0.0,0.0,0.0,0.0,0.0,0.0,0.0,0.0,0.0,0.0,-2.6467,-2.7203,-2.7585,-2.7585,-2.7585,-2.7585,-2.7585,-2.7615,-2.7944,-2.8577,-2.8607,-2.9295,-3.0492,-3.0492,-3.0853,0.0,0.0,0.0,0.0,-3.1511,-3.1511,-3.1597,-3.2299,-3.2977,-3.3765,-3.5948,-3.7228,-3.8005,-3.9556,-4.0113,-4.0113,-4.0113,-4.0113,-4.0113,-4.0113,-4.0113,-4.0113,-4.0113,-4.0113,-4.0113,-4.0113,-4.0113,-4.0113,-4.0113,-4.0113,-4.0113,-4.0113,-4.0113,-4.0113,-4.0113,-4.0113,-4.0113,-4.0113,-4.0113,-4.0113,-4.0113,-4.0113,-4.0113,-4.0087,-4.0087,-4.0087,-4.0079,-4.0079,-3.9808,-3.9039,-3.8971,-3.93,-4.0045,-4.0079,-4.0343,-4.0862,-4.0886,-4.0812,-4.0615,-4.1108,-4.1015,-4.0203,-4.1608,-4.2286,-4.2323,-4.313,-4.3515,-1.667,-1.7005,-1.7389,-1.8186,-1.883,-1.9108,-1.8594,-1.832,-1.8098,-1.7769,-1.7814,-1.8295,-1.9413,-1.9577,-2.019,-2.2183,-2.2668,0.0,0.0,0.0,0.0,0.0,0.0,0.0,0.0,0.0,0.0,0.0,0.0,0.0,-2.7199,-2.7458,-2.7585,-2.7585,-2.7585,-2.7585,-2.7585,-2.7585,-2.7705,-2.7914,-2.8368,-2.8816,-2.9235,-3.0103,-3.0612,0.0,0.0,0.0,0.0,-3.1511,-3.1796,-3.2272,-3.252,-3.3282,-3.4392,-3.562,-3.6804,-3.8002,-3.8999,-3.9673,-4.0113,-4.0113,-4.0113,-4.0113,-4.0113,-4.0113,-4.0113,-4.0113,-4.0113,-4.0113,-4.0113,-4.0113,-4.0113,-4.0113,-4.0113,-4.0113,-4.0113,-4.0113,-4.0113,-4.0113,-4.0113,-4.0113,-4.0113,-4.0113,-4.0113,-4.0113,-4.0113,-4.0113,-4.0113,-4.0113,-4.0113,-4.0113,-4.0113,-4.0011,-3.9774,-3.9774,-3.9842,-4.0079,-4.0113,-4.0179,-4.0343,-4.0685,-4.0851,-4.0789,-4.1787,-4.2169,-4.1916,-4.2721,-4.313,-4.313,-4.3404,-4.3515,0.0,-1.8394,-1.8803,-1.9057,-1.9308,-1.9334,-1.8688,-1.8215,-1.7727,-1.7174,-1.7247,-1.7601,-1.8279,-1.8925,-1.9832,-2.1274,-2.2246,0.0,0.0,0.0,0.0,0.0,0.0,0.0,0.0,0.0,0.0,0.0,0.0,0.0,-2.7171,-2.7225,-2.7345,-2.7585,-2.7585,-2.7585,-2.7585,-2.7585,-2.7585,-2.7615,-2.8034,-2.8338,-2.8637,-2.9415,-3.0043,0.0,0.0,0.0,0.0,-3.1511,-3.1938,-3.2629,-3.2895,-3.3649,-3.4706,-3.5741,-3.688,-3.8024,-3.8734,-3.9503,-4.0113,-4.0113,-4.0113,-4.0113,-4.0113,-4.0113,-4.0113,-4.0113,-4.0113,-4.0113,-4.0113,-4.0113,-4.0113,-4.0113,-4.0113,-4.0113,-4.0113,-4.0113,-4.0113,-4.0113,-4.0113,-4.0113,-4.0113,-4.0113,-4.0113,-4.0113,-4.0113,-4.0113,-4.0113,-4.0113,-4.0113,-4.0113,-4.0113,-4.0113,-4.0113,-4.0113,-4.0113,-4.0113,-4.0113,-4.0113,-4.0113,-4.0417,-4.0601,-4.0601,-4.1768,-4.2362,-4.2362,-4.3105,-4.3515,-4.3515,-4.3515,-4.3515,0.0,-1.9685,-1.9838,-2.0467,-1.9757,-1.8953,-1.897,-1.8158,0.0,-1.6626,-1.6974,-1.7423,-1.7448,-1.8866,-2.0025,-2.0109,-2.204,0.0,0.0,0.0,0.0,0.0,0.0,0.0,0.0,0.0,0.0,0.0,0.0,0.0,-2.6542,-2.6602,-2.6926,-2.7585,-2.7585,-2.7585,-2.7585,-2.7585,-2.7585,-2.7585,-2.7585,-2.7944,-2.8517,-2.8577,-2.9235,0.0,0.0,0.0,0.0,-3.1538,-3.1992,-3.2734,-3.3417,-3.4071,-3.4859,-3.6215,-3.7178,-3.7922,-3.8599,-3.9368,-4.0045,-4.0079,-4.0113,-4.0113,-4.0113,-4.0113,-4.0113,-4.0113,-4.0113,-4.0113,-4.0113,-4.0113,-4.0113,-4.0113,-4.0113,-4.0113,-4.0113,-4.0113,-4.0113,-4.0113,-4.0113,-4.0113,-4.0113,-4.0113,-4.0113,-4.0113,-4.0113,-4.0113,-4.0113,-4.0113,-4.0113,-4.0113,-4.0113,-4.0113,-4.0113,-4.0113,-4.0113,-4.0113,-4.0113,-4.0113,-4.0113,-4.0113,-4.0113,-4.0113,-4.1218,-4.1832,-4.1874,-4.2977,-4.3515,-4.3515,-4.3515,-4.3515,-1.8355,0.0,-1.8605,-1.8773,-1.86,-1.8278,0.0,-1.7586,-1.7247,0.0,0.0,-1.7549,-1.7928,-1.9102,-2.0252,-2.1037,-2.2398,0.0,0.0,0.0,0.0,0.0,0.0,0.0,0.0,0.0,0.0,0.0,0.0,-2.5352,-2.6542,-2.6602,-2.6926,-2.7585,-2.7585,-2.7585,-2.7585,-2.7585,-2.7585,-2.7585,-2.7585,-2.7675,-2.7854,-2.8368,-2.8757,0.0,0.0,0.0,-3.0819,-3.1891,-3.2761,-3.3443,-3.4096,-3.4759,-3.5418,-3.5757,-3.6366,-3.71,-3.7269,-3.8183,-3.9368,-3.991,-4.0113,-4.0113,-4.0113,-4.0113,-4.0113,-4.0113,-4.0113,-4.0113,-4.0113,-4.0113,-4.0113,-4.0113,-4.0113,-4.0113,-4.0113,-4.0113,-4.0113,-4.0113,-4.0113,-4.0113,-4.0113,-4.0113,-4.0113,-4.0113,-4.0113,-4.0113,-4.0113,-4.0113,-4.0113,-4.0113,-4.0113,-4.0113,-4.0113,-4.0113,-4.0113,-4.0113,-4.0113,-4.0113,-4.0113,-4.0113,-4.0113,-4.0113,-4.1218,-4.2021,-4.2498,-4.3178,-4.3515,-4.3515,-4.3515,-4.3515,-1.735,-1.7802,-1.8204,-1.8204,-1.8003,-1.7752,-1.7473,0.0,0.0,0.0,0.0,0.0,-1.7727,0.0,0.0,0.0,0.0,0.0,0.0,0.0,0.0,0.0,0.0,0.0,0.0,0.0,0.0,0.0,0.0,-2.4575,-2.5644,-2.5704,-2.6123,-2.7106,-2.7136,-2.7285,-2.7585,-2.7585,-2.7585,-2.7585,-2.7585,-2.7585,-2.7615,-2.7974,-2.8308,0.0,0.0,0.0,-3.1073,-3.1848,-3.2898,-3.4071,-3.4471,-3.5005,-3.56,-3.56,-3.6096,-3.6795,-3.6795,-3.7777,-3.9073,-3.9469,-3.9842,-4.0113,-4.0113,-4.0113,-4.0113,-4.0113,-4.0113,-4.0113,-4.0113,-4.0113,-4.0113,-4.0113,-4.0113,-4.0113,-4.0113,-4.0113,-4.0113,-4.0113,-4.0113,-4.0113,-4.0113,-4.0113,-4.0113,-4.0113,-4.0113,-4.0113,-4.0113,-4.0113,-4.0113,-4.0113,-4.0113,-4.0113,-4.0113,-4.0113,-4.0113,-4.0113,-4.0113,-4.0113,-4.0113,-4.0113,-4.0229,-4.0456,-4.1082,-4.1832,-4.2693,-4.3013,-4.325,-4.3515,-4.3515,-4.3515,-1.65,-1.7225,-1.7953,-1.7953,-1.7601,-1.725,-1.716,0.0,0.0,0.0,0.0,0.0,0.0,0.0,0.0,0.0,0.0,0.0,0.0,0.0,0.0,0.0,0.0,0.0,0.0,0.0,0.0,0.0,0.0,-2.3909,-2.4575,-2.4605,-2.5173,-2.6393,-2.6542,-2.6896,-2.7435,-2.7555,-2.7585,-2.7585,-2.7585,-2.7585,-2.7585,-2.7585,-2.7914,-2.8457,0.0,0.0,-3.1319,-3.1622,-3.2806,-3.4471,-3.4688,-3.5098,-3.56,-3.56,-3.6028,-3.6626,-3.6761,-3.7642,-3.8667,-3.8802,-3.9242,-3.9808,-3.991,-3.9943,-3.9977,-4.0079,-4.0113,-4.0113,-4.0113,-4.0113,-4.0113,-4.0113,-4.0113,-4.0113,-4.0113,-4.0113,-4.0113,-4.0113,-4.0113,-4.0113,-4.0113,-4.0113,-4.0113,-4.0113,-4.0113,-4.0113,-4.0113,-4.0113,-4.0113,-4.0113,-4.0113,-4.0113,-4.0113,-4.0113,-4.0113,-4.0113,-4.0113,-4.0113,-4.0113,-4.0113,-4.0294,-4.078,-4.0874,-4.1385,-4.2422,-4.2616,-4.2921,-4.3356,-4.3356,-4.3445,-1.65,-1.6626,-1.6751,-1.6751,-1.6701,-1.6517,0.0,0.0,0.0,0.0,0.0,0.0,0.0,0.0,0.0,0.0,0.0,0.0,0.0,0.0,0.0,0.0,0.0,0.0,0.0,0.0,0.0,0.0,0.0,0.0,-2.4575,-2.4605,-2.4963,-2.5734,-2.6303,-2.6632,-2.6776,-2.7315,-2.7585,-2.7585,-2.7585,-2.7585,-2.7585,-2.7585,-2.7645,-2.7794,0.0,-2.9105,-3.0041,-3.174,-3.2958,-3.3878,-3.5005,-3.5532,-3.56,-3.56,-3.5667,-3.5893,-3.6558,-3.6965,-3.7235,-3.7855,-3.8159,-3.8362,-3.8971,-3.9174,-3.93,-3.991,-4.0113,-4.0113,-4.0113,-4.0113,-4.0113,-4.0113,-4.0113,-4.0113,-4.0113,-4.0113,-4.0113,-4.0113,-4.0113,-4.0113,-4.0113,-4.0113,-4.0113,-4.0113,-4.0113,-4.0113,-4.0113,-4.0113,-4.0113,-4.0113,-4.0113,-4.0113,-4.0113,-4.0113,-4.0113,-4.0113,-4.0113,-4.0113,-4.0113,-4.0113,-4.0129,-4.0229,-4.0696,-4.0978,-4.1161,-4.2221,-4.2732,-4.2808,-4.2808,-4.3087,-1.65,-1.65,-1.65,-1.65,-1.6259,-1.593,0.0,0.0,0.0,0.0,0.0,0.0,0.0,0.0,0.0,0.0,0.0,0.0,0.0,0.0,0.0,0.0,0.0,0.0,0.0,0.0,0.0,0.0,0.0,0.0,-2.4036,-2.4059,-2.4365,-2.5023,-2.5352,-2.5704,-2.6063,-2.6363,-2.6896,-2.7585,-2.7585,-2.7585,-2.7585,-2.7585,-2.7585,-2.7615,0.0,-2.8829,-3.0173,-3.107,-3.2488,-3.415,-3.4757,-3.5228,-3.56,-3.56,-3.56,-3.5633,-3.6028,-3.6434,-3.6863,-3.7202,-3.7584,-3.8058,-3.8768,-3.9005,-3.914,-3.991,-4.0113,-4.0113,-4.0113,-4.0113,-4.0113,-4.0113,-4.0113,-4.0113,-4.0113,-4.0113,-4.0113,-4.0113,-4.0113,-4.0113,-4.0113,-4.0113,-4.0113,-4.0113,-4.0113,-4.0113,-4.0113,-4.0113,-4.0113,-4.0113,-4.0113,-4.0113,-4.0113,-4.0113,-4.0113,-4.0113,-4.0113,-4.0113,-4.0113,-4.0113,-4.0113,-4.0113,-4.0343,-4.0625,-4.092,-4.1486,-4.1895,-4.2221,-4.2221,-4.2362,-1.6543,-1.65,-1.65,-1.65,0.0,0.0,0.0,0.0,0.0,0.0,0.0,0.0,0.0,0.0,0.0,0.0,0.0,0.0,0.0,0.0,0.0,0.0,0.0,0.0,0.0,0.0,0.0,0.0,0.0,0.0,-2.361,-2.361,-2.3849,-2.4335,-2.4515,-2.4844,-2.5352,-2.5501,-2.6183,-2.7375,-2.7375,-2.7435,-2.7585,-2.7585,-2.7585,-2.761,-2.776,-2.8737,-3.029,-3.0592,-3.2097,-3.4275,-3.4428,-3.4945,-3.56,-3.56,-3.56,-3.56,-3.56,-3.5994,-3.6502,-3.6502,-3.6907,-3.755,-3.8464,-3.8734,-3.8937,-3.9842,-4.0113,-4.0113,-4.0113,-4.0113,-4.0113,-4.0113,-4.0113,-4.0113,-4.0113,-4.0113,-4.0163,-4.0279,-4.0303,-4.0303,-4.0303,-4.0303,-4.0254,-4.0138,-4.0113,-4.0113,-4.0113,-4.0113,-4.0113,-4.0113,-4.0113,-4.0113,-4.0113,-4.0113,-4.0113,-4.0113,-4.0113,-4.0113,-4.0113,-4.0113,-4.0113,-4.0113,-4.0113,-4.0294,-4.0709,-4.099,-4.1273,-4.1617,-4.1874,-4.1937,-1.6625,-1.65,-1.65,-1.65,0.0,0.0,0.0,0.0,0.0,0.0,0.0,0.0,0.0,0.0,0.0,0.0,0.0,0.0,0.0,0.0,0.0,0.0,0.0,0.0,0.0,0.0,0.0,0.0,0.0,0.0,-2.361,-2.361,-2.361,-2.367,-2.4276,-2.4634,-2.4664,-2.5292,-2.5974,-2.6662,-2.6662,-2.7016,-2.7585,-2.7585,-2.7585,-2.761,-2.8174,-2.889,-2.965,-3.0843,-3.222,-3.3631,-3.4253,-3.4945,-3.56,-3.56,-3.56,-3.56,-3.56,-3.5633,-3.5667,-3.5667,-3.5701,-3.6039,-3.755,-3.799,-3.8294,-3.9706,-4.0113,-4.0113,-4.0113,-4.0113,-4.0113,-4.0113,-4.0113,-4.0113,-4.0113,-4.0113,-4.0254,-4.0733,-4.0885,-4.0943,-4.085,-4.085,-4.0662,-4.0154,-4.0113,-4.0113,-4.0113,-4.0113,-4.0113,-4.0113,-4.0113,-4.0113,-4.0113,-4.0113,-4.0113,-4.0113,-4.0113,-4.0113,-4.0113,-4.0113,-4.0113,-4.0113,-4.0113,-4.0138,-4.0154,-4.1218,-4.1451,-4.0978,-4.2103,-4.2342,-1.7042,-1.6752,-1.65,-1.65,0.0,0.0,0.0,0.0,0.0,0.0,0.0,0.0,0.0,0.0,0.0,0.0,0.0,0.0,0.0,0.0,0.0,0.0,0.0,0.0,0.0,0.0,0.0,0.0,0.0,0.0,0.0,-2.361,-2.361,-2.361,-2.3849,-2.3999,-2.3999,-2.4238,-2.4687,-2.5375,-2.6183,-2.6956,-2.7585,-2.7585,-2.781,-2.8149,-2.8391,-2.9061,-3.0016,-3.0533,-3.1513,-3.289,-3.4047,-3.4945,-3.56,-3.56,-3.56,-3.56,-3.56,-3.56,-3.56,-3.56,-3.56,-3.587,-3.7425,-3.7922,-3.8227,-3.9673,-4.0113,-4.0113,-4.0113,-4.0113,-4.0113,-4.0113,-4.0113,-4.0113,-4.0113,-4.0113,-4.0154,-4.0368,-4.0696,-4.0838,-4.0466,-4.0696,-4.0709,-4.0179,-4.0113,-4.0113,-4.0113,-4.0113,-4.0113,-4.0113,-4.0113,-4.0113,-4.0113,-4.0113,-4.0113,-4.0113,-4.0113,-4.0113,-4.0113,-4.0113,-4.0113,-4.0113,-4.0113,-4.0113,-4.0113,-4.085,-4.1115,-4.092,-4.1362,-4.1682,-1.7126,-1.69,-1.671,0.0,0.0,0.0,0.0,0.0,0.0,0.0,0.0,0.0,0.0,0.0,0.0,0.0,0.0,0.0,0.0,0.0,0.0,0.0,0.0,0.0,0.0,0.0,0.0,0.0,0.0,0.0,0.0,-2.361,-2.361,-2.361,-2.361,-2.361,-2.361,-2.361,-2.3939,-2.4605,-2.5525,-2.6543,-2.7552,-2.7385,-2.7844,-2.8795,-2.8795,-2.9361,-3.033,-3.0497,-3.1273,-3.2462,-3.3897,-3.481,-3.5261,-3.5498,-3.56,-3.56,-3.56,-3.56,-3.56,-3.56,-3.56,-3.587,-3.7425,-3.7922,-3.8227,-3.9673,-4.0113,-4.0113,-4.0113,-4.0113,-4.0129,-4.0294,-4.0343,-4.0392,-4.0611,-4.049,-4.0466,-4.0838,-4.1059,-4.115,-4.0955,-4.1059,-4.099,-4.0441,-4.0204,-4.0113,-4.0113,-4.0113,-4.0113,-4.0113,-4.0113,-4.0113,-4.0113,-4.0113,-4.0113,-4.0113,-4.0279,-4.0303,-4.0113,-4.0113,-4.0113,-4.0113,-4.0113,-4.0113,-4.0113,-4.0827,-4.1105,-4.0886,-4.1473,-4.1754,-1.6795,-1.69,0.0,0.0,0.0,0.0,0.0,0.0,0.0,0.0,0.0,0.0,0.0,0.0,0.0,0.0,0.0,0.0,0.0,0.0,0.0,0.0,0.0,0.0,0.0,0.0,0.0,0.0,0.0,0.0,0.0,-2.361,-2.361,-2.361,-2.361,-2.361,-2.361,-2.361,-2.3939,-2.4605,-2.4605,-2.5629,-2.748,-2.6855,-2.7625,-2.9406,-2.9406,-2.9739,-3.0351,-3.0938,-3.163,-3.2462,-3.3897,-3.4472,-3.4573,-3.5329,-3.56,-3.56,-3.56,-3.56,-3.56,-3.56,-3.56,-3.587,-3.7415,-3.7889,-3.8227,-3.9673,-4.0079,-4.0113,-4.0113,-4.0113,-4.0229,-4.078,-4.092,-4.1082,-4.1682,-4.1318,-4.1251,-4.2442,-4.2221,-4.2,-4.2596,-4.22,-4.1617,-4.0978,-4.0441,-4.0113,-4.0113,-4.0113,-4.0113,-4.0113,-4.0113,-4.0113,-4.0113,-4.0113,-4.0113,-4.0113,-4.0601,-4.0672,-4.0138,-4.0113,-4.0113,-4.0113,-4.0113,-4.0113,-4.0138,-4.1263,-4.1495,-4.0955,-4.2679,-4.2885,-1.7376,0.0,0.0,0.0,0.0,0.0,0.0,0.0,0.0,0.0,0.0,0.0,0.0,0.0,0.0,0.0,0.0,0.0,0.0,0.0,0.0,0.0,0.0,0.0,0.0,0.0,0.0,0.0,0.0,0.0,0.0,-2.361,-2.361,-2.361,-2.361,-2.361,-2.361,-2.361,-2.3699,-2.3909,-2.3909,-2.5166,-2.7472,-2.6788,-2.7781,-2.9989,-2.9499,-2.9877,-3.0938,-3.1131,-3.163,-3.2395,-3.3355,-3.4032,-3.4573,-3.5329,-3.56,-3.56,-3.56,-3.56,-3.56,-3.56,-3.56,-3.5769,-3.6806,-3.7483,-3.8091,-3.9039,-3.9706,-4.0113,-4.0113,-4.0113,-4.0229,-4.078,-4.092,-4.1082,-4.1682,-4.1682,-4.166,-4.2,-4.2282,-4.2362,-4.2103,-4.1916,-4.1617,-4.0978,-4.0441,-4.0113,-4.0113,-4.0113,-4.0113,-4.0113,-4.0113,-4.0113,-4.0113,-4.0113,-4.0113,-4.0113,-4.0601,-4.0672,-4.0138,-4.0456,-4.0638,-4.0638,-4.0638,-4.085,-4.1308,-4.2077,-4.2342,-4.22,-4.2713,-4.2958,-1.7539,0.0,0.0,0.0,0.0,0.0,0.0,0.0,0.0,0.0,0.0,0.0,0.0,0.0,0.0,0.0,0.0,0.0,0.0,0.0,0.0,0.0,0.0,0.0,0.0,0.0,0.0,0.0,0.0,0.0,0.0,-2.361,-2.361,-2.361,-2.361,-2.361,-2.361,-2.361,-2.361,-2.361,-2.361,-2.4789,-2.6995,-2.6315,-2.754,-3.0188,-3.0075,-3.0442,-3.119,-3.119,-3.1481,-3.1955,-3.2679,-3.3389,-3.4167,-3.4912,-3.5329,-3.56,-3.56,-3.56,-3.56,-3.56,-3.56,-3.5735,-3.6558,-3.7313,-3.8058,-3.8802,-3.9537,-4.0113,-4.0113,-4.0113,-4.0303,-4.1082,-4.1251,-4.1473,-4.2306,-4.2286,-4.2206,-4.2426,-4.258,-4.2655,-4.2485,-4.2103,-4.1768,-4.1603,-4.1127,-4.0767,-4.0767,-4.0587,-4.0417,-4.0417,-4.0229,-4.0179,-4.0392,-4.0229,-4.0303,-4.0744,-4.1082,-4.1127,-4.0791,-4.1082,-4.1251,-4.1251,-4.1251,-4.1464,-4.181,-4.2402,-4.2693,-4.2693,-4.2939,-4.3196,0.0,0.0,0.0,0.0,0.0,0.0,0.0,0.0,0.0,0.0,0.0,0.0,0.0,0.0,0.0,0.0,0.0,0.0,0.0,0.0,0.0,0.0,0.0,0.0,0.0,0.0,0.0,0.0,0.0,0.0,0.0,-2.352,-2.355,-2.361,-2.361,-2.361,-2.361,-2.361,-2.361,-2.361,-2.361,-2.4522,-2.6182,-2.5644,-2.7086,-3.004,-3.0784,-3.1123,-3.119,-3.119,-3.119,-3.1258,-3.2022,-3.2747,-3.3491,-3.4235,-3.4979,-3.56,-3.56,-3.56,-3.56,-3.56,-3.56,-3.5735,-3.6468,-3.7246,-3.8058,-3.87,-3.9503,-4.0113,-4.0113,-4.0163,-4.0441,-4.1552,-4.181,-4.2103,-4.3178,-4.3087,-4.2939,-4.3428,-4.3124,-4.2939,-4.3428,-4.2619,-4.2041,-4.2557,-4.216,-4.181,-4.181,-4.1318,-4.0955,-4.092,-4.0504,-4.0441,-4.0874,-4.048,-4.0696,-4.1746,-4.1853,-4.1874,-4.1874,-4.1874,-4.1874,-4.1874,-4.1874,-4.1916,-4.1958,-4.2501,-4.2751,-4.277,-4.3268,-4.3515,0.0,0.0,0.0,0.0,0.0,0.0,0.0,0.0,0.0,0.0,0.0,0.0,0.0,0.0,0.0,0.0,0.0,0.0,0.0,0.0,0.0,0.0,0.0,0.0,0.0,0.0,0.0,0.0,0.0,0.0,-2.2823,-2.2882,-2.3122,-2.358,-2.361,-2.361,-2.361,-2.361,-2.361,0.0,-2.361,-2.4255,-2.5426,-2.5309,-2.6716,-2.9281,-3.0006,-3.0683,-3.119,-3.119,-3.119,-3.1258,-3.2022,-3.2747,-3.3491,-3.4235,-3.4979,-3.56,-3.56,-3.56,-3.56,-3.56,-3.56,-3.5633,-3.5825,-3.6783,-3.7922,-3.8091,-3.9073,-4.0113,-4.0113,-4.0417,-4.092,-4.1639,-4.181,-4.2,-4.2732,-4.3124,-4.3356,-4.3497,-4.3428,-4.3356,-4.3497,-4.294,-4.2382,-4.2041,-4.1895,-4.181,-4.181,-4.1703,-4.1407,-4.0932,-4.1241,-4.1308,-4.0909,-4.1241,-4.1552,-4.1789,-4.2262,-4.2518,-4.2518,-4.2518,-4.2518,-4.2518,-4.2518,-4.2696,-4.3123,-4.3268,-4.3321,-4.3321,-4.3463,-4.3515,0.0,0.0,0.0,0.0,0.0,0.0,0.0,0.0,0.0,0.0,0.0,0.0,0.0,0.0,0.0,0.0,0.0,0.0,0.0,0.0,0.0,0.0,0.0,0.0,0.0,0.0,0.0,0.0,0.0,-2.1306,-2.2613,-2.2703,-2.2972,-2.358,-2.361,-2.361,-2.361,-2.3858,-2.3985,-2.4006,-2.4225,-2.4792,-2.5612,-2.618,-2.7393,-2.9044,-2.977,-3.0514,-3.119,-3.119,-3.119,-3.1224,-3.1616,-3.2205,-3.2949,-3.3694,-3.4438,-3.5115,-3.5464,-3.56,-3.56,-3.56,-3.56,-3.5667,-3.5898,-3.7067,-3.8288,-3.8242,-3.9537,-4.0861,-4.0552,-4.0897,-4.1407,-4.1746,-4.2021,-4.2382,-4.294,-4.3303,-4.3515,-4.3515,-4.3515,-4.3515,-4.3515,-4.3268,-4.2884,-4.2322,-4.2462,-4.2602,-4.2602,-4.2402,-4.2103,-4.181,-4.1789,-4.1789,-4.1768,-4.1789,-4.2041,-4.2563,-4.2674,-4.2844,-4.3087,-4.3087,-4.3087,-4.3087,-4.3087,-4.3214,-4.3515,-4.3515,-4.3515,-4.3515,-4.3515,-4.3515,0.0,0.0,0.0,0.0,0.0,0.0,0.0,0.0,0.0,0.0,0.0,0.0,0.0,0.0,0.0,0.0,0.0,0.0,0.0,0.0,0.0,0.0,0.0,0.0,0.0,0.0,0.0,0.0,0.0,-2.1066,-2.2283,-2.2463,-2.2823,-2.343,-2.355,-2.361,-2.361,-2.4122,-2.441,-2.441,-2.5047,-2.5561,-2.603,-2.7125,-2.8112,-2.9044,-2.9634,-3.0412,-3.119,-3.119,-3.119,-3.119,-3.119,-3.165,-3.2395,-3.3119,-3.3863,-3.4607,-3.5329,-3.56,-3.56,-3.56,-3.56,-3.5689,-3.6135,-3.7391,-3.8677,-3.8633,-4.0127,-4.1703,-4.1161,-4.1495,-4.1958,-4.1958,-4.2402,-4.2921,-4.3286,-4.3445,-4.3515,-4.3515,-4.3515,-4.3515,-4.3515,-4.3515,-4.3339,-4.2884,-4.3214,-4.3515,-4.3515,-4.3124,-4.2789,-4.2693,-4.2342,-4.2246,-4.2655,-4.2342,-4.2485,-4.3426,-4.3087,-4.305,-4.3497,-4.3515,-4.3515,-4.3515,-4.3515,-4.3515,-4.3515,-4.3515,-4.3515,-4.3515,-4.3515,-4.3515,0.0,0.0,0.0,0.0,0.0,0.0,0.0,0.0,0.0,0.0,0.0,0.0,0.0,0.0,0.0,0.0,0.0,0.0,0.0,0.0,0.0,0.0,0.0,0.0,0.0,0.0,0.0,0.0,-1.9828,-2.0168,-2.0946,-2.1515,-2.2134,-2.2793,-2.331,-2.361,-2.361,-2.4122,-2.441,-2.441,-2.5411,-2.5924,-2.5997,-2.6588,-2.7622,-2.901,-2.9111,-2.9924,-3.119,-3.119,-3.119,-3.119,-3.119,-3.165,-3.2395,-3.3119,-3.3863,-3.4607,-3.5329,-3.56,-3.56,-3.56,-3.56,-3.5622,-3.5689,-3.7122,-3.8699,-3.8677,-4.0206,-4.1789,-4.1703,-4.2124,-4.2577,-4.2577,-4.2977,-4.3286,-4.2884,-4.3178,-4.3515,-4.3515,-4.3515,-4.3515,-4.3515,-4.3515,-4.348,-4.3391,-4.3463,-4.3515,-4.3515,-4.3445,-4.3214,-4.2732,-4.3032,-4.3142,-4.2713,-4.3032,-4.3339,-4.3497,-4.3445,-4.3445,-4.3497,-4.3515,-4.3515,-4.3515,-4.3515,-4.3515,-4.3515,-4.3515,-4.3515,-4.3515,-4.3515,-4.3515,0.0,0.0,0.0,0.0,0.0,0.0,0.0,0.0,0.0,0.0,0.0,0.0,0.0,0.0,0.0,0.0,0.0,0.0,0.0,0.0,0.0,0.0,0.0,0.0,0.0,0.0,0.0,0.0,-1.9708,-2.0157,-2.1216,-2.1186,-2.1784,-2.3182,-2.3131,-2.3251,-2.361,-2.443,-2.5112,-2.5677,-2.6175,-2.6367,-2.6418,-2.7045,-2.7943,-2.901,-2.901,-2.9856,-3.119,-3.119,-3.119,-3.119,-3.119,-3.1393,-3.1765,-3.251,-3.3254,-3.3998,-3.4742,-3.5228,-3.56,-3.56,-3.56,-3.5667,-3.5963,-3.722,-3.864,-3.9041,-4.057,-4.2099,-4.2275,-4.2732,-4.316,-4.316,-4.3321,-4.3445,-4.3196,-4.3321,-4.3515,-4.3515,-4.3515,-4.3515,-4.3515,-4.3515,-4.3515,-4.3515,-4.3515,-4.3515,-4.3515,-4.3515,-4.3391,-4.3178,-4.3356,-4.3391,-4.3178,-4.3356,-4.3515,-4.3515,-4.3515,-4.3515,-4.3515,-4.3515,-4.3515,-4.3515,-4.3515,-4.3515,-4.3515,-4.3515,-4.3515,-4.3515,-4.3515,-4.3515,0.0,0.0,0.0,0.0,0.0,0.0,0.0,0.0,0.0,0.0,0.0,0.0,0.0,0.0,0.0,0.0,0.0,0.0,0.0,0.0,0.0,0.0,0.0,0.0,0.0,0.0,0.0,0.0,-1.9708,-2.0272,-2.1579,-2.1337,-2.194,-2.3722,-2.3498,-2.3539,-2.3996,-2.495,-2.5837,-2.6691,-2.6691,-2.6691,-2.6725,-2.7266,-2.8078,-2.901,-2.9213,-3.0025,-3.119,-3.119,-3.119,-3.119,-3.119,-3.119,-3.1292,-3.2022,-3.2747,-3.3525,-3.4235,-3.4979,-3.56,-3.56,-3.56,-3.5689,-3.6092,-3.7225,-3.8557,-3.9301,-4.0853,-4.2385,-4.2795,-4.3196,-4.3515,-4.3515,-4.3515,-4.3515,-4.3515,-4.3515,-4.3515,-4.3515,-4.3515,-4.3515,-4.3515,-4.3515,-4.3515,-4.3515,-4.3515,-4.3515,-4.3515,-4.3515,-4.3515,-4.3515,-4.3515,-4.3515,-4.3515,-4.3515,-4.3515,-4.3515,-4.3515,-4.3515,-4.3515,-4.3515,-4.3515,-4.3515,-4.3515,-4.3515,-4.3515,-4.3515,-4.3515,-4.3515,-4.3515,-4.3515,0.0,0.0,0.0,0.0,0.0,0.0,0.0,0.0,0.0,0.0,0.0,0.0,0.0,0.0,0.0,0.0,0.0,0.0,0.0,0.0,0.0,0.0,0.0,0.0,0.0,0.0,0.0,0.0,-1.9708,-2.0243,-2.145,-2.2022,-2.2879,-2.4122,-2.4761,-2.5093,-2.5125,-2.5687,-2.6192,-2.6691,-2.6691,-2.6691,-2.6691,-2.6725,-2.7588,-2.9044,-2.9736,-3.048,-3.119,-3.119,-3.119,-3.119,-3.119,-3.119,-3.1292,-3.2022,-3.2747,-3.3525,-3.4235,-3.4979,-3.56,-3.56,-3.56,-3.56,-3.5644,-3.6936,-3.8557,-3.9376,-4.089,-4.247,-4.326,-4.3497,-4.3515,-4.3515,-4.3515,-4.3515,-4.3515,-4.3515,-4.3515,-4.3515,-4.3515,-4.3515,-4.3515,-4.3515,-4.3515,-4.3515,-4.3515,-4.3515,-4.3515,-4.3515,-4.3515,-4.3515,-4.3515,-4.3515,-4.3515,-4.3515,-4.3515,-4.3515,-4.3515,-4.3515,-4.3515,-4.3515,-4.3515,-4.3515,-4.3515,-4.3515,-4.3515,-4.3515,-4.3515,-4.3515,-4.3515,-4.3515,0.0,0.0,0.0,0.0,0.0,0.0,0.0,0.0,0.0,0.0,0.0,0.0,0.0,0.0,0.0,0.0,0.0,0.0,0.0,0.0,0.0,0.0,0.0,0.0,0.0,0.0,0.0,0.0,0.0,-2.1118,-2.2459,-2.2318,-2.2802,-2.4076,-2.442,-2.4941,-2.5723,-2.5906,-2.6261,-2.6691,-2.6691,-2.6691,-2.6725,-2.7199,-2.7689,-2.8297,-2.9567,-3.0514,-3.119,-3.119,-3.119,-3.119,-3.119,-3.119,-3.1224,-3.1515,-3.2374,-3.3457,-3.3694,-3.4607,-3.56,-3.56,-3.56,-3.56,-3.56,-3.6547,-3.7919,-3.9235,-4.051,-4.1846,-4.3167,-4.3515,-4.3515,-4.3515,-4.3515,-4.3515,-4.3515,-4.3515,-4.3515,-4.3515,-4.3515,-4.3515,-4.3515,-4.3515,-4.3515,-4.3515,-4.3515,-4.3515,-4.3515,-4.3515,-4.3515,-4.3515,-4.3515,-4.3515,-4.3515,-4.3515,-4.3515,-4.3515,-4.3515,-4.3515,-4.3515,-4.3515,-4.3515,-4.3515,-4.3515,-4.3515,-4.3515,-4.3515,-4.3515,-4.3515,-4.3515,-4.3515,0.0,0.0,0.0,0.0,0.0,0.0,0.0,0.0,0.0,0.0,0.0,0.0,0.0,0.0,0.0,0.0,0.0,0.0,0.0,0.0,0.0,0.0,0.0,0.0,0.0,0.0,0.0,0.0,0.0,0.0,-2.3282,-2.2701,-2.3028,-2.4546,-2.4664,-2.5168,-2.621,-2.6228,-2.6367,-2.6691,-2.6691,-2.6691,-2.6725,-2.7199,-2.7553,-2.7858,-2.9161,-3.0142,-3.0852,-3.1089,-3.119,-3.119,-3.119,-3.119,-3.119,-3.119,-3.2138,-3.3423,-3.3423,-3.4349,-3.56,-3.56,-3.56,-3.56,-3.56,-3.6354,-3.7565,-3.9128,-4.033,-4.1462,-4.3057,-4.3515,-4.3515,-4.3515,-4.3515,-4.3515,-4.3515,-4.3515,-4.3515,-4.3515,-4.3515,-4.3515,-4.3515,-4.3515,-4.3515,-4.3515,-4.3515,-4.3515,-4.3515,-4.3515,-4.3515,-4.3515,-4.3515,-4.3515,-4.3515,-4.3515,-4.3515,-4.3515,-4.3515,-4.3515,-4.3515,-4.3515,-4.3515,-4.3515,-4.3515,-4.3515,-4.3515,-4.3515,-4.3515,-4.3515,-4.3515,-4.3515,0.0,0.0,0.0,0.0,0.0,0.0,0.0,0.0,0.0,0.0,0.0,0.0,0.0,0.0,0.0,0.0,0.0,0.0,0.0,0.0,0.0,0.0,0.0,0.0,0.0,0.0,0.0,0.0,-2.1071,-2.1924,-2.3836,-2.3224,-2.3665,-2.5559,-2.5559,-2.5913,-2.6623,-2.6657,-2.6657,-2.6657,-2.6708,-2.6691,-2.6691,-2.6691,-2.7097,-2.7824,-2.8619,-2.9364,-3.0142,-3.0886,-3.119,-3.119,-3.119,-3.119,-3.119,-3.119,-3.2104,-3.3389,-3.3389,-3.4349,-3.5566,-3.56,-3.56,-3.56,-3.5622,-3.6374,-3.7565,-3.9128,-4.0311,-4.1445,-4.304,-4.3497,-4.3515,-4.3515,-4.3515,-4.3515,-4.3515,-4.3515,-4.3515,-4.3515,-4.3515,-4.3515,-4.3515,-4.3515,-4.3515,-4.3515,-4.3515,-4.3515,-4.3515,-4.3515,-4.3515,-4.3515,-4.3515,-4.3515,-4.3515,-4.3515,-4.3515,-4.3515,-4.3515,-4.3515,-4.3515,-4.3515,-4.3515,-4.3515,-4.3515,-4.3515,-4.3515,-4.3515,-4.3515,-4.3515,-4.3515,-4.3497,-1.9708,0.0,0.0,0.0,0.0,0.0,0.0,0.0,0.0,0.0,0.0,0.0,0.0,0.0,0.0,0.0,0.0,0.0,0.0,0.0,0.0,0.0,0.0,0.0,0.0,0.0,0.0,0.0,-2.2727,-2.3441,-2.5026,-2.4908,-2.5057,-2.5592,-2.5067,-2.4914,-2.5117,-2.5642,-2.5913,-2.5913,-2.6454,-2.6691,-2.6691,-2.6691,-2.6793,-2.7063,-2.7807,-2.8586,-2.9416,-3.0702,-3.119,-3.119,-3.119,-3.119,-3.119,-3.119,-3.1799,-3.2699,-3.322,-3.4032,-3.4878,-3.543,-3.56,-3.5689,-3.6071,-3.6681,-3.7546,-3.9089,-3.9978,-4.0836,-4.2503,-4.3214,-4.3515,-4.3515,-4.3515,-4.3515,-4.3515,-4.3515,-4.3515,-4.3515,-4.3515,-4.3515,-4.3515,-4.3515,-4.3515,-4.3515,-4.3515,-4.3515,-4.3515,-4.3515,-4.3515,-4.3515,-4.3515,-4.3515,-4.3515,-4.3515,-4.3515,-4.3515,-4.3515,-4.3515,-4.3515,-4.3515,-4.3515,-4.3515,-4.3515,-4.3515,-4.3515,-4.3515,-4.3515,-4.3515,-4.3515,-4.3286,0.0,0.0,0.0,0.0,0.0,0.0,0.0,0.0,0.0,0.0,0.0,0.0,0.0,0.0,0.0,0.0,0.0,0.0,0.0,0.0,0.0,0.0,0.0,0.0,0.0,-2.2117,-2.292,-2.3801,-2.3864,-2.4237,-2.5101,-2.5439,-2.5473,-2.5135,-2.5,-2.4982,-2.4982,-2.5406,-2.5744,-2.6048,-2.6184,-2.6387,-2.6691,-2.6691,-2.6691,-2.6725,-2.7486,-2.8281,-2.9077,-3.0243,-3.092,-3.119,-3.119,-3.119,-3.119,-3.119,-3.1684,-3.2429,-3.3152,-3.3863,-3.4607,-3.5363,-3.5744,-3.6006,-3.6291,-3.6904,-3.7701,-3.8738,-3.9866,-4.1125,-4.2631,-4.3268,-4.3515,-4.3515,-4.3515,-4.3515,-4.3515,-4.3515,-4.3515,-4.3515,-4.3515,-4.3515,-4.3515,-4.3515,-4.3515,-4.3515,-4.3515,-4.3515,-4.3515,-4.3515,-4.3515,-4.3515,-4.3515,-4.3515,-4.3515,-4.3515,-4.3515,-4.3515,-4.3515,-4.3515,-4.3515,-4.3515,-4.3515,-4.3515,-4.3515,-4.3515,-4.3515,-4.3515,-4.3374,-4.316,-4.2921,-4.2619,0.0,0.0,0.0,0.0,0.0,0.0,-2.2054,-2.2014,0.0,0.0,0.0,0.0,0.0,0.0,0.0,0.0,0.0,0.0,0.0,0.0,0.0,0.0,0.0,0.0,0.0,-2.3309,-2.4163,-2.4578,-2.4711,-2.4745,-2.4745,-2.5372,-2.5372,-2.4643,-2.5169,-2.5439,-2.5372,-2.5439,-2.5812,-2.6471,-2.5947,-2.6082,-2.6691,-2.6691,-2.6691,-2.6725,-2.7486,-2.8281,-2.9077,-2.9803,-3.0548,-3.119,-3.119,-3.119,-3.119,-3.119,-3.1596,-3.2293,-3.3119,-3.3829,-3.4527,-3.5418,-3.6028,-3.6416,-3.6539,-3.721,-3.7987,-3.8465,-4.0069,-4.1904,-4.3103,-4.3463,-4.3515,-4.3515,-4.3515,-4.3515,-4.3515,-4.3515,-4.3515,-4.3515,-4.3515,-4.3515,-4.3515,-4.3515,-4.3515,-4.3515,-4.3515,-4.3515,-4.3515,-4.3515,-4.3515,-4.3515,-4.3515,-4.3515,-4.3515,-4.3515,-4.3515,-4.3515,-4.3515,-4.3515,-4.3515,-4.3515,-4.3515,-4.3515,-4.3515,-4.3515,-4.3515,-4.3463,-4.3142,-4.2596,-4.2041,-4.1768,-1.9024,-1.9363,0.0,0.0,0.0,0.0,0.0,-2.1006,0.0,0.0,0.0,0.0,0.0,0.0,0.0,0.0,0.0,0.0,0.0,0.0,0.0,0.0,0.0,0.0,0.0,-2.4062,-2.4651,-2.5338,-2.5947,-2.6251,-2.6251,-2.6387,-2.615,-2.5406,-2.4932,-2.444,-2.3849,-2.4406,-2.4778,-2.4948,-2.5981,-2.6556,-2.6691,-2.6691,-2.6691,-2.6725,-2.7486,-2.8281,-2.9077,-2.9803,-3.0548,-3.119,-3.119,-3.119,-3.119,-3.119,-3.1292,-3.1596,-3.2949,-3.3491,-3.3893,-3.5689,-3.6312,-3.656,-3.7378,-3.7755,-3.8165,-3.9481,-4.112,-4.2551,-4.2772,-4.3178,-4.3515,-4.3515,-4.3515,-4.3515,-4.3515,-4.3515,-4.3515,-4.3515,-4.3515,-4.3515,-4.3515,-4.3515,-4.3515,-4.3515,-4.3515,-4.3515,-4.3515,-4.3515,-4.3515,-4.3515,-4.3515,-4.3515,-4.3515,-4.3515,-4.3515,-4.3515,-4.3515,-4.3515,-4.3515,-4.3515,-4.3515,-4.3515,-4.3515,-4.3515,-4.3515,-4.3087,-4.2541,-4.1979,-4.1853,-4.1516,-1.8489,-1.8689,0.0,-1.9324,0.0,0.0,0.0,0.0,0.0,0.0,0.0,0.0,0.0,0.0,0.0,0.0,0.0,0.0,0.0,0.0,0.0,0.0,0.0,0.0,0.0,-2.5162,-2.5744,-2.6116,-2.6488,-2.6691,-2.6691,-2.6353,-2.5981,-2.5592,-2.5236,-2.4695,-2.3966,-2.4305,-2.4677,-2.5033,-2.5422,-2.5997,-2.6691,-2.6691,-2.6691,-2.6725,-2.7097,-2.7706,-2.845,-2.9228,-2.9973,-3.0683,-3.1055,-3.119,-3.119,-3.119,-3.119,-3.136,-3.2476,-3.3085,-3.3677,-3.5318,-3.6287,-3.6923,-3.7685,-3.7893,-3.827,-4.0143,-4.1071,-4.1758,-4.2832,-4.3286,-4.3515,-4.3515,-4.3515,-4.3515,-4.3515,-4.3515,-4.3515,-4.3515,-4.3515,-4.3515,-4.3515,-4.3515,-4.3515,-4.3515,-4.3515,-4.3515,-4.3515,-4.3515,-4.3515,-4.3515,-4.3515,-4.3515,-4.3515,-4.3515,-4.3515,-4.3515,-4.3515,-4.3515,-4.3515,-4.3515,-4.3515,-4.3515,-4.3515,-4.3515,-4.3515,-4.2976,-4.2382,-4.181,-4.1473,-4.1059,0.0,0.0,0.0,0.0,0.0,-1.973,0.0,0.0,0.0,0.0,0.0,0.0,0.0,0.0,0.0,0.0,0.0,0.0,0.0,0.0,0.0,0.0,0.0,0.0,0.0,-2.6034,-2.6556,-2.6708,-2.6556,-2.6556,-2.6691,-2.615,-2.5812,-2.5812,-2.566,-2.5236,-2.4508,-2.4508,-2.4812,-2.5372,-2.4948,-2.5422,-2.6691,-2.6691,-2.6691,-2.6691,-2.686,-2.7266,-2.7858,-2.8671,-2.9431,-3.0176,-3.092,-3.119,-3.119,-3.119,-3.119,-3.1292,-3.2056,-3.278,-3.3609,-3.489,-3.6213,-3.7415,-3.7929,-3.8174,-3.8693,-4.0573,-4.0898,-4.1106,-4.3007,-4.3515,-4.3515,-4.3515,-4.3515,-4.3515,-4.3515,-4.3515,-4.3515,-4.3515,-4.3515,-4.3515,-4.3515,-4.3515,-4.3515,-4.3515,-4.3515,-4.3515,-4.3515,-4.3515,-4.3515,-4.3515,-4.3515,-4.3515,-4.3515,-4.3515,-4.3515,-4.3515,-4.3515,-4.3515,-4.3515,-4.3515,-4.3515,-4.3515,-4.3515,-4.3515,-4.3515,-4.3087,-4.2482,-4.1789,-4.1161,-4.0625,0.0,0.0,0.0,0.0,-1.9517,0.0,0.0,0.0,0.0,0.0,0.0,0.0,0.0,0.0,0.0,0.0,0.0,0.0,0.0,0.0,0.0,0.0,0.0,0.0,0.0,0.0,-2.6015,-2.6657,-2.6082,-2.6015,-2.6657,-2.6623,-2.659,-2.659,-2.5947,-2.5236,-2.4508,-2.4508,-2.4541,-2.4643,-2.5203,-2.5913,-2.6691,-2.6691,-2.6691,-2.6725,-2.7384,-2.7722,-2.7858,-2.8671,-2.9431,-3.0176,-3.092,-3.119,-3.119,-3.119,-3.119,-3.1292,-3.2056,-3.278,-3.3609,-3.489,-3.6461,-3.7911,-3.8449,-3.9103,-3.9873,-4.0838,-4.1576,-4.2292,-4.324,-4.3515,-4.3515,-4.3515,-4.3515,-4.3515,-4.3515,-4.3515,-4.3515,-4.3515,-4.3515,-4.3515,-4.3515,-4.3515,-4.3515,-4.3515,-4.3515,-4.3515,-4.3515,-4.3515,-4.3515,-4.3515,-4.3515,-4.3515,-4.3515,-4.3515,-4.3515,-4.3515,-4.3515,-4.3515,-4.3515,-4.3515,-4.3515,-4.3515,-4.3515,-4.3515,-4.3515,-4.3445,-4.2847,-4.1789,-4.1161,-4.0625,0.0,0.0,0.0,0.0,0.0,0.0,-1.9963,0.0,-2.0049,0.0,0.0,0.0,0.0,0.0,0.0,0.0,0.0,0.0,0.0,0.0,0.0,0.0,0.0,0.0,0.0,0.0,0.0,0.0,0.0,-2.5913,-2.6657,-2.6285,-2.6251,-2.6708,-2.5981,-2.5124,-2.4162,-2.4162,-2.4,-2.3687,-2.4331,-2.518,-2.628,-2.6573,-2.6691,-2.6725,-2.7029,-2.7165,-2.7232,-2.801,-2.8466,-2.8872,-3.0108,-3.0818,-3.119,-3.119,-3.119,-3.1224,-3.1549,-3.2158,-3.3053,-3.4752,-3.6498,-3.7928,-3.8148,-3.8684,-3.946,-4.0728,-4.1352,-4.1919,-4.3167,-4.3515,-4.3515,-4.3515,-4.3515,-4.3515,-4.3515,-4.3515,-4.3515,-4.3515,-4.3515,-4.3515,-4.3515,-4.3515,-4.3515,-4.3515,-4.3515,-4.3515,-4.3515,-4.3515,-4.3515,-4.3515,-4.3515,-4.3515,-4.3515,-4.3515,-4.3515,-4.3515,-4.3515,-4.3515,-4.3515,-4.3515,-4.3515,-4.3515,-4.3515,-4.3515,-4.3515,-4.3515,-4.3087,-4.2302,-4.1725,-4.0884,-1.7049,0.0,0.0,0.0,0.0,0.0,0.0,0.0,0.0,0.0,0.0,0.0,0.0,0.0,0.0,0.0,0.0,0.0,0.0,0.0,0.0,0.0,0.0,0.0,0.0,0.0,0.0,0.0,0.0,-2.571,-2.6657,-2.6184,-2.61,-2.6488,-2.6,-2.513,-2.3964,-2.3767,-2.358,-2.3373,-2.3597,-2.4491,-2.5997,-2.6366,-2.659,-2.6691,-2.6691,-2.6691,-2.6725,-2.7283,-2.7621,-2.7925,-2.9296,-3.0243,-3.092,-3.1123,-3.119,-3.119,-3.119,-3.1799,-3.2917,-3.4938,-3.6466,-3.756,-3.7825,-3.8148,-3.8825,-4.0586,-4.1095,-4.1462,-4.3057,-4.3515,-4.3515,-4.3515,-4.3515,-4.3515,-4.3515,-4.3515,-4.3515,-4.3515,-4.3515,-4.3515,-4.3515,-4.3515,-4.3515,-4.3515,-4.3515,-4.3515,-4.3515,-4.3515,-4.3515,-4.3515,-4.3515,-4.3515,-4.3515,-4.3515,-4.3515,-4.3515,-4.3515,-4.3515,-4.3515,-4.3515,-4.3515,-4.3515,-4.3515,-4.3515,-4.3515,-4.3515,-4.3286,-4.2884,-4.193,-4.0875,0.0,0.0,0.0,-1.7769,0.0,0.0,0.0,0.0,-1.9708,0.0,0.0,0.0,0.0,0.0,0.0,0.0,0.0,0.0,0.0,0.0,0.0,0.0,0.0,0.0,0.0,0.0,0.0,0.0,0.0,0.0,-2.6623,-2.6657,-2.6471,-2.6033,-2.6015,-2.5368,-2.4108,-2.3455,-2.3437,-2.4071,-2.3423,-2.4126,-2.5997,-2.5997,-2.6245,-2.6691,-2.6691,-2.6691,-2.6691,-2.6725,-2.7165,-2.7891,-2.8687,-2.9499,-3.0224,-3.0954,-3.119,-3.119,-3.119,-3.2138,-3.3677,-3.5711,-3.6381,-3.6606,-3.7614,-3.7893,-3.8374,-4.0504,-4.1095,-4.1462,-4.3057,-4.3515,-4.3515,-4.3515,-4.3515,-4.3515,-4.3515,-4.3515,-4.3515,-4.3515,-4.3515,-4.3515,-4.3515,-4.3515,-4.3515,-4.3515,-4.3515,-4.3515,-4.3515,-4.3515,-4.3515,-4.3515,-4.3515,-4.3515,-4.3515,-4.3515,-4.3515,-4.3515,-4.3515,-4.3515,-4.3515,-4.3515,-4.3515,-4.3515,-4.3515,-4.3515,-4.3515,-4.3515,-4.3497,-4.3426,-4.1594,-4.0404,0.0,0.0,-1.927,-1.9065,0.0,0.0,0.0,0.0,0.0,0.0,0.0,0.0,0.0,0.0,0.0,0.0,0.0,0.0,0.0,0.0,0.0,0.0,0.0,0.0,0.0,0.0,0.0,0.0,0.0,0.0,0.0,-2.5709,-2.5635,-2.5468,-2.5468,-2.49,-2.3669,-2.3418,-2.3277,-2.3171,-2.3607,-2.4231,-2.4989,-2.5982,-2.6401,-2.6245,-2.6573,-2.6691,-2.6691,-2.6691,-2.686,-2.7199,-2.8502,-2.9145,-2.9517,-3.0751,-3.119,-3.119,-3.119,-3.2171,-3.3512,-3.4197,-3.5311,-3.6457,-3.6805,-3.7378,-3.8253,-4.0055,-4.0805,-4.1462,-4.3057,-4.3515,-4.3515,-4.3515,-4.3515,-4.3515,-4.3515,-4.3515,-4.3515,-4.3515,-4.3515,-4.3515,-4.3515,-4.3515,-4.3515,-4.3515,-4.3515,-4.3515,-4.3515,-4.3515,-4.3515,-4.3515,-4.3515,-4.3515,-4.3515,-4.3515,-4.3515,-4.3515,-4.3515,-4.3515,-4.3515,-4.3515,-4.3515,-4.3515,-4.3515,-4.3515,-4.3515,-4.2947,-4.2727,-4.2636,-4.0286,-3.9343,-1.9107,-1.9347,0.0,-1.9564,-1.9783,0.0,-1.9766,0.0,0.0,0.0,0.0,0.0,0.0,0.0,0.0,0.0,0.0,0.0,0.0,0.0,0.0,0.0,0.0,0.0,0.0,0.0,-2.3436,-2.422,0.0,0.0,0.0,0.0,-2.5125,-2.493,-2.493,-2.4359,-2.3141,-2.2896,-2.2747,-2.2703,-2.3142,-2.3782,-2.4732,-2.5728,-2.6192,-2.6245,-2.6573,-2.6691,-2.6691,-2.6691,-2.6691,-2.686,-2.84,-2.901,-2.9179,-3.0649,-3.119,-3.1258,-3.1799,-3.2611,-3.3491,-3.4032,-3.5049,-3.6143,-3.6333,-3.6981,-3.8008,-3.9788,-4.0702,-4.1462,-4.3057,-4.3515,-4.3515,-4.3515,-4.3515,-4.3515,-4.3515,-4.3515,-4.3515,-4.3515,-4.3515,-4.3515,-4.3515,-4.3515,-4.3515,-4.3515,-4.3515,-4.3515,-4.3515,-4.3515,-4.3515,-4.3515,-4.3515,-4.3515,-4.3515,-4.3515,-4.3515,-4.3515,-4.3515,-4.3515,-4.3515,-4.3515,-4.3515,-4.3515,-4.3515,-4.3515,-4.3515,-4.2983,-4.2727,-4.2673,-4.0018,-3.927]}]]